GFSGBSN_850_dewp_000.txt.gz
Dewpoint
7 8 8 7 6 4 1 6 5 6 7 6 6 3 3 -6 -7 -2 -3 -1 -0 -0 1 -0 1 3 1 5 5 3 4 3 3 4 7 8 8 7 6 6 6 8 6 7 8 7 6
5 6 7 8 8 7 4 -1 6 6 6 6 6 5 4 1 -7 -1 -1 1 2 1 1 1 1 4 3 5 -2 0 4 5 5 3 5 6 7 6 7 6 6 5 6 7 6 6 6
2 3 5 6 7 8 6 2 4 5 6 6 6 6 5 3 -5 -3 0 2 3 3 1 -0 2 2 4 2 0 1 2 2 3 4 3 7 4 8 7 7 6 6 7 6 5 7 6
3 3 2 4 6 7 7 6 1 5 5 5 5 5 6 2 -0 -5 -1 5 3 5 3 3 1 3 3 1 -0 2 3 2 4 4 4 4 2 6 5 6 6 7 7 9 6 6 7
2 2 3 2 4 6 6 6 5 4 5 5 5 5 6 3 2 -2 4 4 4 2 3 4 4 3 3 2 1 0 2 2 2 3 3 3 2 3 4 7 7 7 8 7 7 6 7
1 0 2 3 2 3 6 6 6 4 5 5 5 5 5 4 3 1 4 3 4 5 3 4 3 5 3 2 1 1 1 3 2 2 2 3 3 4 5 7 8 6 7 6 6 7 7
1 1 0 2 2 2 4 5 6 6 4 5 5 6 6 4 3 1 4 4 3 3 3 2 3 3 1 2 2 1 2 3 2 3 3 2 5 5 4 4 5 6 6 6 5 4 6
-1 -1 -0 2 2 2 -1 3 5 6 4 5 6 6 7 5 3 1 3 3 3 3 4 3 3 3 2 3 3 2 2 3 3 4 2 3 5 2 3 3 4 5 6 6 4 3 5
-2 -3 -1 0 1 2 2 -0 -1 5 5 5 5 6 7 6 3 2 3 4 3 3 4 3 2 4 3 2 3 3 2 3 3 3 2 4 2 0 3 4 5 5 5 5 5 4 3
-2 -3 -4 -1 1 1 2 1 0 3 6 5 5 6 7 5 4 1 3 4 3 3 4 2 3 4 4 3 4 3 2 2 3 3 2 3 2 2 2 4 3 5 3 4 5 6 8
-2 -1 -4 -1 0 -0 0 1 1 1 5 5 5 6 6 5 3 1 0 3 2 4 -2 1 3 3 4 4 3 3 3 2 4 3 3 3 3 3 3 2 2 4 1 2 4 5 6
-2 -2 -3 -1 -0 -0 -1 -1 2 2 2 4 6 6 6 5 2 -0 1 2 4 3 2 4 3 4 4 4 3 3 3 3 3 3 3 2 1 2 2 0 -0 2 3 3 4 6 7
-2 -3 -3 -1 -1 0 -0 -1 1 1 3 3 6 6 6 4 1 1 4 5 3 3 1 4 4 4 3 4 4 3 5 5 5 5 5 5 4 2 3 4 2 2 4 7 7 6 6
-2 -2 -3 -4 -1 -1 -0 -0 1 2 3 3 3 6 6 4 1 2 4 4 3 1 3 3 3 4 4 3 4 3 5 5 4 5 6 5 5 4 2 3 3 3 3 5 5 6 5
-2 -3 -3 -3 -2 -1 -0 0 2 1 2 3 3 6 5 3 2 2 3 4 1 2 3 4 3 5 5 4 3 4 5 4 2 4 5 5 4 3 2 2 1 4 4 2 5 5 7
-2 -2 -3 -2 -2 -1 -0 0 1 2 2 3 3 5 4 2 2 3 3 2 3 3 4 4 6 5 5 4 4 4 4 2 3 2 1 2 3 3 2 3 2 3 1 4 4 7 8
-2 -2 -3 -3 -2 -2 -1 0 1 2 2 3 4 3 4 2 4 3 4 2 3 4 4 5 6 6 4 3 3 3 3 2 2 1 2 2 4 5 4 4 5 5 4 3 2 5 9
-2 -2 -2 -3 -3 -3 -2 0 1 1 2 2 3 4 3 4 4 4 5 3 2 4 4 4 4 5 5 2 4 2 3 -0 0 0 4 2 5 5 4 2 3 2 3 3 4 3 6
-2 -3 -2 -4 -3 -4 -1 0 0 1 2 3 4 5 3 4 5 4 4 3 2 4 5 4 5 4 4 3 3 2 1 -2 -1 1 3 4 6 6 6 5 5 7 2 3 2 5 8
-2 -2 -2 -3 -3 -4 -1 -0 0 1 2 3 3 6 5 4 4 3 3 4 4 3 3 4 5 4 5 5 1 2 2 0 -1 -0 1 3 6 6 6 7 6 7 6 4 6 6 5
-3 -3 -2 -4 -3 -2 -1 -0 0 1 3 4 4 5 4 5 5 4 3 4 4 5 4 5 5 5 6 5 3 3 1 -1 2 3 4 4 6 5 5 5 5 7 7 6 8 6 6
-3 -3 -3 -4 -3 -3 -1 -1 -0 1 3 4 5 5 3 3 4 5 4 6 5 5 5 6 6 5 4 6 1 1 1 2 3 4 5 4 5 5 6 6 6 8 7 7 7 6 6
-3 -3 -3 -4 -4 -2 -2 -1 -0 1 2 2 4 5 3 4 4 5 5 4 5 4 4 4 5 5 5 5 3 3 3 2 2 5 4 4 5 6 9 9 8 10 7 8 6 5 5
-3 -3 -3 -3 -4 -2 -2 -1 -0 1 1 2 5 5 5 6 5 5 4 4 5 4 4 5 5 5 4 4 3 4 4 5 2 1 1 4 5 6 9 9 8 2 4 6 7 6 6
-3 -3 -3 -3 -4 -2 -2 -1 -0 1 1 2 4 5 4 6 4 4 4 4 3 5 5 5 5 4 4 4 7 7 7 6 4 3 2 1 4 6 7 7 4 1 -0 4 5 5 1
-3 -3 -3 -3 -4 -2 -2 -1 -0 1 1 3 5 4 4 5 5 4 4 3 4 4 5 5 5 5 4 6 7 8 7 5 6 6 3 3 3 7 7 6 6 1 -1 -2 -1 4 -1
-3 -3 -3 -4 -4 -3 -2 -1 -0 0 1 3 5 6 5 5 4 4 4 3 4 4 4 5 5 6 6 7 8 8 7 5 7 6 7 6 6 6 6 8 5 2 -1 -1 4 3 -1
-3 -3 -3 -4 -3 -3 -2 -1 -1 0 1 2 4 5 5 4 4 4 4 4 4 4 5 5 6 6 6 7 7 8 6 6 6 5 6 6 7 7 6 7 6 1 -1 -1 -1 -0 1
-4 -4 -3 -4 -3 -3 -2 -1 -1 -1 1 2 5 5 5 5 5 4 4 4 4 3 4 5 5 5 5 7 6 7 5 6 5 7 3 7 6 7 6 5 2 0 0 1 -1 0 0

GFSGBSN_850_dewp_003.txt.gz
Dewpoint
3 3 4 5 7 7 8 7 4 4 5 6 6 6 6 4 0 -5 -1 -1 -0 0 1 1 -1 0 1 7 7 3 2 3 5 7 7 9 8 7 7 6 6 7 7 6 6 7 7
3 3 3 3 4 5 6 7 7 3 4 5 6 6 5 5 3 -4 -0 -2 1 1 5 1 0 5 3 4 -2 4 5 4 4 4 5 7 6 7 7 6 6 6 5 6 6 6 6
1 2 3 3 3 3 5 6 7 6 2 5 5 6 5 6 5 2 -1 2 4 4 2 1 2 3 5 2 -0 -2 3 5 4 5 3 2 5 7 7 7 6 6 6 5 5 5 6
2 2 2 1 1 2 3 4 6 7 6 3 5 5 6 5 5 3 -1 3 5 5 5 3 2 3 3 2 0 1 1 3 3 4 4 4 3 2 6 5 5 6 6 8 4 5 5
0 0 0 1 1 1 2 3 4 6 7 5 5 4 6 6 6 2 1 2 4 3 4 4 4 3 3 3 2 0 1 2 3 4 4 4 3 2 3 6 7 7 7 7 6 5 6
-1 -1 -1 -1 1 1 2 2 3 4 6 7 5 5 6 5 6 3 -0 4 4 4 3 4 4 4 2 2 1 1 0 2 2 2 3 3 3 5 5 7 7 6 8 6 6 5 6
-1 -1 -2 -2 -2 1 1 2 2 3 4 5 5 6 6 6 4 3 1 5 4 5 4 3 3 2 2 2 2 2 1 2 3 2 3 2 5 6 4 4 5 5 6 6 5 4 5
-1 -1 -2 -1 -1 -3 1 1 1 2 1 3 6 5 7 7 6 3 2 4 3 3 3 3 3 3 2 3 3 2 2 3 3 4 3 3 5 3 2 2 4 5 6 6 4 3 4
-2 -1 -2 -1 -2 -2 -0 0 1 1 1 -2 4 5 7 7 6 4 2 3 3 3 3 2 2 4 3 2 3 2 2 3 3 4 4 4 2 1 2 3 5 5 5 4 4 3 2
-1 -1 -2 -2 -3 -2 -0 -0 0 2 0 -1 3 6 6 7 5 4 3 1 3 3 2 1 4 4 3 3 3 2 2 2 3 4 3 3 1 2 2 3 3 5 3 4 4 4 5
-1 -1 -1 -1 -3 -3 -2 -1 1 1 -0 0 0 4 6 7 5 4 3 1 4 3 -1 1 3 3 4 3 3 4 2 2 3 3 3 3 3 3 3 3 2 3 2 2 4 6 5
-1 -2 -2 -2 -4 -3 -2 -1 1 1 -0 -0 2 2 6 6 4 3 1 -0 3 1 1 4 3 4 5 3 3 3 3 2 3 3 3 2 1 2 2 1 0 1 2 3 3 4 6
-0 -1 -2 -3 -2 -3 -0 -1 -0 -1 -0 1 2 1 4 6 4 1 -0 3 3 3 1 5 3 4 2 4 4 3 4 5 5 5 5 5 3 2 2 3 1 1 3 6 6 6 5
-1 -1 -1 -3 -2 -1 -0 -1 -1 0 1 1 2 1 4 5 4 0 2 3 2 -0 3 2 2 4 4 3 4 4 5 5 4 4 5 4 4 4 2 2 3 3 2 4 5 5 3
-2 -1 -2 -2 -2 -2 -1 -2 -1 1 2 2 2 3 2 4 4 0 2 3 1 0 3 3 3 4 4 3 3 4 5 3 2 3 4 4 3 2 2 0 1 5 5 1 2 2 7
-2 -2 -2 -2 -2 -3 -2 -1 -1 1 2 2 2 3 4 4 2 3 2 1 0 2 3 2 4 3 3 3 4 4 2 2 2 1 1 3 4 2 2 1 1 1 1 5 5 6 6
-2 -2 -2 -2 -2 -3 -2 -1 -0 0 1 1 2 2 4 3 2 3 4 -0 1 3 3 4 4 4 3 4 3 2 1 1 2 2 2 3 3 3 4 4 3 3 4 3 1 3 4
-2 -2 -2 -2 -2 -3 -2 -0 -0 0 1 1 1 2 4 3 4 4 3 1 1 4 4 4 3 3 3 3 3 2 3 1 1 1 4 3 4 4 3 2 0 1 2 2 5 2 1
-2 -2 -2 -2 -2 -3 -3 -1 -1 0 0 1 2 4 3 3 4 4 2 2 2 5 5 5 5 3 2 3 4 2 1 -1 1 2 3 3 6 5 6 5 4 6 3 1 1 3 2
-3 -2 -3 -2 -3 -3 -3 -1 -2 0 1 3 3 4 3 4 3 2 2 3 3 2 3 3 4 3 4 5 2 3 2 0 1 1 2 3 6 6 5 6 5 5 5 2 1 4 4
-4 -3 -3 -3 -3 -3 -3 -3 -1 0 2 3 3 4 2 4 4 2 2 3 3 5 3 3 5 5 5 5 4 3 2 1 1 2 3 5 6 5 5 4 6 6 5 4 4 2 3
-3 -3 -3 -3 -3 -4 -3 -3 -1 0 2 4 4 5 2 2 3 3 3 3 5 3 5 5 6 4 5 6 3 1 1 1 2 4 4 5 6 5 6 5 5 6 5 6 3 3 3
-3 -3 -3 -3 -3 -4 -3 -2 -1 0 1 1 2 5 3 3 4 3 3 4 4 4 5 4 4 4 5 5 3 2 3 3 3 5 6 5 5 6 7 7 7 7 5 6 5 4 5
-3 -3 -3 -3 -3 -3 -2 -1 -0 0 1 1 2 2 5 5 3 3 4 3 4 4 4 4 4 5 4 4 4 3 4 4 4 4 4 5 5 6 7 8 9 5 5 4 5 5 4
-3 -3 -3 -3 -3 -3 -3 -1 -0 0 1 1 2 3 5 5 2 3 4 4 4 4 4 4 4 4 4 5 6 6 7 6 5 3 4 3 4 8 9 7 5 5 8 7 8 6 5
-3 -3 -3 -3 -3 -3 -3 -2 -1 -0 1 2 4 5 5 5 5 4 4 4 5 5 4 4 4 5 5 6 6 8 5 5 5 6 3 2 3 6 7 7 5 1 3 2 5 6 4
-3 -3 -3 -3 -3 -3 -2 -2 -1 -1 1 2 3 5 4 3 4 4 4 4 3 3 3 4 4 5 5 6 7 7 6 4 6 6 7 6 6 6 7 7 5 1 -1 -0 7 4 -1
-3 -3 -3 -3 -3 -4 -3 -2 -1 -2 0 1 3 5 5 4 4 4 3 4 4 3 5 4 5 6 6 6 7 6 6 5 5 4 5 5 6 6 5 7 5 1 -1 1 -0 0 -1
-2 -3 -3 -4 -4 -4 -4 -2 -1 -2 -0 1 2 4 5 4 4 4 4 3 3 4 3 4 5 5 6 6 6 6 6 5 5 6 3 6 4 5 4 4 1 0 1 1 -0 0 0

GFSGBSN_850_dewp_006.txt.gz
Dewpoint
2 3 3 2 3 4 4 5 5 7 7 2 5 5 7 7 6 4 -5 -2 -0 2 3 3 4 2 6 8 8 3 3 4 5 8 9 9 8 6 6 6 6 7 7 7 7 6 6
1 2 2 1 2 2 3 3 4 6 6 7 2 5 5 7 5 5 1 -2 -1 2 4 2 3 5 3 5 3 6 4 4 5 8 9 9 7 7 7 6 6 5 6 6 5 6 6
1 1 1 1 2 2 2 2 3 4 6 6 6 4 5 6 6 5 4 -2 -0 2 4 3 3 4 6 3 0 -1 5 5 4 5 5 5 7 6 7 7 6 6 6 5 5 5 5
0 0 0 0 -0 -0 1 2 2 2 4 5 6 4 5 5 7 5 4 2 3 4 5 4 1 3 4 2 1 1 1 4 4 4 4 4 4 3 6 6 5 6 6 8 4 4 5
-0 -0 0 -1 -0 0 -0 -0 1 1 2 4 5 6 5 6 7 6 4 2 3 5 4 5 5 2 3 2 3 0 2 2 3 4 4 4 4 2 4 5 5 6 6 6 5 3 5
1 -1 -1 -1 -1 -0 -1 -2 0 1 1 2 4 5 6 6 7 7 4 2 2 4 3 4 5 4 3 2 2 1 1 2 3 3 3 3 3 4 4 5 5 5 6 5 5 4 4
-1 -1 -1 -1 -1 -1 -2 -2 -0 0 1 2 2 4 5 6 6 7 4 4 5 4 4 3 3 3 1 2 2 1 1 1 2 2 4 2 5 5 4 4 3 5 6 6 5 3 4
-1 -0 -1 -1 -1 -1 -2 -2 -1 -0 0 1 2 2 4 6 7 7 4 1 2 1 3 3 3 3 3 3 3 2 2 2 3 4 2 3 4 2 2 3 4 5 6 6 4 2 4
-0 -0 -1 -0 -1 -1 -2 -2 -2 -3 -1 0 1 1 -0 6 6 6 4 2 2 2 2 1 2 4 3 2 3 3 2 3 3 3 4 3 2 1 3 3 4 4 5 4 4 2 1
-0 -0 -0 -1 -1 -1 -1 -2 -2 -3 -2 0 0 -2 -1 5 6 6 4 3 3 1 -2 -1 3 3 3 3 3 2 2 2 3 4 3 4 2 2 2 3 3 5 3 4 4 4 4
-0 -0 -0 -1 -1 -2 -1 -1 -2 -1 -1 1 -1 -3 -2 3 5 5 4 3 2 1 -1 0 3 4 3 2 2 3 2 2 3 3 2 2 3 3 3 2 2 2 2 3 4 5 5
-0 -1 -2 -1 -1 -2 -2 -1 -1 0 -1 -1 -0 -3 -0 2 4 5 3 2 2 -1 -1 3 3 5 4 3 3 3 3 2 2 2 2 1 1 1 2 1 1 1 2 2 3 4 5
-1 -1 -3 -3 -1 -2 -2 -1 -2 -1 -1 1 0 -1 -0 1 4 5 3 3 2 1 1 4 3 4 4 4 4 4 3 4 5 5 5 5 4 2 2 2 1 2 4 5 6 6 4
-1 -2 -2 -4 -3 -1 -1 -2 -1 -2 -0 1 1 1 0 2 2 5 1 1 1 -0 2 2 1 2 4 3 3 4 5 5 4 4 5 4 3 4 2 2 3 3 3 4 4 6 3
-2 -2 -2 -2 -2 -2 -2 -2 -1 -0 -0 1 1 2 2 -0 3 3 2 3 1 0 3 3 2 3 3 3 3 4 5 4 2 4 5 5 3 2 2 1 2 5 5 1 3 1 4
-1 -3 -2 -2 -2 -2 -2 -2 -1 0 0 1 2 2 2 1 4 3 1 2 -1 1 2 2 4 3 4 3 4 5 4 1 3 2 1 3 4 1 2 2 1 4 2 5 5 5 4
-1 -2 -2 -2 -2 -2 -2 -2 -1 -0 0 1 2 2 2 0 3 3 4 1 -0 3 2 3 3 3 2 2 3 4 1 -0 1 1 1 3 4 2 4 4 3 4 4 4 3 4 2
-2 -4 -2 -2 -2 -3 -2 -2 -1 -1 0 1 1 2 3 2 3 3 2 -1 -0 4 4 4 2 2 3 2 4 2 2 1 0 1 3 2 5 4 2 1 0 1 2 2 4 1 2
-2 -3 -2 -3 -3 -3 -3 -2 -1 -1 0 1 1 4 4 3 4 4 2 2 2 5 5 4 4 3 3 3 3 2 2 -1 1 2 3 3 5 5 4 4 3 5 2 1 1 2 2
-3 -4 -2 -3 -3 -3 -3 -2 -1 0 -1 2 1 4 3 3 3 2 2 2 2 3 4 3 4 3 4 4 2 2 2 0 1 1 2 2 5 5 4 5 5 6 4 3 2 5 2
-3 -4 -2 -3 -3 -3 -3 -2 -1 0 1 3 3 3 2 3 4 1 1 2 3 4 3 3 5 4 5 6 4 4 2 1 1 1 3 4 5 5 5 3 5 6 5 4 5 3 3
-4 -4 -2 -3 -3 -3 -3 -2 -0 0 1 3 3 3 1 2 2 1 1 3 3 3 4 4 4 4 5 6 4 2 3 3 4 2 3 4 5 5 5 6 5 6 6 6 5 3 2
-3 -3 -2 -2 -3 -3 -3 -3 -0 0 1 0 1 3 1 2 3 2 2 3 3 3 2 3 4 5 5 5 4 4 3 2 3 4 5 5 4 6 6 6 7 6 5 4 4 4 2
-3 -3 -3 -2 -2 -3 -3 -2 -1 0 1 1 1 2 4 4 3 2 2 1 4 4 4 4 4 5 4 4 4 4 3 3 3 4 4 5 4 5 6 7 9 6 4 3 3 4 2
-2 -3 -3 -3 -2 -3 -3 -2 -1 -0 1 1 2 2 5 4 2 2 4 3 2 4 4 4 3 4 4 4 6 6 5 5 5 5 5 4 5 7 8 8 6 6 7 4 5 5 2
-2 -3 -3 -3 -3 -3 -4 -4 -2 -1 1 2 4 3 4 4 3 2 3 4 5 5 5 4 4 5 4 6 6 7 5 5 4 5 2 4 4 6 7 8 5 2 6 6 5 8 4
-2 -3 -3 -3 -3 -3 -4 -3 -2 -2 0 1 3 3 5 4 3 2 3 4 4 4 4 3 4 4 4 6 7 7 7 3 5 6 6 6 5 6 6 7 5 2 1 4 8 5 1
-4 -4 -3 -3 -4 -4 -5 -4 -3 -2 -0 1 2 3 5 4 4 4 3 3 3 3 4 4 5 5 5 6 7 7 7 5 5 3 5 5 5 6 5 7 4 1 1 4 1 -0 -0
-4 -5 -4 -3 -4 -4 -5 -3 -3 -2 -1 0 1 4 5 4 4 4 4 3 3 3 3 4 4 5 5 7 5 6 6 4 4 5 3 6 4 4 4 3 0 1 0 1 -0 0 0

GFSGBSN_850_dewp_009.txt.gz
Dewpoint
1 1 1 1 1 1 1 3 3 3 3 5 6 6 4 5 6 6 5 4 -5 -1 3 1 0 2 6 8 8 5 4 5 6 9 9 8 8 5 6 6 6 7 7 7 7 7 7
1 1 1 1 1 1 1 1 1 2 2 3 5 6 5 5 5 7 5 5 -5 -1 3 3 2 4 3 6 6 7 4 3 5 8 9 8 7 7 6 6 6 5 6 6 5 5 6
1 1 1 1 0 0 1 1 0 -0 2 2 4 5 6 5 5 7 5 5 -2 -1 3 4 2 4 5 2 -0 -0 5 5 4 9 8 8 7 6 7 7 6 5 6 5 5 5 5
0 1 -0 0 -0 0 -0 -0 -1 -1 1 1 2 4 5 5 5 6 6 5 0 2 4 4 1 3 3 2 2 1 4 5 7 6 5 4 5 6 6 6 4 6 5 7 4 4 4
-1 -0 1 -0 0 0 0 0 -0 -1 0 1 1 2 3 5 6 6 7 5 -0 5 5 6 5 3 2 2 2 2 1 5 5 4 4 4 4 3 5 5 5 5 6 6 5 3 4
1 -0 0 0 -0 0 0 0 -0 -1 -2 -0 -1 -0 2 4 6 6 7 5 3 5 4 4 5 4 4 2 3 2 2 2 2 4 4 4 3 4 4 5 5 5 6 5 5 3 4
0 -1 -1 -0 0 -0 -1 -1 -1 -1 -0 -1 -1 -1 -0 1 5 6 6 4 4 4 4 2 3 3 2 2 2 2 1 2 2 3 4 3 5 5 4 3 3 5 5 6 4 3 4
0 -0 0 1 -0 0 -0 -1 -1 -1 -1 -2 -2 -1 -1 0 4 6 6 4 3 0 3 2 3 3 3 3 3 3 2 2 2 4 2 4 4 2 2 3 4 4 5 5 3 3 3
1 1 1 0 -0 -1 -1 -1 -2 -1 -2 -1 -1 0 1 1 0 5 5 4 2 1 0 1 3 3 2 3 3 3 2 3 3 4 4 4 2 1 2 3 4 3 4 3 3 2 1
1 0 0 -0 -1 -1 -1 -2 -1 -1 -1 -0 0 -1 0 1 1 4 5 4 2 1 -2 -1 2 3 3 3 2 2 2 2 3 4 3 2 1 2 3 4 3 4 2 3 4 4 4
0 1 0 -0 -1 -2 -2 -1 -1 -1 -1 -2 -1 -1 -0 1 2 5 4 3 2 -3 -3 0 3 3 3 2 2 3 3 2 3 3 3 2 3 4 4 3 2 3 1 2 3 5 5
0 0 -0 -1 -1 -2 -2 -2 -1 -1 -0 -2 -1 0 1 2 0 2 4 3 1 -1 -1 3 3 4 3 2 3 3 3 2 2 2 2 1 1 1 1 1 1 1 3 3 3 4 6
0 0 -0 -1 -1 -3 -2 -1 -1 -1 -1 -1 -0 0 1 2 2 1 4 3 3 -0 0 4 4 5 3 4 4 3 4 4 5 5 4 3 3 2 1 2 1 2 5 5 6 6 4
-1 -0 -1 -3 -2 -3 -2 -2 -2 -2 -1 0 0 1 0 1 1 3 4 3 3 -1 2 1 1 4 4 2 3 4 3 5 3 4 4 2 2 2 2 2 2 3 3 5 5 4 3
-1 -1 -2 -3 -2 -4 -2 -2 -2 -2 -1 0 2 1 2 2 1 1 3 4 1 0 2 2 2 4 4 2 3 3 4 4 3 3 5 3 3 1 2 1 1 4 4 1 5 4 5
-2 -2 -3 -2 -2 -4 -2 -2 -2 -1 -1 0 1 2 2 2 0 1 2 3 -1 2 1 2 4 2 3 3 4 4 4 2 3 2 2 3 4 1 2 1 1 3 3 5 5 5 5
-1 -4 -3 -3 -2 -4 -3 -2 -2 -1 -0 1 1 1 2 2 1 2 4 1 0 2 1 2 3 3 2 3 3 4 2 -1 1 2 2 3 4 2 3 4 3 4 5 5 5 5 4
-2 -2 -4 -3 -4 -5 -4 -2 -1 -1 0 1 0 3 1 2 2 1 3 -1 2 3 3 4 2 2 2 2 3 2 2 -0 -0 1 4 2 4 4 2 1 1 1 2 2 4 3 3
-3 -2 -2 -3 -4 -4 -3 -3 -1 -0 1 1 1 3 2 2 4 4 2 2 3 4 4 3 3 3 2 2 4 2 1 -1 1 1 2 2 5 4 2 3 2 4 2 2 2 2 4
-5 -2 -2 -3 -3 -3 -3 -2 -1 0 1 2 1 3 2 3 3 2 2 2 3 3 4 3 3 3 3 4 1 2 2 0 0 1 1 2 4 3 3 3 5 5 4 3 4 4 2
-5 -2 -2 -2 -3 -3 -3 -2 -1 0 1 2 2 3 2 3 3 2 1 1 3 4 3 3 4 3 4 6 5 4 2 1 1 1 2 3 5 5 4 3 4 5 5 5 5 3 3
-5 -2 -2 -2 -3 -2 -3 -3 -1 0 1 2 1 3 2 2 2 1 1 2 2 3 4 4 4 4 4 5 3 3 2 2 2 2 4 4 5 5 5 5 5 5 5 5 4 3 2
-3 -4 -2 -2 -4 -2 -3 -2 -1 0 1 1 1 2 3 2 1 1 1 2 3 3 2 3 3 4 5 4 3 3 4 3 3 3 4 5 5 5 6 4 6 7 6 5 5 4 3
-2 -2 -2 -2 -3 -3 -3 -4 -2 -1 0 1 1 2 3 4 2 1 1 1 3 3 4 4 3 5 3 4 4 4 4 4 4 3 2 6 4 5 6 6 8 8 5 4 4 2 3
-4 -2 -2 -2 -3 -4 -2 -5 -3 -2 -0 1 2 2 4 4 2 1 1 0 1 3 4 4 3 3 3 4 4 6 6 5 4 4 4 4 5 6 7 8 7 3 4 5 5 4 2
-2 -2 -3 -2 -3 -4 -4 -3 -5 -3 -1 1 3 3 3 4 2 1 3 3 4 4 4 4 4 4 4 5 6 7 6 4 4 4 3 4 5 6 7 8 8 2 4 2 4 7 2
-3 -2 -3 -4 -4 -4 -4 -5 -4 -9 -3 0 2 2 3 5 3 2 3 4 3 4 4 3 4 4 5 6 7 7 7 3 5 6 6 6 6 7 7 7 5 2 1 4 7 5 0
-10 -5 -3 -4 -5 -5 -4 -4 -3 -14 -5 -0 1 2 2 4 4 2 2 3 3 3 4 3 5 5 5 5 6 6 5 4 4 2 4 4 6 5 5 6 4 1 4 6 2 0 0
-15 -13 -3 -7 -5 -5 -4 -3 -5 -12 -4 -2 -0 2 4 4 4 4 3 3 3 3 3 4 4 4 4 5 5 6 6 4 3 5 2 5 3 4 4 3 -0 1 1 0 1 0 0

GFSGBSN_850_dewp_012.txt.gz
Dewpoint
1 2 2 1 1 1 1 1 1 1 1 1 2 4 5 6 5 5 7 6 5 -5 -2 1 1 4 7 8 8 5 4 6 7 9 9 8 6 5 5 4 5 5 3 4 4 6 5
1 1 1 0 1 1 1 1 0 0 -0 -0 2 2 4 5 5 5 6 6 5 -2 -2 3 1 1 5 7 6 7 4 4 6 8 9 8 8 6 5 4 4 4 5 5 4 4 4
1 1 1 1 1 0 -0 -0 0 0 -0 -1 1 1 2 4 5 5 6 7 5 -1 -1 5 3 3 5 3 2 3 6 6 6 9 9 9 7 6 6 5 5 5 5 3 2 2 3
1 1 1 0 0 1 1 1 0 0 0 -0 -1 1 0 3 4 6 6 7 5 -1 0 3 3 2 4 2 2 0 3 6 7 6 8 7 7 6 4 5 3 4 4 5 2 3 2
1 1 -0 0 1 1 0 0 0 0 -0 -0 -0 -0 -1 1 3 5 6 7 5 -0 3 5 4 3 3 2 2 1 2 5 6 4 5 6 5 3 4 3 3 3 3 4 3 1 2
1 0 1 1 0 -0 0 0 -1 -0 -1 -1 -0 -2 -1 -2 1 4 6 7 5 4 5 6 5 4 4 3 3 3 1 4 4 4 4 4 4 3 3 4 4 2 4 2 2 1 3
0 1 1 1 0 0 -0 -0 -1 -0 -1 -2 -2 -1 -3 -1 -2 2 5 6 5 5 5 3 3 2 3 3 3 3 2 3 3 4 4 3 5 5 2 2 1 2 3 3 2 2 3
1 1 1 1 -0 -0 -0 -1 -0 -1 -1 -3 -2 -1 -1 -1 -1 0 2 5 3 2 4 4 3 3 3 3 3 4 3 2 2 3 2 4 5 2 1 1 2 3 3 3 1 0 1
1 1 1 1 0 0 -2 -1 -1 -1 -1 -2 -2 -2 -1 -2 -1 -2 1 4 3 1 1 4 4 3 3 3 2 3 3 2 2 3 3 3 2 1 2 3 3 3 3 3 2 1 0
1 -0 -1 -1 -0 -2 -2 -1 -1 -1 -2 -1 -1 -1 -1 0 -2 1 1 3 4 3 4 2 4 3 3 3 2 3 2 2 2 3 2 3 0 2 2 3 2 3 0 1 2 3 4
0 -1 -0 -0 -2 -3 -2 -1 -2 -1 -1 -2 0 -1 -1 -1 1 -0 3 4 4 3 6 1 3 3 3 1 2 4 3 2 2 2 2 2 3 3 3 2 1 2 0 1 1 3 2
-0 -0 -1 -2 -3 -2 -1 -1 -1 -1 -1 -3 -1 -1 -0 -0 0 -2 2 4 4 3 5 3 3 4 4 2 3 3 3 2 1 2 2 1 0 0 0 0 1 0 1 1 1 2 6
-1 -1 -2 -3 -2 -2 -1 -2 -2 -2 -1 -2 -0 0 1 1 1 -2 2 2 3 6 0 4 3 3 2 2 3 3 4 4 4 5 5 2 2 0 -0 1 1 1 3 4 4 5 3
-1 -2 -3 -3 -1 -2 -2 -2 -2 -2 -1 -1 0 2 -0 1 -1 2 1 2 5 0 1 1 3 2 3 2 4 3 4 5 2 2 3 4 4 2 1 1 1 2 2 3 2 -1 -1
-2 -3 -2 -2 -2 -2 -2 -2 -2 -3 -3 -0 1 1 2 0 1 1 1 5 5 -0 1 2 3 3 4 1 2 3 3 2 1 2 4 4 3 0 1 0 1 2 4 1 4 1 4
-2 -2 -2 -2 -2 -2 -2 -2 -2 -1 -0 1 1 1 2 1 2 1 2 6 0 1 0 0 3 1 2 3 2 2 3 1 2 1 -1 1 4 -0 0 1 1 2 0 4 5 4 3
-1 -2 -2 -2 -2 -4 -2 -3 -1 -0 -0 1 1 1 2 2 1 1 4 3 3 0 0 1 2 2 1 2 2 2 2 0 0 2 1 1 1 2 2 3 1 3 4 5 3 4 3
-1 -3 -2 -2 -4 -5 -2 -2 -1 -1 1 1 1 2 2 2 2 2 4 0 2 2 3 2 0 1 1 2 2 2 2 -0 -1 1 3 1 2 4 2 -1 -1 -1 0 1 5 4 5
-1 -3 -2 -2 -2 -2 -2 -2 -2 -0 1 2 1 2 2 1 4 4 2 2 3 3 4 3 3 1 0 2 3 1 1 -1 -0 1 2 1 5 5 4 3 1 2 1 0 3 4 5
-1 -2 -3 -2 -2 -2 -2 -3 -2 0 1 2 1 3 2 2 3 2 2 2 4 3 4 2 3 2 2 2 1 2 2 0 -0 -0 1 1 2 4 3 4 3 6 4 3 5 5 3
-1 -1 -3 -2 -2 -2 -2 -5 -3 0 1 2 2 3 2 4 3 0 1 2 4 4 3 3 3 2 2 3 3 3 2 1 1 1 1 2 5 5 3 2 3 5 4 5 5 4 4
-2 -1 -1 -2 -2 -3 -3 -5 -3 -1 1 1 1 3 2 3 1 -0 2 2 2 4 3 3 3 2 2 3 3 3 3 2 2 1 2 3 5 5 5 4 4 6 5 5 6 5 3
-2 -3 -2 -2 -3 -3 -5 -9 -2 -2 0 1 1 2 3 3 2 1 2 1 1 2 3 3 2 3 4 3 2 3 2 2 2 2 3 4 5 6 5 3 4 7 6 6 6 5 3
-3 -2 -2 -2 -2 -3 -5 -9 -3 -4 -0 1 1 1 3 3 2 0 0 1 2 1 4 3 3 3 4 4 4 4 3 3 4 4 2 5 5 5 6 6 9 7 5 5 5 5 3
-3 -3 -2 -2 -3 -4 -5 -6 -3 -8 -4 1 2 2 3 3 1 0 1 1 3 3 3 3 3 3 3 3 4 4 4 5 4 4 4 3 5 7 8 8 5 5 5 7 5 4 1
-4 -4 -3 -3 -5 -4 -5 -7 -3 -12 -6 0 2 2 3 4 2 0 1 0 2 3 4 3 4 4 3 5 5 6 6 4 4 4 4 4 4 6 7 8 9 5 2 2 2 5 1
-15 -11 -4 -3 -4 -5 -5 -6 -4 -14 -10 -7 1 1 2 3 4 1 2 3 3 3 4 3 4 4 5 5 5 7 5 4 5 5 6 5 6 6 7 7 5 2 1 4 6 4 1
-16 -14 -5 -10 -10 -9 -3 -6 -10 -13 -16 -5 -4 1 0 1 4 2 1 3 3 3 3 3 4 5 5 5 6 5 6 4 5 3 4 4 6 6 6 5 7 1 3 4 2 1 0
-16 -15 -7 -19 -17 -12 -6 -5 -11 -10 -11 -7 -2 -2 0 0 4 3 3 2 2 2 2 3 4 4 4 5 5 6 5 4 4 5 2 5 4 4 4 4 1 1 2 1 1 1 1

GFSGBSN_850_dewp_015.txt.gz
Dewpoint
1 1 1 2 2 1 1 1 1 1 1 1 1 1 1 3 5 6 5 6 8 5 -0 -1 -0 3 6 8 8 6 6 6 8 9 8 7 5 4 4 2 2 4 2 -1 1 2 3
1 1 2 2 1 1 1 1 1 1 0 1 1 0 1 1 3 5 6 5 7 5 2 -2 1 1 6 7 7 7 5 7 8 9 9 8 6 5 4 3 3 2 3 2 2 3 3
2 1 2 -0 1 1 1 1 1 0 1 1 1 1 0 0 -0 3 5 6 5 6 3 0 3 2 5 5 4 5 7 7 8 9 9 8 8 7 6 5 4 4 5 3 2 2 2
2 2 1 1 1 1 -0 -1 1 0 0 0 1 1 -0 0 1 2 4 6 5 6 1 3 5 5 4 4 4 1 4 7 7 8 8 8 7 7 4 4 3 4 3 5 1 1 0
1 1 2 2 2 1 -0 1 0 -1 0 1 0 0 0 -0 -0 -0 3 5 5 7 1 3 4 5 3 2 3 3 3 5 6 6 7 8 7 5 4 4 3 2 4 3 2 -0 1
2 1 2 2 -0 1 -0 -0 -0 -0 -1 -1 -1 -4 -3 -2 -3 -1 1 4 5 6 3 5 5 4 3 3 4 4 3 5 4 5 5 4 3 3 3 3 4 3 4 2 1 -1 1
2 1 1 1 1 0 -0 -1 -1 -0 -2 -2 -2 -3 -2 -3 -2 0 0 3 6 5 5 5 4 2 3 4 4 4 3 4 4 3 4 3 5 5 2 1 1 1 1 1 -0 -2 1
-0 0 1 1 1 -0 -2 -1 -1 -1 -2 -2 -2 -2 -1 -2 -2 -1 0 1 3 5 5 4 3 3 3 3 3 3 2 3 3 5 3 5 6 2 1 1 2 2 2 2 -0 -1 -0
1 1 0 -0 -2 -1 -3 -2 -2 -3 -2 -3 -2 -1 -1 -1 -1 -3 -1 0 3 4 4 4 3 3 4 3 2 3 2 1 3 4 3 4 2 0 1 2 3 2 3 2 1 -0 -1
0 -0 -0 -1 -1 -2 -3 -2 -3 -2 -2 -1 -1 -1 -1 -1 -1 2 2 0 1 4 5 5 4 2 3 3 2 3 2 2 2 3 2 3 0 1 1 2 1 3 -1 -0 1 2 3
0 0 -2 -2 -2 -3 -2 -1 -3 -1 -1 -1 -1 -1 -1 -1 0 1 1 3 1 4 7 2 3 3 2 1 2 3 2 2 2 2 2 3 2 2 2 1 0 2 0 1 1 2 2
1 -2 -2 -2 -1 -1 -1 -2 -2 -1 -1 -2 -1 -1 -0 -0 -0 -1 -0 1 3 5 7 4 3 3 2 -0 2 3 3 2 1 0 1 -0 -1 -0 0 -0 -0 -0 1 1 1 2 5
-0 -1 -1 -1 -1 -1 -2 -2 -1 -1 -1 -1 -0 1 1 1 0 1 -0 3 4 7 1 5 2 3 2 1 2 2 3 3 3 5 5 2 1 -0 -1 1 0 1 2 4 6 6 4
-2 -2 -2 -2 -1 -2 -2 -1 -2 -1 -1 -0 1 1 1 2 1 1 2 2 5 3 2 0 3 2 3 1 1 2 3 3 0 1 3 4 6 1 0 1 1 1 2 3 2 -1 -2
-2 -2 -3 -1 -1 -2 -2 -2 -1 -1 -0 1 1 1 1 2 1 1 2 3 6 1 1 3 2 3 3 2 2 2 2 3 0 1 4 4 4 -1 -0 -1 -0 2 4 1 3 1 2
-2 -1 -2 -2 -2 -2 -2 -2 -1 -1 1 1 1 1 2 0 0 0 3 5 3 -0 -0 0 3 1 3 2 4 2 2 -0 1 -1 -1 1 5 -0 -1 0 -0 1 -1 4 5 4 2
-1 -1 -2 -2 -1 -2 -2 -2 -1 0 1 1 1 1 1 1 1 2 4 5 2 -0 -0 1 1 1 1 1 1 1 2 0 -1 -0 -1 -0 1 3 1 2 0 2 3 4 2 4 5
-1 -2 -1 -3 -2 -2 -1 -2 -1 0 2 1 1 2 2 0 3 2 5 4 1 1 2 1 -1 -1 -0 0 1 1 1 -1 -1 -0 1 -0 1 4 2 -2 -2 -1 1 1 5 3 4
-1 -1 -1 -3 -2 -3 -2 -2 -1 1 2 2 1 2 2 2 3 2 3 3 1 3 3 2 1 -0 -1 0 2 1 0 -1 -2 0 1 0 4 5 5 2 -1 1 -0 -0 2 4 6
-2 -2 -1 -2 -3 -4 -2 -2 -2 0 2 1 1 3 2 2 3 1 5 3 4 3 2 1 1 -1 0 1 0 1 1 0 -1 -1 0 -0 2 5 3 5 2 6 3 2 5 6 4
-2 -1 -2 -2 -2 -3 -3 -3 -2 -1 2 2 3 3 2 4 2 2 2 2 3 2 2 1 1 0 -0 1 1 1 1 1 0 -0 -0 0 6 4 2 2 3 4 4 4 6 6 6
-2 -2 -2 -2 -2 -2 -3 -3 -2 -3 1 2 2 3 2 1 -0 -0 1 2 2 3 1 2 1 1 1 1 1 2 1 1 1 1 1 2 5 5 5 3 3 5 4 5 7 6 6
-2 -3 -3 -3 -3 -3 -3 -4 -3 -4 0 1 2 2 3 1 -0 -0 0 0 1 1 2 2 1 2 2 2 2 2 1 1 1 2 3 4 5 5 5 2 3 7 7 7 7 6 6
-3 -3 -3 -3 -9 -5 -3 -4 -4 -11 -0 1 1 2 3 2 -0 -1 -1 -0 0 1 3 2 2 2 4 4 3 3 2 2 2 3 3 5 5 6 7 5 9 6 4 5 6 5 3
-3 -5 -4 -3 -9 -6 -4 -3 -3 -15 -6 1 1 2 2 3 1 -0 -1 1 1 0 2 3 3 3 3 3 3 2 4 4 4 3 4 4 5 7 8 6 3 6 4 6 7 6 1
-5 -3 -9 -8 -23 -23 -8 -3 -8 -11 -16 -4 1 2 2 4 1 -1 -0 -0 2 2 3 2 4 4 4 3 4 4 5 3 4 5 4 4 3 6 7 8 7 5 2 3 3 6 1
-3 -4 -4 -16 -24 -24 -25 -17 -10 -12 -13 -12 -1 1 2 3 2 2 -0 0 0 1 2 3 4 4 4 5 5 4 5 3 4 4 5 6 6 7 7 7 5 2 1 2 7 4 1
-3 -3 -4 -4 -17 -21 -14 -20 -4 -4 -9 -14 -5 -0 -0 0 2 4 1 2 2 2 2 3 4 4 4 5 5 5 5 3 4 1 3 4 5 5 5 7 7 1 1 4 3 1 1
-5 -2 -3 -3 -4 -17 -10 -4 -4 -4 -4 -4 -5 -8 -3 -1 2 4 4 2 3 2 3 3 4 3 4 4 5 5 6 3 3 5 1 5 2 4 3 4 1 1 1 2 2 1 1

GFSGBSN_850_dewp_018.txt.gz
Dewpoint
2 2 3 2 2 2 1 2 1 1 2 1 1 2 1 1 1 2 4 5 5 6 7 5 -4 -0 6 8 8 7 7 8 7 7 8 6 4 4 4 2 1 2 1 0 -0 0 1
3 3 3 3 2 2 2 0 -0 0 -1 -1 1 1 1 2 1 1 1 4 6 5 7 4 -3 1 5 7 7 7 5 7 8 8 8 6 4 4 4 2 2 2 2 2 2 1 2
3 2 2 2 2 2 1 1 -1 0 -1 1 1 1 1 1 1 2 2 3 5 6 7 4 0 2 5 5 5 6 6 6 7 8 8 7 7 6 6 5 4 3 5 4 3 2 2
3 2 2 2 3 2 1 0 0 0 0 0 0 -2 -1 0 -0 -0 -0 1 4 6 6 5 3 4 4 3 4 4 5 6 5 8 8 8 8 7 6 4 4 5 5 6 1 1 1
2 2 2 1 2 2 1 1 -1 -0 -1 -1 -2 -2 -2 -0 -1 -2 -1 -0 3 6 6 5 5 6 3 4 4 4 3 6 7 7 8 8 7 6 4 4 4 3 5 4 3 1 1
2 0 1 2 1 -0 -1 -1 -1 -1 -2 -2 -2 -2 -3 -2 -3 -2 -1 -0 2 5 6 5 5 5 3 3 3 3 2 5 6 7 8 8 6 4 4 5 6 4 4 3 2 1 1
1 1 1 0 0 0 -0 -2 -1 -2 -2 -3 -2 -2 -2 -2 -2 -2 -1 1 3 6 5 5 4 2 2 4 4 3 3 5 4 6 5 4 5 6 4 3 3 2 3 3 0 -1 -0
1 1 1 -1 -1 -1 -0 -1 -1 -2 -2 -3 -2 -2 -2 -2 -2 -2 -2 1 1 3 5 5 3 3 4 3 3 3 3 4 4 5 3 4 6 3 1 1 2 2 3 3 1 -1 -0
1 1 -0 -1 -1 -1 -1 -2 -2 -1 -2 -2 -2 -1 -1 -1 -1 -2 1 1 0 2 5 4 3 3 3 3 3 3 3 3 3 4 5 4 2 1 2 3 3 3 3 3 2 0 -0
1 1 -1 -0 -1 -1 -1 -1 -1 -1 -1 -1 -1 -1 -2 -0 -1 1 0 2 2 1 5 6 4 3 3 3 3 3 3 2 3 5 4 4 1 0 2 3 2 4 0 1 1 2 4
0 1 -2 -1 -1 -1 -1 -1 -1 -1 -1 -1 -1 -1 -1 -0 -0 0 1 1 1 1 7 5 4 3 3 2 3 3 2 2 3 2 3 4 2 3 3 1 0 2 1 1 1 2 2
-0 -0 -2 -2 -2 -1 -1 -1 -2 -2 -1 -2 -1 0 1 1 1 -1 -1 1 1 3 7 5 3 3 4 1 2 2 2 2 1 0 1 2 -1 0 1 -0 -0 -0 1 1 1 2 3
-2 -1 -2 -3 -1 -2 -1 -2 -2 -1 -1 -1 0 1 1 1 1 0 1 2 3 5 3 4 4 3 2 2 3 3 4 4 4 5 5 2 2 -0 -1 1 0 1 2 5 6 6 4
-1 -2 -2 -3 -2 -1 -1 -2 -1 -0 -0 1 2 0 1 1 1 1 1 2 3 5 3 0 3 2 2 1 3 3 4 4 2 2 4 4 6 2 -0 1 2 2 3 5 5 4 3
-2 -1 -1 -2 -3 -1 -1 -1 -1 -0 1 1 1 -0 -0 2 1 -0 2 2 5 5 1 2 3 3 3 1 2 3 3 3 1 0 5 5 4 -0 0 -0 0 3 3 1 4 1 3
-0 -1 -1 -2 -3 -2 -1 -2 -1 0 1 2 0 1 0 1 -1 0 4 4 4 0 0 -0 2 1 3 2 3 3 2 0 -0 -1 -1 2 4 0 0 -1 -0 1 -0 4 5 3 4
-1 -0 -2 -1 -2 -2 -2 -2 -0 0 2 1 1 1 1 1 -0 2 4 4 4 -0 -0 1 1 1 0 2 2 2 1 -0 -1 -1 -1 -1 2 3 2 2 2 2 3 3 3 4 5
-1 -1 -2 -1 -2 -2 -2 -6 -3 0 2 0 1 2 1 1 2 2 4 4 2 2 2 0 -1 -1 -0 -0 1 1 1 -0 -2 -1 1 -1 2 4 3 -0 -1 0 2 1 5 3 3
-2 -1 -1 -2 -2 -3 -2 -13 -5 1 2 1 1 1 1 2 4 3 3 4 1 3 3 2 0 -0 -2 -0 2 0 1 -2 -2 -0 1 0 4 4 5 2 -1 1 0 0 1 3 5
-2 -2 -1 -2 -2 -2 -2 -10 -7 1 2 2 2 2 1 2 3 2 5 3 5 3 2 0 0 -1 -0 0 0 1 1 -0 -2 -0 -1 -1 2 3 4 4 3 5 4 2 3 6 4
-2 -2 -2 -2 -2 -2 -3 -6 -10 0 2 2 3 3 2 4 2 2 3 4 3 2 2 0 1 -0 0 1 1 1 1 1 -1 1 -0 0 5 3 3 2 2 3 3 3 5 6 6
-2 -3 -3 -3 -4 -3 -5 -3 -13 -2 1 2 2 3 2 1 0 2 2 3 3 2 2 1 1 -0 -0 1 2 1 1 1 2 1 1 1 5 5 4 3 3 4 3 3 4 7 7
-2 -2 -4 -3 -5 -3 -3 -3 -13 -7 1 1 2 2 3 -0 -0 0 -0 1 2 2 2 1 1 2 2 3 2 2 1 1 1 2 2 4 5 5 5 3 3 6 5 7 6 5 6
-3 -2 -3 -4 -20 -11 -3 -10 -12 -16 -0 1 1 2 3 1 0 -0 -0 0 1 2 3 2 1 1 4 3 3 3 2 2 2 2 1 5 5 5 6 5 6 6 4 4 6 6 5
-2 -2 -3 -3 -12 -23 -10 -21 -19 -16 -16 -1 1 1 2 4 -0 -1 -1 -0 0 2 2 3 3 3 3 3 4 3 5 3 3 2 3 3 5 7 7 6 3 4 6 5 6 6 3
-1 -1 -3 -3 -3 -10 -17 -5 -20 -21 -17 -16 0 1 1 3 2 1 -1 0 2 2 3 2 3 3 4 4 5 4 5 6 5 5 3 4 4 6 7 7 6 5 3 4 3 8 2
-2 -2 -2 -3 -3 -3 -5 -4 -4 -13 -19 -17 -4 -1 1 2 2 3 0 1 0 1 3 3 4 5 4 4 6 5 5 4 4 6 6 6 6 6 6 7 5 1 1 2 8 5 2
-2 -2 -2 -2 -3 -3 -4 -3 -3 -4 -9 -8 -6 -3 -2 -1 1 2 3 2 1 1 2 3 4 4 4 6 5 5 5 4 4 3 4 4 6 6 6 7 6 1 2 5 3 2 2
-1 -2 -2 -2 -2 -2 -3 -4 -3 -3 -5 -5 -4 -4 -5 -2 -0 2 3 4 3 2 3 3 4 3 4 5 4 5 5 5 4 5 2 4 3 5 4 4 1 1 2 2 2 1 1

GFSGBSN_850_dewp_021.txt.gz
Dewpoint
3 3 3 3 1 2 2 2 2 1 0 0 1 1 1 1 1 1 2 2 2 5 6 7 6 2 3 7 6 7 8 7 7 5 4 5 7 5 4 3 2 2 2 2 2 1 1
3 3 3 2 3 3 2 2 1 1 1 1 1 1 1 1 -0 0 1 1 2 4 6 7 6 2 4 7 5 6 6 8 8 7 5 7 6 4 4 4 2 2 2 3 3 3 3
2 3 2 1 2 2 1 0 -0 -1 -1 0 0 -2 -3 0 1 0 0 0 1 3 5 7 6 2 5 5 6 7 5 6 7 7 5 6 8 6 5 5 4 4 5 4 4 3 3
3 2 2 1 2 1 1 0 -0 -1 -1 -1 -2 -2 -3 -1 -0 0 -1 -1 -2 0 5 7 6 3 4 0 4 6 6 6 7 8 7 7 8 6 6 4 3 4 4 7 4 3 3
1 2 1 2 0 0 -0 0 -1 -2 -2 -2 -0 -2 -2 -2 -2 -2 -3 -3 -2 -2 4 6 5 4 4 3 4 4 4 6 6 7 8 8 8 6 5 5 5 4 6 6 4 1 2
1 1 1 1 1 1 0 0 -0 -0 0 -0 -0 -2 -2 -3 -2 -2 -2 -2 -3 -2 3 5 5 5 4 4 4 4 3 5 7 7 8 8 7 7 5 5 7 5 5 3 3 1 1
1 1 2 -0 1 0 0 -0 -0 0 -1 -2 -2 -2 -3 -2 -3 -2 -2 -3 0 2 4 5 4 3 2 3 3 4 3 5 6 6 7 8 7 7 6 4 3 4 3 4 2 -0 -0
1 1 1 1 0 -0 -0 -0 -1 -0 -1 -0 -2 -1 -0 -0 -2 -2 -1 -0 -0 1 1 4 4 4 3 3 4 3 4 5 5 7 4 5 7 4 3 3 4 3 4 4 2 -1 -0
1 1 1 0 0 -1 -0 -0 -1 -0 -1 -1 -1 -1 -1 -1 -2 -2 0 1 1 1 1 5 5 4 3 3 4 3 4 4 4 5 4 5 3 2 3 3 3 3 3 3 3 1 -1
1 1 0 -0 -0 -2 -1 -1 -2 -1 -1 -1 -1 -1 -0 -1 -1 -1 -1 1 2 1 2 5 5 4 3 3 4 3 4 3 3 5 5 4 1 1 3 4 2 4 1 1 2 2 3
1 1 0 -0 -4 -2 -2 -1 -2 -1 -1 -1 -1 -0 0 1 1 0 -0 1 1 1 6 4 4 3 2 4 3 3 3 2 4 4 5 6 3 3 2 2 1 2 0 1 1 2 2
0 0 0 -1 -3 -2 -2 -1 -1 -1 0 -0 0 1 1 1 2 1 -0 1 1 2 5 6 4 4 4 3 3 3 3 2 1 2 3 2 -1 0 2 0 -0 -1 1 1 1 1 1
0 1 0 -1 -3 -3 -2 -1 -1 -1 0 1 1 1 1 0 1 1 1 1 2 3 4 6 5 3 3 4 4 3 4 4 4 5 6 4 2 -1 -1 2 0 1 1 2 2 4 3
-0 0 -1 -1 -1 -2 -1 -2 -1 0 1 2 -0 -0 1 0 1 -0 1 1 3 6 4 3 3 3 4 3 4 3 4 4 2 2 2 3 3 2 -0 1 2 2 1 2 5 4 4
-0 -1 -1 -1 -1 -2 -1 -1 0 0 2 0 -1 -1 0 1 1 1 2 2 3 5 2 3 2 2 4 2 3 3 3 2 1 1 2 2 3 0 -0 -1 1 2 3 0 2 1 1
-0 -1 -0 -1 -2 -2 -1 -1 -0 1 1 -1 -2 -0 1 0 1 1 3 3 3 2 2 1 4 2 4 3 3 3 4 1 0 -0 -1 2 4 1 1 -1 -0 0 -0 2 1 1 4
-0 -1 -1 -1 -1 -2 -2 -1 -1 1 1 -1 -2 1 1 2 2 2 3 3 4 0 2 2 1 2 1 2 2 2 3 -0 -1 0 -1 -0 1 3 2 2 2 2 3 2 2 2 3
-1 -1 -2 -2 -2 -4 -4 -6 -3 0 -0 -1 -0 0 1 1 1 2 3 2 4 3 2 1 -1 -0 0 1 2 1 1 0 -1 -1 1 -0 2 3 2 0 -0 1 2 1 3 1 2
-0 -2 -2 -2 -3 -6 -8 -13 -7 0 -1 -1 0 1 1 2 2 3 3 3 3 4 3 2 1 -1 -1 -0 2 0 1 -2 -1 -1 1 0 2 2 3 2 0 2 1 1 1 2 3
-2 -3 -4 -3 -3 -4 -6 -11 -10 1 1 0 1 -0 -0 2 3 3 4 4 4 2 2 1 0 -2 -1 0 -0 1 2 -1 -1 0 -0 -1 3 0 3 2 3 3 3 2 2 5 3
-1 -3 -10 -3 -4 -6 -9 -11 -12 1 1 1 2 1 1 1 2 2 4 4 3 3 1 1 1 -0 0 1 1 2 1 1 -1 1 -0 1 2 3 3 2 3 2 3 3 4 3 6
-1 -1 -12 -8 -12 -12 -25 -16 -15 0 1 0 1 2 2 2 1 2 2 3 3 3 3 2 1 1 2 3 3 2 2 2 1 1 1 1 1 4 2 2 3 4 3 3 3 3 4
-1 -1 -2 -7 -18 -19 -25 -27 -17 -9 1 2 1 2 3 2 -0 0 0 2 2 2 2 2 1 2 5 4 3 2 1 1 0 1 2 3 3 3 2 3 3 5 3 3 5 5 6
-2 -1 -1 -2 -6 -18 -21 -23 -28 -17 -10 1 1 2 2 2 1 0 1 0 2 3 3 2 1 3 4 3 2 2 2 2 1 1 1 5 4 5 5 3 5 5 4 4 5 5 5
-5 -1 -2 -2 -2 -4 -15 -18 -12 -29 -18 -8 1 1 2 3 3 1 -1 -0 2 2 3 3 3 3 3 3 4 4 5 3 2 2 3 3 4 6 7 6 3 3 5 5 6 5 3
-5 -1 -2 -3 -2 -2 -3 -6 -12 -6 -26 -16 -1 -0 1 2 3 3 3 -1 2 2 2 4 3 2 3 4 4 4 3 5 6 5 3 3 4 6 6 7 6 3 3 4 3 7 2
-3 -2 -2 -3 -2 -2 -2 -2 -3 -5 -9 -17 -5 -6 -1 1 2 2 3 2 1 1 3 3 4 4 4 4 5 4 3 3 5 6 6 6 6 6 6 7 5 1 0 3 7 4 2
-4 -2 -1 -2 -5 -3 -2 -3 -3 -3 -4 -8 -10 -3 -4 -1 -0 0 1 2 4 1 3 4 3 4 4 5 5 5 5 4 4 3 5 5 6 6 6 7 5 -1 2 5 2 2 1
-3 -4 -1 -2 -4 -3 -3 -3 -3 -4 -3 -4 -6 -6 -4 -3 -5 -1 1 1 3 4 4 3 4 3 3 4 3 4 4 4 4 5 2 5 3 4 4 3 -1 1 1 2 2 1 1

GFSGBSN_850_dewp_024.txt.gz
Dewpoint
3 3 3 2 2 2 3 2 1 0 0 -1 -0 1 0 1 1 1 -0 -1 1 1 2 5 6 7 3 5 6 8 6 7 8 7 8 7 7 6 5 4 4 3 3 3 2 2 2
3 3 2 2 2 1 1 0 1 0 1 -0 -1 -1 -2 -2 0 -1 -0 1 0 0 1 5 6 7 2 6 2 6 7 7 8 7 7 5 6 6 4 3 3 2 2 2 2 3 3
2 1 2 2 3 1 -0 0 -0 0 0 1 -1 -1 -2 -3 -2 -1 0 0 1 1 -1 5 6 6 4 2 7 5 6 7 7 6 6 2 6 6 4 5 4 4 4 4 3 3 3
1 2 1 2 0 1 0 -0 -0 0 1 -1 0 0 -2 -2 -2 -2 -3 -0 -3 -5 -6 4 6 6 3 -1 6 7 6 7 7 7 6 3 7 7 6 4 4 4 4 6 3 2 2
1 2 2 2 0 1 -0 0 -0 -1 1 0 0 -1 -2 -2 -2 -2 -3 -2 -5 -3 -3 3 5 4 1 1 3 6 5 6 7 8 8 7 7 6 4 5 5 4 6 6 5 2 2
1 1 1 2 1 -1 -1 0 -1 -0 0 -0 -2 -3 -2 -2 -2 -1 -2 -3 -5 -4 -4 1 5 4 4 3 2 5 5 6 7 7 9 8 8 7 6 5 7 5 6 4 4 1 0
-0 1 1 1 -1 -1 -1 0 -0 -2 -1 -0 0 -1 -1 -1 -1 -2 -1 -3 -0 2 -1 4 5 4 2 2 3 4 4 6 7 7 8 7 7 8 7 5 3 3 3 4 2 1 0
1 1 1 1 -0 -1 -2 -0 -0 -2 -2 -1 -2 -1 -2 -0 -1 -2 -1 -1 -0 1 2 2 4 5 2 4 4 4 3 5 7 7 5 6 8 6 6 6 5 4 4 4 2 0 0
1 0 1 0 -1 -1 -2 -1 -1 -2 -1 -1 -0 -1 -1 -1 0 -1 -0 -0 0 1 1 4 5 4 3 3 4 4 3 5 6 6 5 6 4 4 5 4 3 3 3 3 3 1 -1
1 1 1 1 -1 -1 -2 -1 -1 -1 -1 0 -1 -0 -0 1 1 0 0 -1 1 1 2 5 5 5 3 3 4 3 4 4 4 5 4 4 0 3 4 4 2 4 1 1 2 2 4
0 0 0 -1 -1 -0 -1 -1 -1 -1 -0 0 1 0 0 1 1 1 -0 -1 1 0 4 4 5 4 3 3 3 3 3 2 4 5 4 5 3 2 4 3 1 3 0 1 1 2 1
-0 -0 -0 -1 0 -0 -2 -0 -0 0 1 2 2 2 0 0 0 0 0 0 1 2 4 5 4 4 4 3 3 3 3 2 3 4 3 1 -0 1 1 0 -0 0 0 1 1 1 1
-0 -0 0 -1 -2 -2 -2 0 0 1 1 0 -1 1 1 -0 1 1 0 0 1 3 3 6 5 4 4 4 4 4 4 3 5 7 7 4 2 -1 -1 2 0 -0 0 0 0 1 2
-0 -1 -1 -0 -2 -1 -1 -0 1 1 -0 -1 0 0 0 -0 1 -0 0 0 2 5 6 3 4 3 5 3 4 4 4 4 2 2 4 4 3 1 -0 1 2 1 0 0 1 3 3
-1 -1 -2 -1 -1 -1 -1 0 0 1 -1 -0 -2 1 0 0 0 1 2 2 3 4 5 5 2 3 4 3 5 3 3 4 2 1 2 2 3 0 -0 -0 -0 2 2 -0 2 1 -0
-2 -1 -2 -1 -1 -1 -1 0 0 1 -1 -2 -2 -1 -1 -1 0 2 2 4 3 3 2 1 4 3 4 3 4 3 3 0 0 -0 -0 1 3 1 1 -1 -0 0 -0 1 -1 0 3
-5 -1 -5 -4 -3 -3 -2 -6 -0 -1 -2 -3 -2 -0 1 1 1 2 3 3 4 1 2 2 2 1 1 2 3 2 3 0 -1 -0 -1 -0 1 2 1 2 2 2 2 1 1 1 3
-10 -12 -17 -10 -4 -5 -15 -11 -0 -1 -2 -2 -1 -1 1 1 1 2 3 3 3 3 2 2 -1 -0 -1 2 2 2 2 0 -1 -0 1 -0 2 1 3 0 -1 0 2 1 1 -0 1
-3 -22 -26 -21 -15 -19 -18 -12 -0 -1 -1 -1 -0 1 1 1 1 4 3 3 3 3 3 1 1 -1 -1 2 2 0 0 -2 -1 -0 1 -0 1 1 3 2 1 2 1 1 1 2 1
-2 -13 -27 -22 -23 -27 -24 -16 -1 -0 -0 0 0 -1 -0 2 3 3 3 4 3 1 1 0 -1 -1 -1 -0 -1 2 1 -1 -0 0 -1 -1 2 -0 2 0 2 2 2 1 2 3 3
-10 -4 -21 -27 -20 -24 -31 -21 -7 0 -0 0 1 1 2 1 1 1 3 3 3 3 2 -0 -0 -1 0 2 1 2 1 0 0 0 1 1 1 1 2 2 2 2 2 2 2 2 4
-16 -2 -7 -22 -12 -22 -26 -29 -17 -1 0 -0 2 1 2 2 1 2 1 3 4 3 3 2 2 2 0 3 2 3 1 1 1 0 1 0 1 3 3 2 3 3 2 2 2 2 2
-17 -2 -3 -4 -9 -9 -23 -26 -26 -11 -1 1 1 2 2 1 0 0 0 2 2 2 1 2 1 3 4 4 3 1 -0 -1 -0 1 1 2 2 3 2 2 3 4 3 3 3 3 3
-16 -3 -1 -2 -2 -5 -7 -23 -24 -22 -14 1 0 1 2 1 1 1 1 1 2 3 2 2 2 3 4 3 2 2 2 0 0 0 1 4 4 4 4 2 4 3 2 2 2 4 4
-16 -5 -1 -2 -3 -2 -2 -6 -13 -22 -22 -13 -0 1 1 1 2 2 2 0 2 2 2 3 3 3 3 3 4 4 4 2 3 1 3 2 4 5 5 4 3 3 4 5 5 4 3
-9 -3 -2 -1 -2 -3 -2 -2 -3 -6 -10 -18 -5 -4 -0 1 1 2 3 1 1 2 2 4 3 3 3 4 4 4 4 3 6 5 3 3 3 6 6 6 6 1 3 3 3 6 3
-8 -3 -1 -1 -1 -7 -3 -2 -3 -3 -4 -9 -11 -9 -5 -0 1 2 2 3 1 1 2 3 4 3 3 4 5 4 3 4 7 6 6 6 6 6 7 6 4 1 0 3 6 3 2
-3 -3 -3 -1 -2 -3 -5 -2 -3 -3 -3 -3 -6 -6 -5 -3 -5 -4 -1 2 3 2 3 3 3 3 3 4 4 4 4 3 4 3 5 5 6 7 6 7 5 -0 3 5 2 2 2
-2 -4 -4 -2 -1 -2 -5 -4 -3 -3 -4 -4 -3 -4 -5 -4 -8 -9 -6 -0 1 2 4 4 2 3 2 3 3 3 3 3 3 4 2 6 3 4 4 3 -1 -1 1 2 2 1 1

GFSGBSN_850_dewp_030.txt.gz
Dewpoint
3 2 2 3 3 2 1 1 1 0 1 1 1 0 -1 -0 -0 -0 -1 -2 1 -1 1 1 1 2 4 6 5 7 8 7 0 7 8 8 7 6 5 5 4 4 3 4 3 3 3
1 2 2 2 2 3 1 0 0 -0 0 0 1 -0 0 -0 -1 -1 -3 -1 -1 0 1 2 2 1 4 6 4 4 7 7 2 7 8 8 7 6 4 4 4 3 3 3 2 2 2
2 2 2 2 2 2 1 -0 0 -1 -0 -1 0 -1 -2 -1 -2 -2 -2 -0 -1 1 2 1 1 1 4 5 4 4 1 7 4 6 8 7 7 5 4 4 4 3 4 3 3 3 3
2 2 2 2 2 2 1 -0 0 -1 -1 -1 -1 -1 -1 -0 -3 -3 -2 -1 -1 -1 1 2 1 2 4 4 4 5 6 7 6 8 6 7 7 6 4 4 4 4 4 6 3 3 3
1 2 2 2 2 2 -1 0 1 -0 0 -0 -2 -0 -1 1 -1 -1 -1 -4 -4 -3 -1 2 0 2 4 4 4 5 7 7 7 7 6 6 6 6 5 4 5 4 6 6 5 2 2
2 2 1 1 1 1 1 1 0 0 0 -1 -1 -1 -0 0 0 -1 -2 -4 -4 -3 -5 -2 2 3 4 5 4 4 7 7 7 7 6 6 6 6 4 5 6 6 5 5 5 1 2
1 2 1 1 1 1 1 0 0 1 1 1 1 -0 -1 -1 -1 -1 -2 -3 -3 -1 -1 1 3 3 4 4 4 5 7 8 8 8 7 6 8 7 6 5 3 3 4 4 2 1 1
1 2 1 1 2 0 1 0 1 1 2 2 1 2 -1 -1 -0 0 -0 -2 -0 -0 -1 -1 3 4 5 4 4 6 6 7 7 7 7 7 7 6 4 3 5 5 5 5 3 1 0
1 1 1 1 1 1 1 0 1 1 1 -1 -1 -0 2 -1 0 0 1 -2 -1 1 0 1 3 4 4 3 5 5 6 6 6 7 7 7 6 6 5 6 7 4 5 4 4 1 -1
1 1 0 -0 1 1 0 -0 1 1 0 -0 -0 -1 1 -1 1 0 -1 -0 -0 1 1 2 4 5 5 3 4 4 5 6 6 7 6 6 6 6 7 7 5 5 1 1 1 2 4
0 1 1 0 1 -0 0 1 1 0 0 -1 -1 -0 -0 0 0 -0 -1 0 -0 1 4 3 5 4 3 2 3 4 5 4 6 5 6 5 7 7 7 7 3 4 -0 0 0 1 0
-2 -0 -3 -1 -1 0 1 -1 -2 -1 0 -1 -1 -0 1 1 0 0 -1 -0 1 -2 3 5 4 4 4 3 4 4 4 4 5 4 3 2 1 3 4 2 1 -0 -0 -1 -0 -0 0
-12 -1 -10 -1 -4 -1 1 -1 -3 -2 -1 -1 -1 -2 -1 -0 -2 -2 -1 -0 -1 3 3 5 5 3 3 5 4 3 4 4 6 7 6 4 2 -0 -0 1 -1 -0 2 2 -1 -1 1
-6 -1 -13 -2 -18 -17 -8 -2 -3 -4 -3 -3 -1 -0 -1 -0 -0 1 1 -0 2 5 5 4 3 3 5 4 4 4 3 4 1 4 5 5 6 1 -1 1 2 1 0 1 -2 -0 1
-16 -2 -11 -8 -25 -29 -14 -2 -2 -5 -4 -3 -2 -1 0 1 1 1 1 3 3 4 4 4 2 5 5 4 5 5 4 3 2 0 3 2 3 0 -0 -0 -0 2 1 -1 0 -1 -0
-14 -3 -14 -17 -25 -29 -23 -6 -1 -3 -3 -4 -3 -2 1 1 2 2 0 4 4 3 0 0 3 3 4 5 4 5 3 1 2 -0 -1 1 4 1 0 -1 -0 0 -1 2 -1 -2 0
-15 -11 -7 -17 -25 -27 -31 -14 -1 -3 -4 -3 -3 -2 1 1 1 1 2 4 3 2 2 0 2 2 3 3 3 3 2 -0 -1 0 -1 -1 1 3 1 2 2 2 2 0 -1 0 0
-12 -13 -9 -12 -20 -26 -29 -31 -5 -1 -4 -3 -1 -1 1 1 1 3 4 4 3 3 3 0 -2 -0 1 1 2 1 2 0 -1 -1 1 -1 1 1 3 -0 -1 0 1 -0 -1 -1 0
-8 -7 -8 -3 -13 -22 -27 -29 -27 -2 -2 -1 -1 -1 0 1 2 3 1 3 3 3 2 -0 -1 -2 -0 0 2 0 0 -1 -1 -1 -0 -0 0 0 2 1 0 2 1 -0 -1 -1 -1
-6 -10 -2 -4 -3 -14 -25 -29 -31 -9 -1 -1 -0 -1 -0 1 2 2 3 2 2 1 1 -1 -1 -1 -0 -0 -1 1 0 0 -1 -1 -1 -1 -0 -0 1 -1 1 2 2 0 0 -1 1
-4 -7 -3 -1 -3 -9 -18 -26 -29 -20 -1 -1 0 1 1 2 1 1 1 2 3 4 2 -1 -1 -1 -0 2 2 2 1 0 1 1 1 -0 0 0 1 0 1 1 2 2 1 1 1
-3 -3 -6 -0 -3 -4 -12 -21 -24 -28 -3 -1 1 1 1 1 1 -0 -0 2 3 2 3 1 -0 -0 -0 1 0 2 1 1 1 0 0 -1 3 2 0 1 2 3 2 1 2 1 1
-3 -3 -6 -1 -1 -2 -6 -8 -13 -18 -17 1 0 1 1 1 -0 -0 0 1 2 2 1 2 0 2 3 3 2 -0 -1 -1 -1 1 1 1 2 0 0 1 2 3 2 2 1 1 1
-3 -3 -3 -1 -0 -1 -3 -2 -4 -4 -13 -9 -1 0 0 1 0 1 1 1 1 2 1 3 2 2 3 2 1 0 -1 -1 -1 -0 -0 1 2 2 0 1 4 0 0 0 1 1 0
-2 -2 -2 -3 -2 -2 -1 -4 -4 -5 -4 -10 -12 -2 0 -0 -1 -0 1 2 2 2 2 3 3 3 3 2 2 3 3 2 2 1 2 1 3 3 2 5 2 1 2 2 3 4 1
-2 -2 -2 -2 -3 -1 -1 -2 -3 -3 -4 -5 -9 -13 -4 -0 -2 0 0 1 1 1 1 3 3 3 3 3 3 4 5 2 4 5 2 3 2 2 4 5 4 -0 3 3 2 5 1
-2 -2 -2 -1 -3 -2 -1 -1 -3 -3 -4 -5 -5 -6 -10 -4 -3 -1 1 1 2 1 1 1 3 3 3 3 4 4 2 1 5 5 4 5 6 5 4 4 3 -0 -1 3 6 3 1
-1 -1 -2 -1 -3 -3 -3 -1 -1 -2 -4 -3 -3 -4 -6 -7 -13 -12 -6 -1 -1 1 2 2 3 2 2 3 3 3 3 2 3 3 4 4 5 4 4 5 5 0 3 4 2 1 2
-1 -1 -2 -2 -1 -1 -3 -2 -0 -1 -3 -4 -2 -2 -3 -3 -5 -6 -7 -8 -8 -12 -4 0 3 1 2 1 1 2 3 2 2 4 1 4 2 4 2 2 -1 -0 1 0 0 1 1

GFSGBSN_850_dewp_033.txt.gz
Dewpoint
2 2 3 3 2 3 3 1 1 0 0 -0 -0 -0 0 -1 -1 -2 -1 -3 -0 1 -1 -0 1 2 1 2 5 4 7 7 7 7 7 8 8 7 6 5 4 4 4 3 3 3 3
2 2 3 3 2 2 2 1 0 0 1 1 1 -0 -0 -0 -1 -2 -3 -2 -0 -1 -2 0 0 1 0 4 5 5 5 5 6 7 7 8 7 6 5 5 4 4 3 3 3 3 2
3 3 2 2 2 1 2 0 0 1 1 0 1 -0 -0 -1 -0 -1 -1 -3 0 -0 -1 0 0 -0 2 2 5 4 6 4 4 8 6 8 6 5 4 4 3 3 4 3 2 2 2
3 3 2 2 2 1 2 2 2 1 1 2 1 1 -1 0 -0 -0 -2 -2 -3 -4 -1 1 0 0 1 -2 4 5 6 3 8 6 7 7 6 4 4 3 4 4 4 6 3 3 2
3 3 2 2 2 2 1 1 1 1 1 1 1 1 1 -1 -1 0 -1 -2 -4 -4 -1 -1 0 0 2 2 3 4 6 6 8 6 6 6 6 6 4 5 6 5 6 6 4 3 3
2 2 2 2 2 2 1 1 1 2 2 2 -1 -1 1 -1 -1 -1 -2 -3 -4 -3 -2 -1 -2 2 3 4 2 3 5 7 7 6 6 6 6 6 5 5 6 7 6 5 4 1 3
1 1 1 2 1 1 1 1 1 2 2 1 0 -0 -0 1 -1 -1 -1 -2 -2 -1 -2 -1 0 3 4 4 4 3 6 8 6 6 7 6 7 7 5 4 3 3 4 5 3 1 1
0 0 2 -0 1 1 0 1 1 1 1 -1 -0 -1 -0 2 -0 -0 0 -2 -0 -0 -2 -2 1 2 4 5 4 4 7 7 7 7 6 7 7 4 4 3 3 4 4 4 3 0 0
-0 1 -0 -0 -0 1 1 1 2 -1 -0 -1 0 -1 0 -1 -1 0 0 -1 -1 -0 1 -0 2 3 5 4 5 6 6 6 5 6 5 5 6 4 4 5 6 5 5 4 4 1 -1
-1 1 0 -0 -0 1 1 1 0 -3 -1 -3 -1 -0 1 -2 0 -1 -1 -1 -0 1 1 3 3 5 4 4 5 6 6 6 7 5 6 6 6 6 6 6 5 6 2 2 1 2 4
-6 -2 -4 -0 -2 -3 -0 2 -3 -4 -3 -3 -3 -1 0 0 -0 -1 -0 -1 -1 1 5 3 4 5 3 3 4 5 5 4 6 6 6 6 7 7 7 6 4 4 0 0 0 1 0
-5 -9 -9 -3 -7 -11 -4 1 -3 -5 -5 -1 -3 -2 -2 -1 -0 -1 -1 -0 0 -2 4 4 4 4 4 4 5 5 5 5 5 4 3 4 5 5 6 5 4 -1 -1 -1 -0 0 3
-8 -13 -18 -11 -8 -24 -9 -2 -1 -5 -4 -3 -1 -1 -1 -0 -1 -0 0 0 -2 2 3 5 5 3 4 4 5 4 5 5 7 6 6 5 2 0 4 4 1 0 3 4 1 2 4
-12 -5 -17 -18 -10 -22 -27 -4 -2 -4 -5 -4 -3 -3 0 0 1 1 1 -2 3 6 6 4 3 3 5 4 4 4 3 4 1 4 5 6 6 2 -0 1 3 1 2 3 2 -1 -0
-13 -9 -15 -18 -21 -26 -28 -25 -3 -3 -4 -4 -4 -4 1 1 1 1 1 3 1 4 4 3 1 3 4 4 5 4 3 3 1 1 3 3 4 0 -0 -0 -0 2 3 -2 1 -1 1
-12 -7 -9 -12 -17 -22 -26 -30 -20 -3 -3 -3 -3 -3 1 1 1 0 1 5 4 3 0 0 3 2 4 5 4 4 3 1 1 -0 -1 1 4 1 0 -1 -1 0 -1 2 0 0 0
-7 -7 -5 -6 -5 -12 -23 -28 -32 -9 -4 -3 -1 -2 1 0 1 1 3 4 3 3 2 0 2 2 3 4 3 4 3 -0 -0 0 -1 -1 2 3 1 2 2 1 2 0 -0 -0 0
-5 -7 -1 -3 -3 -4 -16 -23 -30 -24 -3 -4 -2 -1 1 0 1 2 4 3 3 3 2 -1 -2 0 1 1 2 2 2 0 -1 -1 1 -1 1 3 3 -0 -1 -0 1 -1 1 -0 1
-4 -5 -5 -1 -4 -3 -4 -20 -25 -30 -4 -1 -0 -1 0 0 3 3 2 2 3 2 2 -0 -1 -2 -1 0 2 0 0 -1 -1 -1 0 -1 0 1 2 1 0 2 1 -1 -2 -1 2
-3 -4 -5 -1 -2 -3 -2 -8 -24 -30 -7 -1 -1 -2 -0 1 1 1 2 2 2 1 1 -1 -1 -1 -1 -0 -0 1 0 1 -1 -1 -1 -2 -0 -0 -0 -1 1 2 2 -0 0 1 1
-3 -3 -4 -3 -1 -2 -3 -3 -22 -26 -12 -1 -0 0 1 1 0 0 1 2 3 3 2 -1 -1 -1 -1 1 2 1 1 1 0 1 -0 -1 1 0 1 -0 1 1 2 1 1 0 2
-2 -3 -4 -3 -1 -1 -2 -3 -13 -24 -17 -1 0 0 0 0 1 -0 -0 2 3 2 3 1 -1 -1 -0 1 -0 2 1 1 1 0 0 -1 3 2 1 1 2 3 2 1 1 1 0
-3 -3 -4 -3 -2 -1 -2 -3 -3 -13 -21 -3 -0 0 0 -0 -1 -0 -0 1 2 2 2 2 -0 1 3 3 2 1 -1 -1 -1 1 1 1 2 0 0 0 2 3 2 2 1 1 1
-3 -3 -3 -2 -2 -1 -2 -2 -3 -2 -7 -14 -3 -1 -0 0 -1 0 0 1 1 1 2 3 2 1 3 1 -0 -1 -1 -1 -0 -0 -1 1 1 0 1 1 4 -1 -0 0 1 0 -0
-2 -2 -1 -2 -3 -2 -1 -1 -3 -2 -3 -6 -13 -5 -1 -2 -1 -1 0 1 1 1 2 2 3 3 3 2 2 2 3 2 1 1 1 0 3 3 2 3 1 1 1 2 2 3 -0
-2 -2 -2 -2 -2 -2 -1 -1 -1 -2 -4 -5 -6 -7 -10 -2 -4 -1 -1 -0 1 0 1 3 3 3 3 2 3 4 4 2 4 4 2 2 1 1 3 4 4 -0 3 2 2 6 1
-1 -2 -2 -2 -2 -1 -2 -2 -1 -1 -2 -6 -5 -5 -7 -7 -9 -2 -1 -0 2 2 0 0 4 3 2 3 4 4 3 1 4 4 5 5 5 4 4 4 2 -1 2 3 7 4 1
-0 -1 -2 -2 -1 -1 -1 -2 -1 -1 -1 -3 -4 -4 -4 -5 -7 -7 -8 -3 -3 -1 3 1 3 2 1 3 4 4 2 2 2 2 2 3 4 4 3 4 4 -0 2 5 3 1 1
-3 -0 -3 -2 -1 -1 -1 -1 -1 -1 -1 -2 -4 -5 -3 -3 -5 -7 -5 -5 -5 -7 -9 -5 1 1 1 1 1 1 3 1 1 4 1 4 1 3 2 1 -2 0 2 1 0 1 1

GFSGBSN_850_dewp_036.txt.gz
Dewpoint
2 3 3 2 2 2 2 3 2 1 1 2 1 1 1 1 0 -1 -2 -3 -2 -0 -0 -2 -1 0 1 2 0 5 7 7 7 7 7 7 6 7 6 4 4 3 3 2 1 4 3
1 2 2 2 1 1 2 2 1 1 1 1 2 2 0 -1 -0 -1 -2 -1 -1 -1 -3 -3 0 -0 1 1 -1 2 6 6 7 6 6 7 5 6 5 5 4 3 3 2 2 2 3
2 3 2 2 2 2 2 0 1 1 2 2 1 1 1 0 0 -1 -2 -1 -1 -1 -1 -1 -1 1 1 -1 4 3 5 5 7 6 7 7 5 5 5 5 4 4 4 3 3 2 2
2 2 2 2 2 2 1 1 0 1 3 1 1 1 -0 1 -0 -1 -1 -2 -1 -4 -2 -2 -0 1 0 -4 3 5 5 5 7 6 7 7 6 5 4 4 4 4 3 6 1 2 2
1 2 2 2 1 2 2 1 1 2 2 2 2 1 0 1 -1 -1 -1 -2 -3 -3 -0 -1 -0 1 -1 0 2 4 5 6 7 7 8 6 5 4 4 3 4 3 2 2 2 2 0
1 1 1 1 2 2 1 2 1 2 2 1 1 0 0 1 -2 -2 -2 -2 -2 -3 0 0 1 1 -0 2 4 3 5 6 7 7 6 6 6 5 3 2 2 3 1 2 0 2 3
-0 1 1 0 1 1 1 1 1 2 3 1 -0 1 -0 1 -1 -1 -1 -2 -0 -0 1 -3 -3 2 3 3 3 3 5 7 7 6 6 6 6 7 4 1 -1 1 1 1 1 1 1
-7 1 0 0 0 1 1 1 2 3 2 -2 1 -0 1 -1 -1 -1 -1 -2 -2 -0 -2 -1 0 2 3 4 4 5 5 7 6 6 5 7 7 2 2 2 2 2 1 2 3 1 1
-10 0 -5 -3 -2 0 -1 1 2 2 1 -2 -0 -2 -2 -2 -2 -1 -1 -1 -1 -1 0 1 2 3 5 4 4 6 5 5 5 6 6 6 5 2 3 4 3 3 3 4 2 2 -0
-10 -6 -15 -13 -18 -2 -2 -4 -0 -2 -1 -3 -1 -2 -1 -1 -2 -2 -1 -1 -1 0 4 3 3 4 5 4 6 4 5 5 5 6 5 6 5 2 3 4 2 5 3 3 2 3 2
-10 -10 -14 -21 -26 -22 -5 -4 -5 -4 -3 -1 -1 -2 -6 -5 -2 -0 -0 -2 -1 1 5 3 3 4 4 5 5 5 4 6 5 5 5 7 6 5 4 4 2 2 1 1 1 3 3
-11 -11 -11 -18 -25 -27 -23 -5 -5 -5 -4 -3 -3 -2 -1 -4 -3 -1 -1 -0 0 4 6 5 5 4 4 5 5 6 6 5 4 4 5 6 5 6 6 4 3 -1 0 0 1 2 7
-10 -9 -11 -14 -22 -25 -28 -24 -4 -4 -4 -4 -4 -3 0 -0 -2 -1 -0 1 5 6 4 6 5 4 4 5 5 4 5 5 6 6 6 5 4 5 4 5 2 1 4 8 7 8 6
-9 -7 -7 -5 -7 -19 -25 -29 -26 -4 -4 -4 -3 -3 0 0 0 1 1 2 5 4 4 3 3 2 5 5 5 5 5 6 3 4 7 7 7 5 4 5 6 4 4 6 5 2 -0
-8 -6 -5 -4 -4 -4 -17 -24 -30 -21 -5 -4 -3 -2 1 1 1 1 2 5 5 4 2 2 1 2 3 3 3 3 3 3 3 2 5 5 6 0 0 1 3 4 6 -2 2 -1 2
-6 -4 -4 -5 -6 -4 -3 -20 -24 -31 -7 -5 -2 -2 0 1 1 0 4 5 4 3 1 -0 2 2 3 4 3 3 3 1 1 -0 -1 1 6 1 -0 -0 -1 1 -1 4 4 5 3
-4 -4 -3 -3 -6 -7 -6 -3 -23 -26 -17 -4 -1 -1 0 0 1 3 4 5 3 3 2 -0 1 2 3 3 3 3 2 1 -0 -0 -2 -0 2 4 1 2 2 1 2 0 0 0 -0
-3 -3 -4 -1 -5 -8 -7 -7 -11 -25 -23 -3 -3 4 0 -0 4 3 4 3 3 2 2 -1 -1 0 2 2 3 2 1 1 -1 -1 0 -1 2 5 3 0 -1 -0 1 -2 1 3 1
-3 -3 -3 -4 -3 -6 -7 -7 -3 -24 -22 -1 -1 -2 -0 -0 3 3 2 2 2 2 1 -0 -1 -1 -1 1 2 1 1 -1 -1 -1 -0 -1 2 5 4 2 1 2 1 -1 -2 0 4
-3 -3 -3 -4 -2 -3 -5 -5 -3 -21 -25 -1 -1 3 1 1 1 2 2 2 2 2 1 -1 -1 -1 -1 -0 -1 1 0 1 -1 -1 -1 -2 -0 2 0 3 2 4 2 0 0 3 1
-3 -3 -2 -4 -2 -1 -2 -3 -4 -20 -16 -0 -0 1 1 3 2 1 2 2 3 3 2 -1 -1 -1 -1 0 0 0 0 0 -0 1 -0 -0 5 2 0 0 2 2 2 1 3 1 2
-3 -2 -3 -5 -4 -1 -2 -3 -4 -14 -16 -1 1 0 -0 0 1 0 0 2 3 3 2 0 -0 -1 -1 0 -2 1 0 0 0 1 -0 -0 5 3 3 1 1 3 1 1 1 1 0
-2 -2 -3 -2 -3 -1 -1 -2 -2 -7 -17 -5 -1 -1 0 -1 1 1 1 1 2 2 2 2 -2 1 2 1 1 -0 -1 -1 -1 0 1 1 3 3 4 1 1 3 2 1 1 0 0
-2 -3 -1 -2 -3 -3 -2 -1 -2 -3 -8 -11 -5 -2 -0 -0 -0 1 0 0 1 2 3 2 1 1 2 -0 -0 -1 -1 -0 -0 -0 -1 1 3 3 4 2 5 0 -0 -0 0 -1 -1
-2 -2 -2 -2 -3 -3 -2 -1 -1 -1 -3 -8 -8 -9 -1 -3 -2 -3 -1 0 1 1 2 3 3 2 1 2 1 2 2 1 1 1 -0 -1 1 4 4 3 0 -2 0 1 2 4 -1
-1 -2 -2 -2 -3 -2 -2 -2 -1 -1 -1 -4 -6 -7 -10 -3 -5 -1 -2 -2 1 2 2 3 3 3 2 2 3 3 4 1 3 3 2 1 -0 2 3 4 4 0 2 0 1 5 1
0 0 -1 -2 -2 -1 -1 -2 -2 -1 -1 -2 -4 -5 -5 -5 -9 -4 -3 -1 1 2 2 1 3 4 3 3 3 1 2 1 4 3 4 4 4 4 3 2 1 -1 2 2 7 5 1
-1 -2 -1 -3 -2 -2 -1 -1 -1 -1 -1 -2 -2 -3 -6 -4 -6 -6 -8 -5 -5 -8 2 1 3 3 3 4 3 3 1 1 2 1 2 2 3 5 3 4 3 -1 2 3 2 1 1
-1 -2 -3 -2 -2 -2 -2 -1 -1 -1 -1 -1 -2 -4 -4 -3 -5 -6 -4 -4 -5 -7 -7 -7 -1 1 2 4 3 2 3 2 2 4 1 3 0 1 1 0 -2 0 2 2 0 1 1

GFSGBSN_850_dewp_039.txt.gz
Dewpoint
3 3 3 1 2 2 2 2 1 2 2 2 2 2 1 1 -0 -0 0 -2 -2 -1 -0 -0 -2 -1 -0 1 -1 4 3 5 7 6 5 6 3 5 5 3 1 3 -0 -0 -0 2 1
3 2 3 2 2 3 2 3 1 1 1 1 2 1 0 0 0 -0 -0 -2 -1 -1 -1 -3 -1 1 1 -0 -2 1 7 7 7 6 6 4 2 5 4 3 2 2 1 1 -0 2 2
2 2 2 2 2 2 2 0 2 2 1 2 3 2 1 -1 0 -0 -0 -2 -2 -1 -1 -3 -3 -2 0 -1 -1 2 2 6 7 7 4 3 2 4 4 5 2 2 2 2 0 1 1
0 2 2 1 2 2 1 2 1 1 1 2 2 1 1 -0 1 -0 -1 -1 -3 -1 -4 -3 -3 1 -0 -2 -2 2 2 2 6 7 3 4 4 3 3 3 3 4 3 4 1 1 1
-0 0 2 1 1 2 2 2 1 1 1 2 3 1 -0 0 0 -3 -2 -2 -3 -4 -3 -2 -0 1 -3 0 -2 -0 5 4 6 7 4 6 6 3 3 3 5 3 3 3 1 1 1
-6 -0 -1 -0 1 1 2 2 1 1 1 2 -1 -1 -1 0 -2 -3 -4 -3 -3 -4 -1 1 1 0 -2 -1 1 3 4 6 7 6 6 7 7 4 3 2 4 2 2 -1 0 2 1
-8 -9 -5 -2 -1 1 2 2 1 2 0 -2 -1 1 1 -2 -2 -2 -1 -0 1 0 -0 -2 -1 -2 1 1 3 5 6 6 6 6 6 7 7 6 3 -1 -3 -4 -0 -2 -3 -0 2
-10 -9 -7 -7 -1 -1 1 1 2 2 1 -1 -2 -2 -2 -1 -1 -2 0 -0 1 -0 -2 -2 -0 -0 2 3 4 4 5 7 5 6 2 7 7 2 -0 -2 -2 -0 -1 -1 -1 -1 1
-10 -9 -9 -12 -6 -14 -0 0 2 2 1 1 -2 -4 -2 -2 -1 1 1 -1 -3 0 2 1 1 2 3 3 5 6 4 4 4 5 4 5 5 1 2 1 1 -1 -0 -1 1 1 0
-9 -9 -9 -16 -18 -21 -13 -2 -2 -1 -2 -2 -1 -2 -7 -5 1 0 -2 -2 -1 -0 4 3 3 3 3 4 5 6 4 4 4 5 4 6 3 2 3 3 -0 0 -1 1 3 2 -1
-9 -8 -8 -8 -13 -24 -24 -25 -9 -3 -2 -4 -2 -0 -3 -6 -7 0 -3 -3 -1 2 6 4 4 4 4 4 5 5 5 4 5 6 6 7 6 4 3 2 -1 2 2 2 2 3 3
-8 -8 -7 -6 -5 -4 -20 -25 -28 -14 -3 -3 -4 -3 0 -0 -3 -3 -2 -1 1 4 6 6 4 4 4 4 5 5 5 4 5 5 4 5 5 5 3 2 0 1 1 2 2 3 7
-7 -6 -6 -6 -6 -6 -3 -16 -24 -29 -14 -3 -3 -3 -1 1 2 0 1 2 5 6 4 5 5 4 5 5 6 5 5 5 5 6 6 5 4 5 4 4 1 1 3 7 7 8 5
-7 -5 -6 -6 -7 -7 -8 -4 -10 -24 -28 -5 -3 -3 -0 1 1 1 3 4 7 4 3 3 2 4 6 5 5 5 5 7 5 5 7 8 6 4 3 4 4 3 3 7 6 5 3
-7 -5 -5 -4 -6 -7 -9 -10 -8 -9 -26 -12 -3 -2 -0 1 1 1 3 6 6 5 2 1 0 3 4 3 5 5 3 5 5 3 7 7 7 4 4 3 3 6 6 -1 1 -2 1
-6 -4 -4 -4 -5 -5 -8 -11 -11 -7 -22 -16 -3 1 2 0 1 3 4 5 5 2 0 -0 2 1 3 2 3 3 2 1 2 -0 -1 2 6 2 3 3 3 5 1 5 5 7 2
-6 -4 -4 -4 -4 -5 -6 -10 -11 -7 -13 -15 -1 1 1 -0 2 4 5 5 2 2 1 -0 0 1 1 2 1 1 1 1 -0 -1 -2 0 3 4 1 3 4 4 6 3 1 1 4
-7 -4 -4 -4 -4 -4 -6 -9 -6 -6 -19 -22 1 5 0 0 4 2 4 2 2 1 1 -2 -1 -0 -0 0 1 1 0 1 -1 -2 -0 -0 2 5 4 0 -1 0 1 1 3 4 0
-6 -4 -4 -3 -3 -5 -6 -6 -4 -13 -23 -13 2 1 -0 0 4 3 1 1 2 1 0 -1 -1 -1 -1 0 2 1 0 -1 -1 -1 -0 -1 3 5 4 2 1 2 1 0 -1 1 5
-7 -4 -3 -3 -5 -4 -4 -3 -4 -14 -24 -5 1 4 2 2 2 1 1 0 2 2 1 -1 -2 -2 -1 -1 -2 1 1 0 -1 -1 -1 -2 0 3 3 5 2 4 2 1 1 5 2
-6 -3 -2 -4 -4 -3 -1 -3 -3 -15 -18 -2 1 1 1 4 1 1 2 2 2 2 1 -1 -0 -1 -2 -0 -1 -1 -0 0 -1 1 -1 -0 6 3 -0 -0 2 2 2 1 3 2 3
-1 -2 -3 -2 -2 -3 -2 -2 -3 -15 -15 -1 1 1 1 -0 1 1 1 2 2 2 2 0 -0 -1 -2 -1 -2 -1 -1 -1 -0 -0 -0 -0 4 3 4 1 1 2 1 0 1 1 0
-2 -3 -3 -2 -2 -3 -3 -1 -2 -5 -18 -5 -4 -0 1 -1 0 1 1 1 2 2 1 1 -1 -1 -0 -1 0 -1 -2 -3 -2 -0 -0 1 4 5 4 1 1 3 2 1 0 -0 -0
-3 -3 -2 -2 -3 -3 -2 -2 -2 -2 -4 -4 -10 -3 -1 -2 -1 1 0 0 1 1 3 2 -1 0 0 0 -0 -1 -1 -1 -1 -1 -2 1 3 3 5 2 5 2 -1 -1 -0 -1 -1
-3 -1 -1 -2 -3 -1 -2 -1 -2 -1 -2 -3 -7 -9 -4 -5 -8 -7 -2 -1 0 1 2 2 2 3 0 1 1 2 2 1 0 -1 -1 -2 -0 3 4 3 0 -2 -1 1 2 3 -1
-0 -0 0 -1 -3 -2 -2 -2 -2 -1 -1 -2 -3 -4 -8 -5 -5 -3 -5 -6 -0 1 1 2 4 4 3 2 2 2 3 0 3 2 0 -1 -1 1 2 3 3 1 2 -1 -0 5 1
-1 -1 -1 -2 -3 -2 -1 -2 -2 -1 -2 -1 -2 -4 -4 -3 -6 -6 -7 -3 -2 1 2 1 3 4 3 3 3 2 1 0 2 2 3 3 2 4 2 2 0 -3 2 1 6 5 2
-2 -2 -2 -3 -2 -2 -2 -1 -1 -2 -1 -1 -2 -4 -4 -4 -5 -5 -6 -7 -7 -8 -1 -0 2 4 4 4 4 2 0 0 0 -0 1 2 3 3 2 3 3 -1 3 4 2 2 2
-1 -1 -1 -2 -1 -1 -2 -1 -1 -1 -1 -1 -1 -1 -2 -3 -4 -4 -4 -5 -5 -7 -6 -6 -2 -1 2 4 3 1 -0 -1 0 2 -1 2 -1 -0 -0 0 -2 -1 -0 2 1 1 2

GFSGBSN_850_dewp_042.txt.gz
Dewpoint
2 3 2 2 2 3 3 2 2 2 2 2 2 2 1 0 0 1 -0 -0 -2 -3 -1 0 -1 0 -1 2 1 1 2 -2 4 7 7 6 3 5 6 4 2 4 2 0 0 2 1
-2 2 2 2 2 2 2 2 2 2 1 2 3 2 1 0 0 0 -1 -1 -1 -1 -1 -3 -1 -1 1 -0 -3 -1 4 7 3 7 6 6 3 5 4 2 3 1 2 1 -1 2 2
-6 1 2 1 1 2 2 2 1 2 1 2 3 3 1 -0 0 1 -1 -1 -0 -0 -2 -2 -2 -0 1 -1 -1 2 1 6 8 7 5 4 2 3 4 4 3 2 3 2 1 2 2
-9 -5 -2 0 -1 2 2 2 2 2 1 2 1 -1 -2 -1 -0 -0 -1 -1 -3 -2 -3 -4 -2 2 0 -2 -3 -1 1 4 5 5 5 4 3 2 3 4 3 3 3 5 2 1 1
-9 -9 -5 -8 -0 2 2 2 2 2 2 2 1 -1 -0 -2 -4 -6 -4 -3 -5 -5 -5 -4 -1 1 -1 0 -3 -3 -1 3 6 6 3 4 3 3 3 5 6 5 5 5 3 1 1
-9 -9 -8 -12 -8 -2 1 1 2 2 2 -0 -3 -2 -3 -3 -2 -3 -3 -4 -4 -2 -4 1 0 0 -1 -3 -1 -2 0 1 7 6 6 4 4 5 5 5 8 6 5 2 3 2 2
-9 -9 -8 -12 -15 -6 -0 1 -3 2 2 3 -2 -1 -2 -2 -2 -2 -0 1 1 0 0 -0 0 -1 -2 1 1 2 3 3 7 8 7 6 7 7 5 3 2 1 2 2 0 1 2
-8 -8 -8 -12 -19 -17 -7 -3 -4 -3 2 -1 2 -5 -1 -2 -2 -1 1 0 -2 -1 0 -2 -1 -1 -1 2 3 3 5 7 7 7 5 7 7 3 2 1 0 -1 -0 1 -2 1 1
-8 -8 -8 -7 -6 -7 -11 -7 -20 -6 -3 -3 -2 -2 -6 -4 -0 0 -4 -1 -1 -1 1 1 1 2 3 3 4 4 5 6 5 5 5 5 4 2 2 2 1 -1 0 -1 1 1 0
-7 -7 -7 -7 -8 -6 -3 -7 -21 -26 -11 -3 -4 -2 -3 -5 2 0 0 -2 -2 -0 3 3 3 4 4 4 5 5 4 5 5 5 3 5 4 4 3 2 -1 1 -2 -1 1 3 3
-6 -7 -6 -7 -8 -9 -10 -4 -6 -23 -27 -15 -3 -4 -2 -2 -1 2 -0 -2 -0 2 6 4 4 3 3 5 5 6 4 4 4 5 6 7 6 6 6 4 0 1 1 2 3 4 4
-4 -7 -5 -7 -6 -8 -9 -11 -11 -5 -20 -26 -7 -3 -4 2 2 2 -1 -0 2 4 5 6 4 5 6 5 4 5 5 4 4 5 5 5 5 6 5 4 1 2 2 2 2 3 7
-6 -7 -5 -6 -5 -6 -6 -9 -12 -13 -7 -24 -10 -3 -3 -0 3 2 2 2 4 6 4 5 6 4 4 5 5 5 5 5 6 6 6 5 5 4 5 5 3 2 3 6 7 7 6
-8 -8 -5 -5 -5 -4 -5 -6 -11 -14 -10 -13 -9 -3 -1 1 2 2 2 3 5 4 3 2 4 4 5 4 5 5 6 6 5 5 7 7 6 5 4 5 6 4 3 6 5 7 4
-7 -8 -6 -5 -4 -5 -4 -5 -10 -13 -8 -12 -8 -1 -2 2 1 2 3 4 5 5 1 1 2 4 4 5 5 6 6 6 6 5 7 7 6 4 4 4 4 5 6 -0 3 -2 4
-8 -7 -6 -5 -4 -4 -3 -6 -9 -10 -7 -19 -11 1 2 1 1 3 5 4 5 2 0 -1 2 2 2 3 4 5 5 4 3 2 2 3 6 5 4 4 3 5 2 5 5 6 4
-7 -8 -5 -5 -4 -3 -4 -6 -5 -5 -8 -23 -2 2 3 -0 3 5 5 4 1 1 1 0 0 0 1 2 1 2 2 1 -1 -1 -1 1 3 6 5 6 6 5 6 4 2 3 6
-9 -7 -7 -5 -3 -4 -6 -5 -4 -6 -18 -23 3 4 2 -0 5 4 6 2 1 0 0 -2 -1 0 -0 -0 1 1 1 1 -1 -2 1 0 3 6 4 1 1 3 5 4 6 4 2
-6 -8 -6 -3 -4 -5 -3 -3 -4 -13 -19 -9 2 1 2 0 6 2 1 1 1 1 -0 -1 -1 -1 -1 -0 1 0 1 -1 -1 -1 0 -0 3 4 4 2 1 3 1 4 3 3 5
-8 -3 -2 -5 -3 -3 -2 -3 -4 -17 -12 -3 2 3 3 3 1 2 2 1 2 2 1 -1 -1 -2 -1 -0 -2 1 1 0 -1 -1 -2 -2 1 3 4 3 3 4 2 1 2 5 3
-1 -3 -5 -2 -2 -2 -3 -3 -4 -18 -4 1 0 1 0 4 2 2 2 2 1 2 1 -0 -0 -1 -1 -0 -1 0 1 1 -0 -0 -1 1 4 1 1 0 3 3 2 2 3 3 3
-3 -5 -3 -3 -3 -3 -2 -3 -3 -9 -6 -5 -0 -0 -0 0 0 1 1 1 2 2 1 1 0 -1 -2 -1 -2 -1 -0 -0 0 0 0 1 4 3 3 1 0 2 2 1 2 2 1
-5 -3 -2 -2 -3 -2 -2 -2 -2 -3 -9 -7 -10 -3 0 -1 -1 1 2 2 2 2 1 1 1 -1 -1 2 1 -0 -2 -3 -2 0 1 2 3 3 3 1 1 3 2 1 1 0 1
-3 -1 -1 -1 -3 -2 -2 -2 -3 -2 -2 -3 -7 -2 -2 -3 -4 -2 -1 -0 1 1 3 2 -1 1 0 -0 -1 -1 -2 -2 -2 -2 -2 2 3 3 3 2 4 1 -1 -0 -0 -1 -1
-1 -1 -1 -1 -3 -2 -2 -2 -2 -1 -2 -2 -3 -5 -4 -5 -9 -5 -5 -5 -3 0 1 2 3 3 0 1 0 2 2 1 -0 -1 -1 -1 2 2 3 3 1 0 1 1 1 1 -2
-1 -1 -1 -2 -3 -2 -2 -2 -2 -2 -2 -1 -2 -5 -2 -4 -6 -9 -9 -6 -0 1 2 2 4 3 3 3 3 3 4 2 3 2 -0 -1 -1 2 3 3 4 4 -0 -2 -1 6 1
-3 -2 -2 -3 -3 -2 -2 -1 -1 -2 -2 -1 -1 -3 -3 -2 -4 -5 -6 -4 -5 -2 -0 1 0 3 3 4 4 3 3 -0 2 2 4 3 2 4 4 4 1 -0 -0 0 6 5 1
-2 -2 -1 -2 -2 -1 -2 -2 -1 -2 -2 -2 -1 -1 -2 -2 -3 -4 -5 -6 -7 -7 -5 -5 1 3 4 4 5 5 2 0 -0 -1 1 2 3 3 3 4 3 2 3 5 3 2 2
-1 -2 -1 0 -0 -1 -2 -2 -2 -2 -2 -1 -1 -1 -2 -2 -3 -4 -4 -4 -6 -5 -6 -6 -4 -4 1 3 3 3 2 -2 -0 2 -2 2 0 1 0 2 -1 -0 1 2 1 2 3

GFSGBSN_850_dewp_045.txt.gz
Dewpoint
-4 -2 1 1 2 2 3 3 2 2 2 2 3 3 2 1 -1 -0 0 -1 -2 -2 -1 -1 -0 1 2 2 2 -2 2 1 5 7 6 6 7 8 6 6 5 5 3 4 4 4 5
-7 -1 0 -0 1 3 3 3 2 3 3 2 2 2 -2 -1 -1 0 -1 -1 -2 -2 -1 -3 -2 -0 -0 1 -1 2 3 3 5 7 6 6 3 6 6 5 4 4 4 3 2 2 1
-6 -4 0 -0 1 1 3 2 2 3 3 0 3 1 -1 -1 0 -0 -1 -2 -1 -1 -2 -3 -3 0 2 -2 0 1 3 5 6 6 6 5 3 5 4 4 3 2 4 3 4 2 2
-8 -4 -2 -1 -1 -3 2 1 2 2 3 -1 -1 2 -2 -5 -8 -5 -2 -1 -3 -3 -3 -6 -4 -0 2 -3 -2 -2 1 4 6 6 5 4 3 4 4 4 3 3 3 5 3 2 2
-8 -6 -7 -10 -5 -6 -7 1 -0 2 2 3 -4 -2 -1 -2 -3 -4 -4 -3 -5 -5 -5 -4 -1 0 0 -1 -2 -4 -2 0 5 5 6 6 5 3 3 5 6 4 6 5 4 1 2
-8 -8 -8 -7 -5 -7 -16 -14 -0 1 -0 -1 2 -5 -3 -3 -2 -2 -3 -3 -1 0 -2 1 0 -0 -1 -0 -1 -3 -3 1 5 5 7 6 5 5 5 6 8 7 5 4 4 2 2
-8 -8 -8 -7 -4 -2 -5 -20 -14 -3 1 -3 -2 -2 -7 -5 -3 -4 -1 -0 0 -0 -0 -1 -2 -1 -1 -2 -1 -2 -3 2 5 6 6 6 6 6 5 4 4 3 4 3 2 1 3
-8 -7 -7 -7 -7 -9 -8 -6 -15 -19 -10 -4 -3 -3 -8 -5 -5 -3 -3 -1 1 1 0 -1 -1 -2 -2 -1 3 2 0 5 6 7 5 6 6 4 3 2 3 3 3 3 0 1 3
-7 -6 -6 -7 -7 -8 -9 -11 -9 -7 -19 -24 -8 -3 -3 -6 -2 -4 -2 -4 -2 1 2 2 2 2 3 2 3 3 4 5 5 5 6 5 4 3 4 4 3 2 -0 0 1 1 0
-5 -5 -6 -6 -6 -6 -7 -8 -11 -13 -9 -16 -23 -5 -3 -4 1 0 1 -1 -1 -0 3 3 3 3 3 4 3 2 4 5 6 6 4 5 4 4 3 4 2 3 -2 -1 2 3 4
-5 -6 -6 -5 -5 -5 -6 -5 -7 -12 -13 -8 -21 -7 -3 -1 -2 2 0 -3 -0 2 4 4 4 2 3 3 4 5 4 5 5 6 4 6 6 6 5 5 1 1 1 2 2 3 3
-4 -7 -7 -6 -3 -4 -4 -4 -5 -9 -12 -8 -19 -5 -2 -0 2 2 2 1 2 2 5 5 3 4 4 4 5 5 4 4 4 5 4 5 5 5 6 5 3 1 2 2 2 3 4
-5 -8 -7 -6 -5 -4 -3 -3 -4 -8 -11 -7 -19 -4 -2 -1 2 3 2 2 2 3 2 5 5 5 4 5 5 4 5 5 6 7 6 5 5 4 5 5 4 3 3 6 6 4 5
-6 -7 -7 -7 -5 -4 -3 -1 -6 -9 -9 -7 -18 -2 -1 1 1 2 3 3 2 3 4 4 4 4 5 4 5 5 6 6 4 5 6 6 7 6 4 5 6 5 3 5 5 5 5
-6 -6 -7 -5 -6 -4 -3 -4 -6 -9 -6 -12 -16 1 1 2 1 3 3 1 2 5 2 3 4 5 5 5 5 6 6 5 5 5 6 6 6 4 4 4 4 6 6 2 3 1 2
-5 -6 -7 -6 -5 -3 -6 -5 -5 -6 -7 -19 -10 1 2 3 1 4 3 2 3 2 1 0 3 2 3 5 6 7 6 5 6 4 4 5 6 5 4 5 4 4 2 5 4 6 3
-4 -6 -6 -4 -3 -5 -4 -4 -4 -8 -15 -20 0 2 3 2 2 4 3 3 3 1 1 0 1 1 1 2 2 4 4 4 3 3 2 2 3 6 5 5 7 5 6 4 3 3 5
-4 -6 -3 -4 -4 -3 -4 -4 -5 -17 -21 -16 2 2 3 1 4 4 2 3 1 1 0 -0 -1 -0 1 -0 1 1 2 1 -0 -0 2 0 3 6 5 4 4 4 5 3 4 4 1
-6 -2 -4 -4 -4 -4 -4 -4 -5 -14 -6 -2 1 1 3 2 5 2 1 2 1 1 0 0 -1 -1 -1 -0 1 1 1 -1 -1 -0 0 1 3 5 6 2 3 6 4 5 3 2 3
-3 -4 -4 -4 -5 -4 -4 -4 -6 -14 -4 1 2 1 1 3 2 2 2 1 2 1 1 -1 -1 -2 -1 -0 -2 1 2 -0 -1 -0 -1 -1 2 1 3 2 3 3 4 4 4 4 4
-3 -6 -4 -3 -4 -3 -4 -4 -5 -11 -9 -3 -1 0 0 2 1 1 1 2 2 3 1 0 -0 -1 -0 -0 -1 1 1 1 -0 -1 -1 1 1 -1 1 2 2 3 3 3 5 2 4
-6 -4 -3 -3 -4 -3 -3 -4 -5 -6 -11 -16 -1 -1 -1 -0 -0 1 1 3 3 3 2 2 0 -0 -1 1 0 -0 1 0 0 0 -0 1 2 1 -0 1 2 2 2 2 2 1 1
-4 -3 -2 -2 -3 -3 -4 -4 -4 -4 -6 -6 -6 -4 -0 -1 -2 1 1 1 2 2 2 2 1 1 -1 2 1 -0 -2 -2 -2 0 1 2 1 -0 1 1 1 2 1 1 1 1 1
-3 -2 -1 -1 -3 -3 -4 -4 -4 -4 -3 -4 -4 -4 -3 -3 -8 -4 -5 -5 -3 -1 2 1 2 2 1 -0 -1 -1 -2 -2 -1 -1 -1 2 2 1 1 1 3 -2 -1 -1 -0 -0 -0
-2 -1 -0 -1 -3 -3 -3 -3 -3 -3 -3 -3 -4 -4 -3 -4 -6 -8 -10 -8 -3 -0 1 2 4 3 1 1 1 2 2 1 0 -1 -1 -0 2 2 2 3 0 1 1 1 1 1 -1
-2 -2 -2 -2 -3 -3 -3 -2 -2 -2 -3 -3 -2 -3 -3 -3 -5 -7 -7 -5 -3 -1 2 2 2 3 2 3 3 4 4 2 3 2 -1 -1 -0 1 4 3 4 3 -1 -1 -0 5 0
-3 -2 -1 -2 -2 -2 -2 -3 -2 -2 -2 -3 -2 -3 -3 -3 -3 -4 -5 -5 -5 -6 -3 1 -3 1 3 3 4 3 2 -0 3 3 3 3 2 3 4 4 1 -2 -0 -0 6 4 1
-2 -2 -1 -1 -1 -1 -2 -2 -2 -2 -3 -2 -1 -2 -2 -2 -3 -3 -4 -4 -6 -7 -5 -5 -1 1 3 4 4 3 2 0 0 -0 2 2 2 3 3 3 3 1 2 4 2 2 2
-1 -2 -1 -1 -1 -2 -2 -2 -3 -3 -2 -2 -2 -1 -2 -2 -4 -5 -4 -3 -3 -5 -5 -6 -4 -4 0 3 3 3 3 -0 -0 2 -1 2 0 2 1 1 -3 2 1 2 2 2 2

GFSGBSN_850_dewp_048.txt.gz
Dewpoint
-4 -1 2 -1 -2 1 3 3 3 3 3 -2 -0 3 2 1 -0 -0 -1 -1 -2 -2 -2 -0 -1 -0 2 2 1 0 2 2 5 5 6 5 6 7 7 6 7 5 5 5 7 8 8
-7 -5 0 -2 -2 -3 3 3 3 3 3 0 -0 -3 -4 -4 0 0 -1 -2 -2 -2 -2 -3 -2 -0 1 2 0 3 3 1 3 7 6 5 5 7 6 6 7 6 4 5 6 7 7
-7 -4 -4 -3 -2 -4 -1 2 2 3 3 3 -5 -4 -3 -5 -7 -1 -1 -2 -2 -1 -2 -3 -3 0 2 1 2 -0 4 4 3 6 6 5 4 6 5 5 4 4 6 4 3 3 3
-7 -6 -6 -6 -1 -3 -2 -1 1 2 2 2 1 -6 -3 -3 -5 -5 -2 -2 -5 -3 -5 -6 -3 -1 -1 -1 -0 -2 0 4 6 7 6 5 3 5 5 4 4 3 4 6 4 3 2
-7 -7 -6 -7 -3 -2 0 -1 -3 -0 1 0 -4 -7 -7 -5 -3 -3 -4 -5 -6 -6 -6 -4 -1 0 -1 -2 -1 -3 -0 -0 5 6 6 5 5 4 4 5 5 4 6 5 4 2 2
-8 -7 -6 -6 -5 -2 -2 1 0 -1 -6 -3 -4 -7 -7 -7 -3 -3 -2 -1 -0 -1 -3 -0 -0 0 -1 -1 -1 -1 -3 -1 4 5 7 7 5 6 5 6 7 6 6 4 5 3 3
-8 -6 -6 -6 -6 -6 -6 -2 -0 2 -4 -19 -7 -4 -7 -5 -4 -4 -2 -1 -0 0 0 -0 -2 -2 -2 -4 1 -1 -2 -0 4 6 6 7 6 7 5 4 3 4 3 4 3 2 3
-8 -4 -6 -6 -6 -5 -4 -5 -0 -1 -1 -2 -20 -14 -2 -6 -5 -2 -4 -7 -2 -2 -0 -1 -0 -1 -1 -1 2 1 -1 2 4 6 4 7 6 4 3 4 3 3 4 3 1 1 3
-8 -4 -6 -6 -6 -5 -3 -4 -3 0 -3 -4 -7 -19 -3 -3 -2 -3 -2 -4 -2 1 1 1 2 2 2 2 3 3 4 2 4 5 5 6 5 3 4 4 5 3 3 2 2 2 0
-7 -4 -6 -6 -5 -5 -4 -4 -3 -3 -7 -9 -7 -16 -3 -1 -0 -1 0 -2 -1 -1 3 4 3 3 3 3 4 2 3 5 4 6 5 5 4 4 5 5 2 4 -1 -1 2 3 6
-6 -4 -6 -6 -5 -2 -1 -3 -3 -5 -7 -8 -7 -16 -3 -2 -1 1 1 -1 -1 1 4 2 4 3 2 4 3 5 4 4 5 5 6 7 5 5 5 4 1 2 -1 2 2 3 3
-5 -5 -5 -6 -6 -2 -4 1 -3 -6 -7 -7 -8 -17 -3 -1 1 1 1 1 1 -2 3 4 3 4 3 3 5 5 5 5 5 5 4 5 5 5 5 4 2 1 2 2 2 3 3
-5 -6 -4 -5 -6 -5 -4 -2 -6 -7 -5 -7 -11 -16 -2 -0 2 2 2 2 -1 2 1 5 6 4 4 5 5 3 5 5 6 6 5 6 5 4 4 4 3 1 2 3 5 5 5
-6 -5 -3 -5 -5 -5 -3 -2 -3 -5 -6 -12 -17 -4 -2 0 1 2 3 -0 -0 2 6 4 4 4 6 4 5 4 5 5 4 4 5 6 7 6 4 5 5 3 2 3 5 5 4
-6 -3 -4 -4 -4 -4 -4 -3 -6 -6 -12 -16 -15 -1 -0 2 2 2 3 -1 0 2 2 4 5 6 6 5 5 5 6 5 4 4 5 6 5 4 4 4 4 6 6 2 2 1 1
-3 -3 -3 -3 -4 -5 -5 -5 -6 -10 -18 -18 -6 1 2 3 2 3 1 1 2 2 1 0 4 4 7 6 7 6 5 3 5 4 3 4 6 5 5 4 4 5 3 5 3 5 3
-2 -2 -3 -4 -5 -5 -5 -5 -6 -16 -16 -12 2 2 3 2 2 3 -1 0 3 1 1 0 1 1 1 3 5 5 5 5 3 4 3 2 3 6 5 6 7 6 6 6 4 4 4
-2 -3 -4 -5 -5 -5 -5 -5 -10 -16 -12 -4 1 3 3 1 4 4 1 2 1 1 0 0 -1 -0 1 -0 0 2 3 2 3 2 3 1 3 5 5 4 4 5 5 3 6 4 2
-2 -3 -5 -5 -5 -5 -5 -6 -10 -15 -8 -1 1 2 3 3 5 2 1 2 1 1 1 0 -1 -1 -1 -0 2 1 1 -1 1 -0 2 1 3 5 4 3 3 6 6 4 3 2 2
-3 -5 -5 -4 -5 -5 -5 -5 -7 -15 -18 -1 1 -1 1 3 3 2 2 1 2 1 1 -1 -1 -2 -1 -0 -2 2 1 0 -1 -1 -1 -0 1 1 3 2 3 5 6 4 5 4 4
-4 -5 -4 -4 -5 -5 -5 -6 -6 -8 -13 -3 -2 0 -1 2 1 0 1 3 2 3 1 -0 -0 -1 -0 0 -1 2 1 1 -0 -1 -1 -1 1 -0 0 2 2 2 3 5 6 4 5
-6 -4 -3 -5 -5 -4 -5 -5 -6 -6 -8 -10 -4 -3 -1 -1 -1 -0 1 2 3 3 2 2 0 1 -1 2 0 0 1 1 0 -0 -0 -0 1 -0 -1 -0 2 2 2 3 4 4 3
-4 -3 -3 -5 -4 -4 -4 -4 -5 -5 -6 -5 -5 -3 -0 -2 -7 -1 -2 -2 -0 1 3 2 2 1 2 2 1 0 -1 -2 -1 0 1 1 0 -1 -0 1 1 1 1 1 2 2 3
-3 -2 -2 -3 -4 -3 -3 -3 -3 -4 -5 -5 -5 -5 -6 -5 -6 -5 -9 -7 -4 -3 1 1 3 1 2 1 -1 -1 -2 -1 -1 -1 -0 1 0 -1 0 0 2 -1 -2 -1 -0 -0 0
-3 -3 -2 -3 -3 -3 -3 -2 -2 -3 -4 -4 -4 -5 -4 -4 -5 -7 -7 -6 -4 -2 1 1 3 3 2 1 1 1 1 0 -0 -1 -1 -0 2 2 1 1 0 -1 1 1 0 0 -2
-3 -4 -3 -3 -3 -2 -2 -2 -2 -3 -4 -4 -4 -4 -4 -3 -4 -4 -5 -5 -4 -4 -1 2 2 3 3 3 3 3 3 1 2 2 -1 -1 -0 1 3 2 4 -0 0 -1 -1 4 1
-3 -3 -2 -1 -1 -1 -2 -2 -2 -3 -3 -4 -4 -3 -4 -3 -3 -4 -5 -5 -6 -6 -5 -2 -6 -0 3 2 3 3 1 -0 3 3 3 2 2 4 3 4 1 -2 -3 -0 4 2 1
-3 -2 -2 -1 -1 -2 -2 -2 -3 -2 -2 -2 -3 -3 -3 -3 -4 -3 -4 -4 -4 -5 -5 -6 -1 0 2 4 4 2 2 -0 0 -0 1 2 2 3 3 4 2 -2 1 3 1 2 2
-3 -2 -2 -1 -1 -1 -2 -2 -3 -2 -2 -2 -2 -2 -3 -4 -4 -4 -4 -5 -4 -3 -4 -6 -4 -2 -0 2 3 3 4 0 -0 1 -1 2 0 1 1 1 -4 -2 1 1 2 2 2

GFSGBSN_850_dewp_051.txt.gz
Dewpoint
-7 -4 -4 -6 1 -2 -4 1 2 3 3 3 0 3 1 -8 -3 -1 -2 -2 -3 -3 -2 -1 -2 -1 1 2 1 1 2 5 5 5 6 6 5 5 5 4 7 6 6 6 6 7 7
-7 -5 -4 -6 -2 -4 -1 -1 2 2 3 3 3 1 2 -4 -8 -2 -2 -2 -2 -2 -5 -4 -2 -1 1 1 0 -0 1 3 2 4 4 7 5 4 5 6 7 6 6 7 7 8 7
-8 -6 -5 -7 -6 -2 -1 -1 -0 2 3 3 3 3 0 -3 -5 -5 -2 -2 -3 -2 -2 -1 -3 -0 1 -0 1 1 2 1 1 3 5 6 3 6 6 5 7 6 6 7 8 8 8
-8 -7 -4 -7 -7 -3 0 3 3 2 1 2 3 3 1 -6 -3 -5 -4 -3 -5 -4 -3 -5 -4 -1 -1 0 1 1 0 4 3 3 4 6 4 5 5 4 4 4 5 7 6 6 5
-7 -7 -4 -5 -7 -5 -1 1 1 2 2 -1 2 1 1 -0 -4 -4 -5 -5 -5 -5 -5 -3 -0 0 -1 0 1 -0 1 3 5 5 6 5 4 5 4 5 5 4 6 6 5 5 4
-5 -7 -3 -5 -5 -4 -2 3 2 2 2 1 1 -3 -2 -5 -2 -3 -3 -2 -2 -2 -4 -1 -0 0 -1 -2 -1 0 -0 2 5 6 6 5 5 5 4 5 6 6 5 5 5 4 3
-3 -7 -3 -5 -5 -3 -1 1 2 2 2 1 1 -0 -14 -6 -4 -3 -4 -1 -0 -1 -1 0 -1 -1 -3 -4 1 -1 -2 2 5 5 7 6 6 6 5 4 2 3 4 5 3 3 4
-2 -6 -4 -5 -6 -1 -3 -3 0 2 2 1 1 -2 -10 -3 -4 -3 -3 -5 -3 -2 -1 -1 -0 0 1 -0 2 1 -0 3 3 5 6 6 7 4 3 3 3 3 4 4 2 2 3
-2 -4 -4 -4 -5 0 0 -3 -3 2 2 1 1 0 -10 -2 -5 -3 -2 -3 -2 1 1 1 2 2 1 2 3 3 3 3 3 4 5 6 4 3 4 4 4 3 3 3 3 2 1
-0 -3 -4 -5 -4 -3 1 -2 -3 1 2 -1 0 -3 -13 -2 -1 -1 -1 -2 -2 -0 -1 3 3 2 3 3 3 2 3 3 3 5 5 6 3 5 5 5 3 4 0 1 2 3 5
1 -2 -5 -5 -4 -4 -3 -3 -3 -3 2 -3 -4 -12 -15 -1 -0 0 1 0 -2 0 -1 1 4 3 3 4 2 2 3 4 4 5 5 6 5 5 5 4 1 3 -1 -0 2 3 3
3 -1 -5 -4 -4 -4 -4 -2 -5 -1 1 -5 -11 -16 -12 -1 2 1 1 1 1 -3 3 5 4 3 3 4 4 4 4 5 4 5 5 6 5 4 5 3 1 1 1 1 2 2 4
4 -1 -4 -2 -3 -3 -3 -4 -5 -0 -0 -13 -15 -14 -3 0 2 2 1 2 -1 -1 0 4 5 4 4 5 4 4 5 6 5 6 6 6 6 4 4 4 2 1 2 6 6 7 5
3 -3 -2 -2 -2 -3 -6 -4 -6 -4 -11 -15 -16 -1 -1 0 2 2 2 -0 -0 1 5 3 4 4 5 4 4 4 5 6 4 4 6 7 7 6 4 4 4 2 1 3 5 5 4
2 -2 -1 -2 -3 -6 -6 -6 -5 -9 -15 -12 -11 1 0 2 2 2 2 -2 -1 1 3 4 4 5 6 5 4 5 5 5 4 3 4 4 6 4 5 4 3 5 4 0 1 0 1
-0 -1 -1 -2 -6 -6 -6 -6 -7 -14 -12 -8 -1 2 3 3 2 3 2 2 1 2 1 2 4 5 7 6 5 5 5 3 4 4 2 3 5 4 5 4 4 4 2 4 1 3 3
-1 -1 -2 -5 -7 -6 -6 -6 -10 -15 -13 -2 2 3 3 3 3 3 2 -1 2 1 1 0 1 1 3 6 5 6 5 4 3 4 2 1 3 5 5 6 6 6 6 5 3 2 3
-1 -1 -3 -6 -6 -6 -6 -6 -8 -16 -18 -3 2 2 3 3 4 3 -0 2 1 0 0 0 -1 -0 0 1 3 3 5 3 3 3 4 1 3 4 4 4 4 4 5 4 6 5 1
-0 -2 -6 -6 -6 -6 -6 -7 -7 -8 -17 -2 1 2 3 3 5 1 0 1 1 1 0 0 -1 -1 -1 -0 2 1 1 0 3 2 2 1 3 5 5 4 4 6 5 4 3 2 2
-1 -4 -6 -6 -6 -6 -7 -7 -7 -7 -11 -1 1 -1 1 3 3 1 2 2 1 1 1 -1 -1 -2 -1 -0 -0 1 1 -0 -0 -0 0 -0 1 1 3 1 3 6 5 6 6 5 4
-2 -6 -5 -6 -6 -6 -6 -7 -7 -7 -8 -3 -2 -1 -1 2 1 0 1 2 3 3 1 1 -0 0 -0 0 0 2 1 0 -0 -1 0 -1 1 0 0 0 2 3 4 4 6 6 5
-5 -5 -5 -6 -5 -6 -5 -6 -7 -7 -7 -8 -7 -5 -1 -3 -3 -1 -0 3 2 1 2 2 1 2 -1 2 1 1 1 0 0 -0 0 -1 1 -1 -0 -1 2 2 2 3 4 4 5
-5 -5 -5 -6 -5 -5 -5 -5 -5 -6 -7 -6 -5 -3 -1 -5 -7 -2 -6 -3 -2 -1 2 1 2 2 2 1 1 1 -1 -2 -2 -0 1 0 -0 -1 -1 0 -0 1 1 1 2 3 4
-5 -4 -4 -5 -5 -5 -5 -5 -5 -5 -5 -4 -5 -5 -7 -6 -5 -7 -7 -5 -3 -1 1 1 3 3 2 2 0 -1 -1 -2 -1 -1 -0 0 -1 -2 -1 -0 1 -2 -3 -1 -0 -1 2
-4 -4 -4 -4 -4 -4 -4 -4 -4 -5 -4 -4 -5 -4 -4 -4 -5 -6 -5 -5 -5 -3 -0 2 3 0 3 2 0 1 1 0 -0 -1 0 -1 1 1 0 0 -1 -3 0 0 0 0 -2
-4 -5 -4 -3 -3 -3 -3 -4 -4 -4 -4 -4 -4 -5 -4 -4 -4 -4 -4 -5 -4 -5 -4 0 0 2 2 2 2 2 3 1 2 1 -1 0 -1 -0 2 1 3 -2 1 -1 -1 3 -0
-5 -5 -3 -2 -2 -3 -3 -3 -4 -3 -3 -4 -3 -4 -5 -4 -3 -4 -5 -5 -5 -5 -5 -4 -6 -1 2 3 4 3 1 -0 3 2 3 3 3 3 3 4 2 -2 -3 -1 3 0 2
-5 -3 -2 -1 -1 -2 -3 -3 -3 -3 -2 -2 -2 -3 -4 -4 -3 -3 -4 -5 -5 -5 -5 -6 -0 -1 2 3 3 3 2 -0 0 -0 1 2 2 3 3 4 3 -3 1 2 -0 2 2
-4 -2 -1 -1 -1 -1 -2 -4 -4 -3 -3 -2 -3 -2 -2 -4 -4 -4 -4 -4 -4 -3 -5 -5 -3 -1 -1 2 2 3 3 1 -1 1 -1 2 -0 1 1 1 -3 -4 0 -0 1 2 2

GFSGBSN_850_dewp_054.txt.gz
Dewpoint
-5 -6 -3 -4 -3 1 2 4 2 0 2 3 3 2 3 2 -0 -2 -2 -3 -3 -2 -3 -4 -3 0 1 2 1 2 2 3 4 4 4 7 7 5 6 7 8 8 7 6 6 5 5
-4 -6 -5 -4 -3 1 2 3 3 2 1 2 2 2 3 2 1 -5 -2 -3 -2 -1 -2 -3 -3 -1 1 1 -0 -0 1 1 4 5 3 6 6 4 4 5 6 6 6 6 7 7 7
-3 -6 -6 -3 -5 -0 3 1 2 2 3 2 2 2 2 3 -4 -5 -4 -3 -5 -4 -3 -4 -3 -1 0 -1 0 1 1 0 3 5 4 5 6 5 5 6 4 6 6 8 8 8 8
-1 -5 -6 -3 -4 -2 2 3 2 3 3 3 2 1 2 2 0 -3 -5 -4 -5 -5 -5 -5 -3 -0 0 -1 2 1 1 1 1 2 2 5 6 4 5 5 6 6 6 8 7 8 7
2 -3 -6 -3 -3 -3 1 3 2 3 3 2 2 2 1 -0 1 -1 -4 -5 -4 -2 -4 -5 0 1 0 0 -0 0 1 2 2 2 1 5 7 5 4 5 6 5 7 6 8 8 8
4 -2 -5 -3 -4 -4 -1 3 2 3 2 2 2 2 2 -5 -4 2 -5 -4 -2 -1 -4 -2 -0 1 -2 -2 -1 -0 0 1 4 5 5 6 6 5 5 6 7 7 5 6 6 7 8
6 1 -3 -4 -3 -4 1 3 2 3 2 2 2 1 1 0 -3 -2 -4 -4 -2 -1 -2 -2 -1 -1 -3 -3 1 0 -1 4 4 4 5 6 6 5 5 4 2 3 4 5 3 3 5
6 2 -1 -4 -4 -3 -2 2 2 2 2 2 2 0 1 -3 1 -2 -2 -5 -3 -1 -0 -2 -2 1 1 0 2 0 1 3 3 5 5 6 6 2 4 3 3 3 4 4 2 3 5
6 3 -1 -3 -4 -3 -2 1 1 2 2 1 2 1 1 -9 -1 -2 -2 -3 -2 -1 1 1 2 2 2 3 3 2 1 2 3 4 4 5 4 3 4 4 4 3 4 3 4 3 1
6 3 0 -3 -4 -2 -2 1 1 2 1 1 2 1 -4 -5 -0 -1 -1 -1 -2 -2 -1 2 3 2 3 2 2 3 2 2 3 4 4 5 3 4 5 5 3 5 1 1 3 4 6
7 4 1 -3 -4 -2 -2 -1 -0 1 1 1 1 -8 -11 -4 1 0 1 0 -0 -1 1 2 3 3 3 3 2 2 3 2 3 4 4 6 5 6 5 4 2 3 0 1 2 2 2
7 5 2 -3 -3 -2 -2 -2 -3 -0 0 -3 -11 -14 -14 -1 1 1 1 0 1 -3 3 5 3 3 4 3 4 3 4 4 2 4 5 6 4 4 4 2 1 0 1 1 1 2 3
6 4 1 -2 -2 -2 -6 -5 -3 -5 -8 -12 -12 -10 -4 0 2 1 1 1 -2 -1 -0 4 4 3 4 4 4 4 4 5 5 6 6 6 6 4 3 4 1 1 3 5 6 5 4
6 4 -1 -1 -2 -5 -7 -7 -6 -10 -14 -9 -11 -1 -0 1 1 2 2 -1 -0 -0 4 3 4 4 5 4 5 5 5 6 4 5 6 7 7 5 4 3 3 2 2 3 5 5 4
5 3 -1 -1 -3 -7 -7 -7 -8 -12 -13 -7 -3 -0 1 2 2 2 2 -3 -2 1 3 5 4 5 6 5 4 4 5 6 4 3 5 6 6 4 5 3 2 4 4 -1 1 -1 0
5 3 -1 -1 -5 -7 -7 -7 -7 -12 -16 -3 1 3 3 2 3 3 3 1 0 -0 1 3 6 5 7 5 5 4 5 3 4 4 1 2 6 4 5 4 3 3 1 4 1 2 4
4 1 -1 -3 -7 -7 -7 -7 -7 -8 -18 -0 2 3 3 3 3 3 3 -1 1 1 1 0 1 2 5 6 4 5 4 3 3 4 1 1 2 5 4 6 6 5 5 4 2 1 2
4 -0 -1 -5 -7 -7 -7 -8 -8 -8 -11 -3 2 3 3 2 3 3 3 1 1 0 0 -0 -2 -0 0 4 5 5 4 4 2 3 2 1 2 5 5 4 4 4 4 3 3 3 1
3 -0 -3 -6 -7 -7 -7 -8 -8 -8 -10 -3 1 3 2 3 4 2 1 1 1 1 0 -0 -1 -1 -2 -0 2 2 1 1 3 1 2 1 2 6 5 3 4 6 5 4 3 2 2
1 -1 -5 -6 -7 -7 -8 -7 -8 -8 -8 -5 0 -0 1 3 3 1 2 3 1 1 0 -1 -1 -2 -1 -1 0 1 1 0 1 1 1 0 2 1 2 1 3 6 4 4 5 6 5
0 -3 -6 -6 -7 -7 -7 -7 -7 -8 -8 -9 -4 -1 -1 -1 0 -0 1 2 3 3 1 -0 -0 1 -0 0 1 2 1 0 -0 2 2 2 3 0 0 -1 2 3 4 5 6 4 5
-0 -5 -6 -6 -7 -7 -7 -6 -7 -8 -8 -8 -7 -5 -1 -4 -5 -1 -3 2 0 0 2 3 2 2 -0 2 1 1 1 0 1 -1 0 -1 1 -1 1 -0 2 3 2 3 4 4 5
-2 -5 -5 -6 -6 -7 -6 -6 -6 -8 -8 -7 -5 -3 -1 -6 -6 -2 -7 -4 -2 -1 1 1 2 2 2 3 3 1 -0 -2 -2 -0 0 0 0 -2 -1 -0 0 1 1 2 2 3 3
-4 -5 -5 -6 -6 -6 -5 -5 -6 -7 -7 -7 -6 -5 -8 -5 -6 -7 -5 -5 -4 -2 1 1 2 2 2 2 1 -1 -1 -1 -1 -1 -1 -0 -1 -2 -2 -1 -1 -4 -4 -2 -0 -1 1
-5 -5 -5 -5 -5 -5 -5 -5 -6 -6 -6 -7 -6 -5 -5 -4 -5 -5 -5 -5 -6 -5 -2 2 2 -1 3 1 0 1 1 0 -0 -1 -0 -2 -0 0 -0 -0 -1 -4 -0 -0 0 -0 -2
-5 -5 -5 -5 -4 -4 -4 -5 -5 -5 -6 -6 -6 -6 -5 -4 -4 -4 -4 -5 -5 -6 -4 -0 -0 1 2 2 2 2 2 1 2 1 -1 -0 -1 -1 2 1 2 -4 0 -1 -2 2 -1
-5 -5 -5 -4 -4 -4 -4 -4 -4 -4 -5 -6 -6 -7 -7 -4 -3 -4 -5 -4 -4 -5 -6 -3 -6 -0 2 2 4 3 1 -1 2 1 2 2 3 2 2 3 2 -2 -3 -2 3 -1 1
-5 -6 -4 -4 -3 -3 -4 -4 -3 -3 -4 -6 -5 -5 -6 -4 -3 -4 -4 -5 -4 -5 -5 -6 -1 -1 2 3 3 3 2 -0 -0 -1 1 2 2 2 2 4 2 -3 -0 2 -1 1 1
-5 -5 -4 -3 -2 -3 -4 -4 -3 -3 -4 -6 -6 -5 -6 -5 -4 -4 -4 -4 -5 -4 -4 -6 -2 -0 -1 2 1 2 2 2 -1 1 -2 1 -1 0 0 0 -3 -4 -1 -2 -1 -0 1

GFSGBSN_850_dewp_057.txt.gz
Dewpoint
1 -1 -3 -4 -1 -3 1 3 3 3 3 3 2 2 2 2 2 2 1 1 0 0 -4 -5 -5 -1 -0 -0 -0 1 1 2 4 4 5 7 7 5 5 7 8 7 7 7 7 5 5
3 1 -3 -3 -1 -4 -0 2 3 3 3 2 3 2 -0 1 2 1 0 -1 0 -3 -3 -1 -2 -1 -0 1 -1 -2 -2 1 2 4 5 5 6 5 4 7 6 7 6 6 6 6 6
6 3 -1 -3 -2 -2 -3 1 3 3 3 3 3 1 2 0 1 2 -3 1 -0 -5 -4 -4 -5 -3 -2 -2 -1 -1 -1 -1 1 2 4 4 6 4 4 6 5 6 7 7 7 7 8
7 5 1 -3 -2 -2 -1 1 3 3 2 2 2 2 2 2 -0 1 0 -1 -0 -6 -6 -6 -5 -1 -1 -2 -0 1 1 -1 0 4 4 2 7 5 5 5 5 6 6 8 8 8 8
8 6 2 -4 -2 -2 -1 2 3 3 2 2 2 2 2 2 1 -2 1 -3 -2 -2 -2 -5 -3 -0 -0 -1 0 0 1 0 1 3 3 3 6 5 5 6 7 6 8 7 8 8 8
8 7 4 -1 -2 -2 -2 2 3 3 2 2 2 2 1 2 1 -2 -1 -4 -2 -1 -2 -2 -1 1 -1 -2 0 1 1 0 2 3 5 4 5 5 5 6 6 7 7 6 8 8 8
8 7 5 0 -1 -2 -3 1 2 2 2 2 1 1 1 2 -2 -2 -1 -5 -1 -1 -1 -2 -3 -2 -2 -1 1 1 0 1 4 4 5 4 4 6 6 3 3 3 5 5 4 7 8
8 8 6 2 -0 -2 -2 -0 2 2 2 1 1 1 1 1 -0 1 -2 -3 -3 -1 -1 -2 -2 -1 1 1 2 0 3 3 4 4 3 3 5 4 4 3 3 4 4 5 2 5 7
9 8 7 3 1 -3 -2 -2 -0 2 2 1 1 1 1 1 -2 -1 -2 -2 -2 -1 0 1 1 2 1 3 2 1 2 3 3 4 3 5 5 2 4 3 4 3 4 3 4 4 2
8 7 6 4 1 -3 -1 -2 -2 2 2 1 1 1 -3 -5 -0 -1 -1 -1 -2 -1 -3 2 3 3 2 2 2 2 3 2 3 4 4 5 3 3 5 5 3 5 1 2 4 5 7
9 7 7 4 0 -2 -2 -6 -1 2 1 1 0 -2 -6 -8 1 -0 1 0 -0 -0 1 1 3 3 2 2 2 2 3 1 3 4 4 6 4 4 6 5 2 3 1 2 2 3 3
8 7 7 4 -2 -1 -3 -7 -4 0 -1 -2 -8 -12 -12 -3 1 1 1 0 1 -2 3 4 3 3 3 2 4 2 4 3 3 3 4 5 3 4 4 3 0 0 1 1 1 2 5
8 7 6 3 -1 -1 -6 -7 -5 -7 -10 -9 -10 -3 -3 1 1 1 0 1 -2 -1 -0 3 4 4 4 5 4 4 4 3 5 5 6 6 6 4 3 3 1 1 3 7 7 6 5
7 7 5 2 -0 -2 -7 -7 -7 -10 -14 -7 -4 -1 1 1 1 1 2 -1 1 1 5 3 4 4 5 4 5 4 4 4 4 5 6 7 7 5 4 3 4 2 2 4 5 6 5
7 7 5 2 -1 -4 -7 -8 -7 -8 -17 -4 -1 1 1 1 2 2 2 -3 2 2 3 3 4 3 5 4 5 5 6 6 4 4 6 7 7 5 4 3 2 3 4 -1 1 -1 2
7 7 5 2 -1 -6 -7 -8 -8 -7 -14 -2 1 2 2 2 3 3 3 2 1 -1 2 4 5 5 5 4 5 6 6 4 4 4 1 2 7 5 5 3 3 2 1 4 2 3 4
8 7 4 0 -3 -7 -7 -8 -8 -8 -12 0 2 2 3 3 3 3 4 1 1 1 1 0 1 4 6 6 4 5 4 3 3 4 0 1 2 5 4 5 6 4 4 3 2 2 4
8 6 3 -0 -5 -7 -8 -8 -8 -8 -10 -0 2 3 2 3 3 3 4 2 1 1 0 -1 -1 -0 4 4 5 4 4 3 2 3 2 1 2 5 6 3 3 3 3 2 4 3 2
8 6 2 -1 -6 -7 -8 -8 -8 -8 -9 -3 1 2 2 2 3 3 1 1 1 1 0 -0 -1 -1 -2 0 3 3 2 2 2 1 2 1 2 5 5 3 2 5 5 3 2 2 2
8 5 0 -3 -7 -7 -8 -7 -8 -8 -8 -2 1 -1 2 3 3 1 2 2 2 1 0 -1 -1 -2 -1 -0 0 2 2 1 2 3 1 0 1 1 3 1 3 6 4 4 4 6 3
6 3 -0 -5 -7 -8 -7 -7 -7 -8 -8 -9 -3 -2 -1 -1 0 -0 0 1 3 3 1 1 -0 1 -0 -0 1 2 1 0 1 3 2 1 2 -0 0 0 3 3 4 4 4 3 5
5 2 -2 -7 -7 -7 -7 -7 -7 -8 -8 -10 -9 -4 -2 -5 -5 -2 -2 1 0 -0 2 2 2 2 1 2 2 1 1 0 1 -1 2 -1 2 -0 -0 -0 1 3 2 3 3 3 3
5 1 -4 -7 -7 -7 -7 -7 -7 -8 -8 -7 -5 -3 -5 -5 -6 -2 -6 -4 2 1 1 2 2 1 3 3 2 3 0 -1 -1 -0 0 -0 0 -1 -0 -0 -1 0 0 1 2 3 3
4 -0 -6 -6 -7 -7 -7 -7 -7 -8 -8 -8 -7 -7 -7 -5 -7 -6 -5 -5 -3 -0 1 1 1 1 1 2 1 -0 -1 -1 -1 -1 -1 -1 -1 -1 -2 -2 1 -3 -4 -2 0 -0 1
2 -2 -5 -6 -6 -6 -7 -7 -7 -8 -8 -8 -7 -6 -8 -4 -6 -5 -5 -5 -6 -5 -3 1 1 -1 2 1 0 1 1 0 -0 -1 -1 -2 -1 0 1 -0 -2 -3 -0 -1 -0 0 -2
0 -5 -6 -6 -6 -6 -7 -6 -6 -7 -7 -10 -9 -7 -5 -4 -4 -4 -5 -6 -6 -6 -3 -1 0 1 2 1 1 2 2 1 2 1 -0 -1 -2 -0 1 1 1 -5 -1 -1 -2 2 -2
-1 -5 -6 -6 -5 -7 -7 -6 -5 -7 -8 -8 -8 -9 -6 -4 -3 -4 -4 -4 -5 -5 -6 -4 -5 -0 2 2 4 3 1 -1 2 1 2 2 2 2 2 2 0 -3 -3 -2 2 -1 -1
-1 -6 -6 -5 -6 -7 -6 -4 -4 -6 -7 -7 -6 -7 -9 -4 -3 -4 -5 -5 -5 -5 -6 -6 -1 -1 2 3 3 3 2 -0 -0 -1 1 1 2 2 2 3 2 -3 -1 1 -1 -0 -0
-5 -6 -6 -5 -6 -7 -5 -4 -4 -6 -7 -7 -7 -6 -7 -6 -4 -4 -4 -4 -5 -4 -4 -5 -2 -0 -1 2 1 2 1 2 -1 0 -3 1 -1 0 0 0 -3 -3 -2 -1 -2 -6 -4

GFSGBSN_850_dewp_060.txt.gz
Dewpoint
7 3 1 -2 -2 -1 -1 0 3 3 3 3 3 3 2 1 3 3 -1 -1 -0 -2 -3 -5 -5 -3 -0 1 -0 -0 1 1 2 -0 3 6 7 5 2 4 7 8 6 6 4 5 5
7 7 4 -0 -2 -2 -1 -0 3 3 3 3 3 2 2 2 1 3 1 -1 -1 -4 -5 -5 -4 -5 0 -1 -2 -2 -3 0 1 3 3 6 7 4 1 3 6 6 6 6 6 6 5
7 7 7 3 -0 -2 -1 -1 3 3 3 2 2 2 2 2 2 -1 2 -1 -2 -2 -6 -6 -3 -3 1 -3 -2 -1 -2 -2 1 1 3 5 6 4 2 3 3 4 6 6 7 6 5
8 7 8 5 1 -1 -1 -1 3 3 3 2 2 2 2 2 2 -2 -1 2 -3 -3 -5 -4 -1 1 -1 -3 -1 0 1 -0 -0 2 3 4 6 5 2 3 4 4 5 7 6 6 6
8 8 8 7 3 -0 -1 -1 3 3 3 2 2 2 1 1 2 1 -2 1 -2 -4 -2 -1 0 1 -1 -2 0 1 1 2 1 2 3 5 4 5 5 3 5 5 3 4 6 5 6
9 9 8 7 5 2 0 -2 2 3 2 2 1 1 1 1 2 0 -3 -2 -5 -3 -1 -3 -1 1 -1 -2 1 1 2 1 2 3 3 4 3 5 3 3 5 4 3 2 4 7 6
9 9 8 8 7 3 1 -2 1 3 2 2 1 1 1 1 1 -0 -1 -3 -1 -0 -1 -2 -2 -2 -1 0 0 1 1 2 2 4 5 4 4 6 2 0 -2 -1 2 3 3 6 7
10 10 8 8 6 5 2 -2 -0 1 2 2 1 1 1 1 0 1 -0 -3 -4 -2 -0 -1 -2 -1 0 1 2 1 2 2 4 5 3 5 6 3 2 1 1 1 1 2 3 6 6
9 9 9 8 6 5 2 -1 -2 -0 1 2 1 1 1 1 -1 -0 -1 -3 -3 -2 1 1 1 2 2 3 2 2 3 3 4 5 3 4 5 4 3 2 3 2 2 4 3 7 5
9 10 8 8 7 5 1 -1 -5 -1 -0 2 1 1 1 1 0 -1 -1 -1 -2 -2 3 2 3 3 2 2 2 3 3 3 3 4 3 5 4 5 4 2 1 5 2 3 6 5 4
10 9 7 8 7 5 0 -2 -7 -7 -2 1 -1 1 1 -1 1 -0 0 -0 -0 -0 5 2 3 2 3 2 2 3 2 3 3 4 4 5 6 6 5 3 -0 3 1 2 3 1 2
10 9 8 7 7 4 0 -5 -7 -8 -9 -7 -7 -3 -7 -4 0 1 0 0 0 4 5 4 3 3 2 2 2 2 3 3 2 2 4 5 4 2 2 3 1 0 2 2 2 1 5
10 9 8 7 6 3 -0 -7 -8 -8 -13 -10 -4 -1 1 1 1 0 0 1 4 5 1 3 4 4 4 3 2 3 2 3 4 5 6 6 4 4 3 3 1 1 2 6 5 6 4
10 9 8 7 6 2 -2 -7 -8 -8 -12 -6 -0 1 1 0 -0 0 2 1 5 2 4 2 3 4 5 4 4 3 3 4 4 4 4 7 7 5 3 2 3 3 0 3 4 3 1
10 9 8 8 6 2 -3 -8 -8 -8 -10 -3 1 1 1 1 1 2 3 4 5 3 3 2 3 3 6 5 5 5 4 4 4 4 5 7 6 4 3 2 1 3 4 -2 2 0 3
10 9 9 7 5 1 -5 -8 -8 -8 -10 -2 2 2 1 2 2 3 3 3 4 -1 2 4 4 5 4 6 6 5 5 4 4 3 2 3 7 5 4 3 2 2 -0 3 5 6 3
10 9 8 7 4 -0 -7 -8 -8 -8 -10 -0 3 2 2 2 3 3 4 4 2 1 1 1 3 6 4 5 4 5 5 4 3 4 2 1 3 6 4 5 5 3 4 3 2 2 3
10 9 8 7 3 -2 -7 -8 -8 -8 -9 0 3 2 2 3 3 4 4 2 2 1 1 -0 2 2 4 4 4 3 5 5 4 2 3 1 4 7 7 4 3 2 2 2 3 5 3
10 9 8 6 2 -4 -8 -8 -8 -8 -8 1 3 2 2 3 4 3 1 1 1 1 0 -0 1 -1 -1 2 4 4 2 2 3 1 2 0 3 6 6 3 3 5 3 2 2 3 5
9 9 8 5 1 -6 -8 -8 -8 -8 -8 -2 1 2 2 3 3 1 2 2 2 1 1 -1 -0 -2 -1 1 0 3 3 1 2 2 1 0 1 3 3 3 2 4 3 3 3 6 3
9 9 8 3 -1 -7 -8 -8 -8 -8 -8 -3 -2 -0 0 2 0 1 2 1 3 3 1 0 0 0 -0 1 1 2 3 2 2 2 2 1 5 2 -0 2 3 3 3 3 5 3 4
9 8 7 2 -4 -8 -8 -8 -8 -8 -8 -8 -5 -2 -2 -4 -4 -0 0 1 2 1 2 2 2 2 -0 1 2 2 1 2 4 2 3 1 5 2 2 0 1 2 2 2 3 2 2
9 8 5 0 -6 -8 -8 -8 -8 -8 -8 -7 -7 -6 -5 -5 -3 -0 -2 -1 2 1 2 2 2 1 3 2 1 2 1 -1 -1 2 3 2 3 4 4 -0 -0 1 -0 0 1 2 2
8 7 4 -2 -7 -8 -8 -8 -8 -8 -9 -9 -8 -4 -6 -4 -4 -4 -5 -4 2 1 1 2 0 1 0 1 1 0 -1 -1 -1 -1 -1 1 1 2 3 0 3 -3 -5 -3 -1 -2 -2
8 6 2 -4 -7 -8 -8 -8 -8 -9 -9 -9 -8 -8 -6 -5 -5 -6 -6 -5 -5 0 0 0 1 -1 2 1 0 1 1 0 0 -0 -1 -2 -0 2 3 2 -1 -0 -0 -0 -0 1 -1
8 5 -1 -6 -7 -8 -8 -8 -8 -9 -10 -9 -8 -7 -7 -6 -4 -4 -6 -6 -6 -4 0 -0 -0 1 2 2 1 2 2 1 2 1 -1 -2 -2 0 1 2 1 -2 -1 -1 -2 2 -0
7 2 -4 -6 -8 -7 -8 -8 -8 -10 -9 -8 -8 -7 -6 -4 -3 -5 -5 -5 -5 -6 -4 -4 -5 0 3 3 3 2 2 -1 2 1 2 2 2 2 2 2 -1 -3 -2 -2 2 2 -1
6 1 -5 -7 -8 -7 -8 -7 -8 -8 -7 -7 -8 -8 -8 -3 -3 -5 -5 -4 -5 -6 -4 -6 -1 -0 2 3 3 3 2 0 0 -1 1 1 2 2 1 2 2 -2 -1 1 -1 -4 -4
4 -4 -6 -7 -7 -8 -8 -6 -11 -8 -7 -8 -8 -8 -8 -5 -3 -5 -5 -5 -5 -5 -5 -3 -1 -0 -1 2 2 1 1 2 1 1 -2 2 -0 0 1 0 -2 -3 -2 -2 -5 -6 -6

GFSGBSN_850_dewp_063.txt.gz
Dewpoint
7 7 7 7 4 -0 -1 -0 1 3 3 3 2 3 2 2 2 2 3 2 1 0 -3 -5 -5 -7 -0 -0 -2 1 0 1 2 3 3 3 6 7 5 2 6 7 6 4 5 5 4
8 8 7 7 6 2 0 -0 -1 2 3 3 2 2 2 2 2 2 2 3 -0 1 -3 -5 -6 -7 -0 -2 -2 -1 -0 -2 1 4 1 4 5 5 2 -0 5 6 7 6 5 6 5
9 8 8 8 7 4 0 0 -0 1 3 3 2 2 3 1 2 2 2 2 3 -0 0 -6 -6 1 0 -2 -2 -1 1 1 1 3 3 2 5 7 3 -1 0 4 7 8 6 7 4
10 9 9 9 7 6 1 0 0 1 3 3 2 2 2 1 1 2 2 0 2 0 -1 -3 -3 1 -1 -1 -1 -0 0 1 -1 3 1 5 4 5 6 -1 1 4 6 9 6 6 5
10 9 9 8 8 8 4 1 -0 -0 2 2 2 1 1 1 1 1 1 -1 2 -1 -2 -1 2 1 -2 -1 0 -1 0 0 1 3 2 4 4 5 3 2 4 5 6 9 8 4 4
9 9 9 9 9 8 5 2 -0 -1 0 2 2 1 1 1 1 1 1 -1 -3 -3 -0 1 0 0 -0 -3 -1 1 1 2 2 3 4 4 3 5 4 4 6 3 2 2 7 5 5
8 10 10 10 9 8 6 4 -0 -1 -1 1 2 1 1 1 1 1 0 3 3 2 1 -1 -3 -2 -2 -0 1 2 1 2 3 4 4 3 3 7 3 1 -3 -2 -1 -3 0 3 5
7 10 10 10 9 8 6 4 -1 -1 -4 1 1 1 1 1 1 1 1 2 -1 -0 0 -1 -0 -0 -0 1 2 1 3 2 3 5 4 4 5 4 1 -1 -2 -3 -1 0 -0 5 4
8 10 10 10 9 8 7 4 -1 -2 -7 0 1 1 1 1 1 1 2 -0 -3 -2 1 1 2 2 1 3 2 2 1 3 4 4 4 5 5 4 3 1 -0 -2 -0 2 3 3 4
7 10 10 10 8 8 7 4 -0 -5 -8 -7 -1 1 1 1 1 2 1 -1 -2 -2 4 2 3 2 2 3 3 3 3 4 3 5 2 3 4 4 6 0 -1 0 -3 -2 0 5 5
6 9 10 9 8 7 7 3 -1 -7 -8 -12 -9 -2 1 0 2 2 2 -0 -0 1 6 2 3 3 2 1 3 3 3 4 3 3 2 5 4 5 7 0 -2 0 -1 1 3 4 -0
5 9 10 10 8 7 6 3 -3 -8 -9 -15 -8 -2 -7 -6 2 2 0 0 2 3 5 4 2 2 0 1 3 3 3 2 2 3 3 5 4 5 4 0 -0 0 2 2 2 0 5
6 8 10 10 9 7 6 2 -5 -8 -9 -11 -2 0 1 2 2 -0 0 3 5 5 1 3 5 3 3 1 1 2 2 3 4 6 6 6 5 5 4 3 1 -1 2 5 4 6 4
8 8 10 10 9 7 6 1 -7 -8 -9 -7 0 1 0 -0 -0 0 3 2 6 3 2 1 3 4 5 4 3 1 2 3 3 1 6 8 8 3 1 1 3 0 -1 2 3 3 1
8 8 10 10 9 7 5 0 -8 -8 -9 -4 1 1 1 1 1 2 3 6 5 3 3 1 2 6 5 5 3 4 4 2 1 3 6 8 6 4 3 1 1 3 4 -1 2 -1 1
8 7 9 10 9 7 4 -2 -8 -9 -9 -2 3 3 3 1 2 2 4 3 4 1 2 3 3 5 7 5 5 6 4 3 3 2 2 5 8 5 3 2 1 2 -0 2 4 5 -0
7 7 9 10 9 8 3 -4 -8 -9 -10 -1 3 2 2 2 2 4 5 4 2 1 1 1 3 5 5 6 4 4 5 4 3 3 1 2 5 7 3 4 4 3 3 2 1 2 4
7 8 9 9 9 8 2 -7 -9 -9 -9 0 4 2 2 2 4 3 4 3 2 0 0 -0 2 2 3 3 3 3 6 5 3 2 3 1 4 7 7 3 3 1 1 0 2 4 1
7 8 9 9 9 7 0 -8 -9 -8 -9 2 2 1 1 2 4 3 2 2 2 1 -0 -1 1 0 -1 2 4 2 4 3 3 2 3 1 5 7 7 4 3 4 2 1 1 3 5
7 7 9 8 8 6 -2 -8 -9 -8 -8 0 2 2 2 3 2 1 2 2 2 1 -0 -1 -1 -1 -1 1 1 3 4 3 3 2 1 0 2 4 4 3 2 4 2 2 2 6 3
7 7 8 8 8 4 -5 -9 -8 -8 -8 -1 0 -1 1 2 1 -1 2 1 2 2 0 -0 -1 -0 -1 1 1 3 3 3 2 2 2 2 5 3 0 2 3 3 2 1 4 3 4
8 8 8 8 8 2 -7 -9 -8 -8 -8 -2 -4 -2 -1 -0 -1 -0 1 1 2 2 2 1 1 0 -1 1 2 2 2 2 2 2 2 1 5 2 4 0 1 2 1 1 1 1 2
7 8 8 8 6 -1 -8 -8 -8 -8 -8 -4 -9 -4 -3 -3 -2 -0 -1 1 2 2 2 2 2 1 2 2 1 1 0 -1 0 2 2 3 3 5 5 -0 -1 1 -1 -1 0 -0 0
6 8 7 7 4 -3 -8 -8 -9 -8 -8 -7 -8 -3 -5 -3 -2 -1 -3 -0 2 1 2 2 0 1 0 0 0 -0 -1 -1 -1 -1 -0 2 3 3 4 1 3 -3 -5 -4 -3 -2 -3
7 8 8 7 0 -4 -8 -9 -8 -8 -8 -8 -8 -5 -6 -4 -4 -4 -4 -3 1 1 1 1 1 -1 1 1 0 1 1 0 0 -1 -1 -2 0 3 4 1 -2 0 -1 -1 -0 2 -0
5 7 7 6 -4 -6 -7 -9 -8 -9 -9 -8 -8 -8 -5 -5 -4 -5 -5 -4 -1 2 1 0 -0 2 3 1 1 1 1 0 2 2 -1 -2 -2 -0 1 2 0 0 -2 -2 -2 2 -1
5 6 6 2 -5 -5 -6 -9 -8 -9 -10 -9 -8 -9 -4 -4 -4 -5 -5 -5 -5 -4 -0 -1 -1 1 3 1 2 0 0 -1 2 1 2 1 1 2 2 2 -1 -2 -2 -2 1 2 -3
3 6 6 1 -6 -6 -6 -8 -8 -9 -9 -8 -7 -7 -4 -4 -3 -3 -4 -5 -6 -5 -3 -4 -0 1 2 3 2 1 0 -1 -0 -1 -0 0 1 0 0 2 2 -2 -1 0 -1 -4 -4
3 6 5 -2 -5 -5 -6 -7 -9 -8 -7 -7 -8 -7 -5 -4 -2 -4 -5 -5 -4 -4 -4 -2 -0 -0 0 3 1 0 0 0 -0 1 -2 1 -0 0 -0 0 -2 -4 -3 -2 -4 -4 -3

GFSGBSN_850_dewp_066.txt.gz
Dewpoint
9 9 9 8 7 7 7 2 1 0 1 4 3 2 2 3 2 2 2 1 4 0 1 -2 -6 -7 -8 1 -1 1 -2 -1 -0 1 4 4 4 6 6 5 5 8 6 5 5 7 5
9 9 9 9 8 8 7 6 2 1 1 4 3 2 2 3 2 1 2 2 2 4 -1 1 -5 -7 2 -1 -2 -2 -1 -0 -1 2 3 2 3 4 4 4 4 6 6 5 7 7 8
9 9 9 9 9 9 8 7 3 1 1 3 3 2 1 2 1 1 1 2 -1 3 2 -1 -1 -4 1 -1 -2 -2 -1 0 0 1 3 2 2 4 6 3 2 5 8 7 7 8 6
8 8 9 9 9 9 8 7 4 2 1 3 3 2 2 1 1 1 1 2 1 1 3 -2 -2 0 0 -2 -2 -2 -1 -0 1 2 3 3 2 5 5 4 0 5 7 9 5 8 8
8 8 9 9 9 9 9 8 5 3 1 1 3 2 1 1 1 1 1 1 -2 1 -1 -2 1 1 -1 -1 -1 -2 -0 -0 -0 3 2 2 4 5 4 6 3 5 9 8 6 5 8
7 9 8 8 10 9 9 8 6 4 0 -1 2 2 2 0 1 1 1 -3 -2 -4 1 2 1 -0 0 -2 -1 -0 0 1 1 3 3 3 3 4 4 6 6 5 7 8 6 6 8
6 8 8 8 10 10 9 8 7 4 0 -2 -1 2 1 1 1 1 -0 2 3 2 2 0 -1 -1 -3 -1 1 1 1 2 2 3 4 3 4 5 4 5 1 2 4 8 7 6 8
6 7 8 8 9 10 10 8 7 5 0 -5 -5 1 1 1 1 1 1 2 -0 1 1 0 -1 -0 -0 1 1 1 2 2 3 3 3 4 4 3 4 4 0 0 1 2 6 6 6
8 7 8 7 8 10 10 8 6 4 -0 -7 -8 0 -0 0 1 1 1 2 -0 1 2 1 2 2 1 2 2 2 2 2 3 3 3 5 4 4 6 3 0 -2 -1 2 7 6 8
9 8 8 8 9 10 9 8 6 3 -2 -8 -9 -7 1 1 1 2 2 1 -2 0 4 3 2 2 2 2 3 3 1 3 3 4 5 5 4 5 5 5 -0 1 -1 2 4 5 7
8 9 8 8 8 10 9 8 6 2 -5 -9 -12 -9 -0 1 1 2 2 -0 -0 1 7 2 3 2 3 2 2 3 2 4 4 5 4 5 5 5 5 -0 -3 -0 -2 1 3 4 2
5 8 9 8 8 10 9 8 6 1 -7 -9 -10 -3 -5 -3 2 2 1 -0 2 4 4 4 2 1 1 1 2 2 4 4 2 3 4 5 4 5 6 1 1 1 2 3 3 4 5
4 6 9 8 8 9 9 8 6 -0 -8 -10 -3 0 1 3 3 1 1 2 5 6 1 3 4 2 2 4 2 1 2 4 4 5 6 5 5 4 5 3 2 2 3 6 6 5 5
3 5 7 9 8 9 8 8 5 -3 -9 -10 -0 0 -0 2 -0 0 3 4 5 2 3 1 3 4 4 3 1 0 1 3 2 4 6 7 6 5 3 2 3 4 1 5 4 5 4
4 3 6 9 8 9 9 7 4 -6 -9 -8 1 0 2 1 0 2 3 5 5 3 2 1 5 5 4 3 2 3 3 3 1 3 7 6 7 5 3 1 2 2 4 -0 3 -1 4
3 3 5 8 8 8 8 7 4 -7 -9 -5 2 3 3 1 2 2 4 4 3 1 2 2 4 5 6 4 4 4 3 3 2 1 2 4 6 4 3 2 1 4 0 3 4 4 1
2 3 3 5 8 9 8 7 2 -8 -9 -1 3 3 3 1 2 3 5 5 2 1 1 2 3 4 5 5 4 3 4 4 2 2 2 4 4 6 4 4 3 3 6 3 2 3 6
1 2 3 5 8 8 8 6 -0 -9 -9 -0 2 3 3 2 3 2 5 2 1 0 0 0 1 2 4 4 3 4 5 4 3 1 2 1 5 7 6 4 2 4 1 1 5 5 3
0 2 5 6 8 8 8 7 -3 -9 -9 1 2 2 3 2 3 3 2 2 1 0 -0 -1 1 0 -1 2 4 4 4 3 2 2 2 1 5 6 7 4 2 5 3 2 1 4 5
-0 2 4 7 8 8 8 5 -5 -8 -7 1 1 2 3 3 2 2 1 2 2 1 -0 -1 -1 -1 -0 1 1 3 3 3 3 2 1 1 4 5 6 4 3 5 3 2 3 5 4
-0 1 5 8 8 7 7 3 -6 -8 -7 1 2 1 0 2 1 1 1 1 1 2 0 -1 -0 -0 -0 1 2 3 3 4 3 2 2 2 5 2 1 2 3 3 3 2 3 3 4
-1 0 6 8 8 8 7 1 -7 -8 -6 -1 -1 -0 1 -0 -1 0 1 2 0 2 2 0 1 -0 -1 2 2 2 2 2 3 2 3 1 4 2 2 0 1 2 1 1 2 2 2
-1 2 2 7 7 7 5 -3 -7 -8 -8 -2 -3 -3 -2 -0 -0 -0 0 1 2 2 2 1 1 1 2 2 0 -0 -0 -1 1 2 3 3 2 3 4 -0 -1 1 0 1 1 1 0
-0 1 4 6 8 7 2 -5 -8 -8 -8 -5 -7 -4 -2 -1 -1 -1 -1 1 2 1 1 1 0 1 1 0 0 -0 -1 -1 -1 -1 0 3 3 3 3 1 3 -2 -5 -3 -2 -1 -2
-0 1 3 5 7 5 -1 -5 -8 -8 -7 -6 -8 -4 -5 -2 -2 -3 -2 1 1 1 1 1 0 -0 1 1 1 2 1 1 0 -1 -1 -1 2 3 4 3 -1 1 -1 -1 0 3 -0
2 2 3 5 6 3 -1 -5 -8 -8 -7 -7 -8 -6 -5 -4 -3 -4 -3 1 2 2 2 1 -0 2 3 3 1 1 3 1 2 2 -1 -1 -1 1 1 2 2 1 -2 -2 -2 4 -2
-1 4 4 4 4 1 -0 -6 -8 -8 -8 -7 -8 -5 -4 -3 -4 -4 -4 -3 -5 -1 1 -0 -0 1 2 3 3 1 2 -1 2 2 2 2 1 2 2 2 1 -1 -2 -2 2 1 -4
-0 0 2 4 2 -1 -2 -5 -8 -8 -8 -7 -7 -6 -5 -3 -3 -3 -4 -5 -5 -5 -1 -3 0 1 3 4 3 3 2 -1 0 -0 0 2 2 2 1 3 1 -3 -1 1 -2 -4 -3
1 1 2 2 -0 -1 -0 -4 -8 -9 -8 -7 -7 -5 -6 -4 -3 -4 -5 -4 -4 -3 -3 -1 -0 -0 1 2 1 0 1 0 0 1 -2 1 1 1 1 1 -3 -5 -2 -3 -4 -4 -3

GFSGBSN_850_dewp_069.txt.gz
Dewpoint
9 9 9 9 9 9 9 9 8 6 3 2 4 4 3 2 2 2 2 1 1 1 4 1 1 -6 -9 1 1 0 -1 -1 -1 1 1 3 4 4 5 5 5 7 7 6 5 6 7
7 8 8 9 9 9 9 9 8 7 4 3 4 3 3 3 2 2 1 1 2 -2 3 3 -0 -2 -3 2 -3 -2 -2 -3 -1 1 2 4 3 4 5 5 5 5 6 6 7 7 9
2 4 7 8 9 9 9 9 9 8 5 3 3 4 3 2 2 1 1 1 2 -2 2 3 -1 0 -0 -3 -3 -2 -2 -2 -0 -0 2 2 1 3 4 4 4 4 7 7 8 7 7
7 1 2 7 8 9 9 9 9 8 6 4 1 3 2 2 1 1 1 1 2 -1 0 3 -0 -1 -0 -3 -1 -2 -3 -1 -1 0 2 2 2 3 4 4 4 4 6 9 8 9 8
9 7 3 6 9 8 8 9 9 9 7 4 0 3 2 2 1 1 1 1 -3 -3 0 -1 -2 1 1 -1 -1 -1 -1 -2 0 0 2 1 3 5 5 5 6 6 7 8 8 8 8
8 9 8 5 8 9 8 10 9 9 7 5 -0 -0 1 2 1 1 0 -3 -3 -3 0 -0 1 2 -1 -2 -1 -1 -1 1 1 1 2 2 2 4 4 6 7 6 7 7 8 6 7
7 8 8 7 7 9 8 9 10 9 8 4 -0 -5 -1 1 1 1 -0 -0 2 2 3 0 0 -1 -1 -1 -1 0 1 1 1 2 3 2 4 5 4 4 5 3 4 7 5 5 6
5 6 8 8 8 8 9 8 9 9 7 3 -2 -7 -5 -2 -0 1 0 2 1 1 1 -1 0 -0 -0 0 2 1 1 2 2 3 3 3 4 3 3 3 4 3 7 7 6 6 5
1 5 6 8 9 9 9 8 9 9 6 2 -5 -8 -10 -3 1 1 -1 2 1 -1 2 1 1 2 2 2 2 2 2 2 2 3 4 5 4 3 4 5 6 4 5 7 6 6 6
-6 -2 4 5 8 9 9 8 8 8 6 1 -8 -9 -11 -3 1 1 1 1 -0 -1 3 3 3 2 2 3 3 2 1 3 3 4 3 5 4 5 5 6 4 3 0 4 7 8 9
0 -1 -0 4 5 8 9 9 8 8 7 -1 -8 -10 -6 -2 2 2 1 0 -1 1 1 2 3 0 2 2 2 3 2 2 3 4 5 5 5 6 6 5 3 2 2 5 7 7 5
0 1 1 0 3 6 8 8 8 7 6 -4 -9 -5 -6 -3 2 2 1 -0 1 3 -2 4 2 2 2 2 3 2 3 3 3 4 4 4 4 5 5 5 0 3 3 4 4 4 5
1 0 -3 1 3 5 5 8 8 8 5 -4 -7 -1 -0 2 2 1 1 2 4 4 0 4 3 2 3 4 3 3 4 4 4 4 6 5 5 4 5 3 2 2 3 6 6 5 5
0 0 1 2 4 4 5 7 8 8 5 -7 -1 -0 1 3 2 0 2 3 3 0 3 3 3 3 4 3 1 1 2 3 2 4 5 4 5 6 4 2 3 2 1 4 5 5 4
-0 0 1 1 3 4 6 8 8 7 -2 -7 0 -0 1 0 -0 1 3 3 3 3 2 4 5 4 3 3 3 3 3 3 2 4 6 7 7 4 4 2 2 3 2 -1 1 -0 3
-1 0 -0 -1 1 3 5 8 7 6 -1 -6 1 1 2 0 1 2 3 3 3 1 2 3 5 5 5 2 4 5 4 3 3 2 4 4 6 5 3 2 1 2 0 1 2 1 2
-2 -1 0 -1 1 3 3 6 7 3 0 -1 2 3 3 2 2 3 4 3 2 1 1 2 3 4 3 4 4 4 4 3 2 1 2 3 3 4 3 5 4 4 4 3 2 3 5
-3 -2 1 -1 0 3 3 4 7 2 1 2 3 2 3 2 3 3 4 1 1 1 0 1 2 3 5 4 3 4 5 4 2 2 2 2 4 5 6 4 2 4 3 3 5 4 3
-3 -3 -0 -1 2 2 4 5 7 4 2 2 2 3 3 3 2 3 2 2 2 1 0 0 2 -0 2 2 4 4 4 3 2 2 3 2 3 5 4 2 2 5 3 3 3 3 4
-5 -3 -1 -0 2 2 5 5 7 0 -4 1 1 2 3 3 2 2 2 3 3 1 -0 -1 -0 -1 -0 1 2 4 3 3 3 2 1 1 3 2 3 2 3 5 4 3 3 2 4
-5 -2 -3 -0 2 4 5 6 6 -2 -3 2 1 1 1 3 2 2 1 2 3 2 1 -1 -0 -0 0 3 3 4 2 4 3 2 2 2 3 0 1 2 3 3 3 4 3 3 3
-3 -1 -1 0 1 3 5 6 1 -1 1 2 1 1 0 0 -0 1 1 2 2 3 2 0 1 1 2 3 2 2 2 3 4 2 3 1 2 1 1 0 1 2 1 1 2 2 3
-2 -2 -1 0 2 3 5 5 4 -4 -4 2 -1 -1 -1 0 -0 1 2 1 3 2 2 1 1 2 2 1 0 -0 -1 0 1 2 3 2 1 1 2 -1 -1 0 -0 1 1 1 1
-2 -2 -1 -0 1 3 4 3 1 -3 -3 -2 -3 -2 -2 0 -1 -0 1 2 2 1 2 1 0 1 1 -0 -1 -1 -1 -1 -1 -1 1 3 2 1 1 0 0 -2 -4 -3 0 1 -0
-1 -2 -0 2 2 3 4 2 -2 -5 -4 -4 -5 -3 -4 -1 -2 0 1 1 1 1 1 1 -0 0 0 1 1 1 1 0 0 -1 -1 0 2 2 2 2 -0 0 -1 -1 1 2 -1
-2 -2 -0 3 3 3 2 1 -2 -5 -5 -5 -7 -5 -4 -3 -4 -3 1 1 1 1 1 0 1 1 2 3 2 2 3 1 3 2 -1 -1 -1 0 1 1 2 0 -2 -2 -3 3 -2
-3 -1 -0 -0 3 3 2 0 -3 -5 -6 -4 -7 -5 -4 -4 -3 -3 -2 0 -1 0 0 0 0 1 2 2 2 1 1 -1 2 2 2 1 1 1 1 1 1 -1 -2 -2 -1 -1 -3
-2 -1 0 1 2 2 1 -0 -4 -6 -6 -5 -7 -4 -5 -3 -3 -4 -4 -5 -4 -3 0 -2 -0 1 2 3 2 2 1 -1 0 -0 1 1 1 2 1 3 2 -3 -1 1 -2 -3 -3
-3 -0 1 2 2 2 1 -2 -5 -6 -6 -5 -6 -4 -6 -5 -3 -3 -3 -4 -3 -3 -2 -1 -0 0 1 1 1 0 0 -0 -0 1 -2 2 -0 1 -0 0 -4 -3 -3 -3 -3 -2 -2

GFSGBSN_850_dewp_072.txt.gz
Dewpoint
8 6 4 5 7 8 9 9 9 9 8 7 4 3 4 3 2 1 1 1 1 3 -0 3 3 1 -2 -0 -4 -5 -0 -1 -4 -1 1 1 2 3 4 4 5 6 6 6 5 6 7
9 9 8 5 2 4 9 9 9 9 9 8 5 4 4 4 2 1 1 1 1 3 -1 2 4 1 0 1 -3 -1 -2 -2 -2 -1 1 1 3 2 3 5 5 5 5 6 6 6 7
8 8 8 9 7 3 7 9 9 9 9 8 7 4 4 3 2 1 1 1 2 2 -1 2 4 0 1 -5 -5 -1 -1 -1 -2 -1 1 1 2 3 4 4 4 4 6 6 7 7 7
6 7 8 8 9 7 7 8 9 9 9 8 7 4 2 2 2 1 1 1 1 0 -2 1 2 -1 -1 -2 -2 -2 -2 -2 -1 -1 0 2 2 3 3 4 4 5 6 8 6 7 7
1 5 6 7 8 8 6 8 9 9 9 8 7 4 1 -1 2 1 1 1 -1 -4 -1 2 -2 0 1 -2 -1 -1 -1 -1 -2 0 1 1 2 4 4 5 6 6 7 7 8 7 9
2 -0 3 6 6 8 8 8 8 9 9 8 8 6 -1 -1 2 1 -0 -1 -2 -2 -0 -3 1 2 -1 -1 -1 -1 -1 0 1 1 2 2 2 4 4 5 7 6 7 6 8 8 7
1 0 -13 -2 5 6 7 8 8 9 9 8 8 5 -3 -6 1 -0 0 1 2 2 2 -0 -0 -0 -1 -1 -1 -0 0 0 2 1 2 2 3 4 4 4 5 5 6 6 7 7 7
1 1 1 -4 -3 3 5 7 8 9 9 8 7 3 -7 -9 -2 -1 1 2 0 0 -0 -3 -1 1 -0 0 1 1 1 1 2 2 2 2 4 1 4 4 5 5 5 7 6 7 6
2 1 1 1 1 2 2 5 7 8 9 8 7 1 -8 -10 -1 1 -1 1 1 -0 1 1 0 1 2 2 3 2 1 1 2 2 2 4 3 1 4 4 6 6 5 7 7 6 7
1 1 1 2 1 0 -2 0 6 7 9 8 6 -3 -8 -8 -2 1 1 1 -0 -1 -2 3 3 2 2 2 3 2 2 2 3 3 3 4 4 4 4 5 5 7 5 5 7 8 9
-0 0 0 0 0 1 -5 -1 2 6 8 8 5 -7 -9 -2 1 2 1 0 -1 0 -1 2 2 0 2 2 2 3 3 2 4 3 3 5 5 5 6 6 5 2 4 5 6 7 7
-2 -0 1 1 0 1 0 1 4 6 8 7 -2 -8 -4 -1 0 2 1 -0 0 -1 -2 3 2 2 2 3 3 2 3 3 3 4 4 4 4 5 5 4 3 2 5 6 5 6 8
-1 -1 -1 0 1 0 0 3 4 4 6 7 -2 -3 -3 -1 1 1 0 1 -1 -2 -2 4 3 2 3 3 3 3 4 4 5 5 5 5 5 5 5 5 4 3 4 8 8 7 6
-2 -1 -2 -1 -1 1 -1 1 3 5 5 5 -2 -1 1 2 0 1 2 2 -3 -1 3 3 3 3 4 3 2 2 2 3 3 4 6 6 7 6 4 3 6 3 1 4 7 6 4
-2 -2 -2 -1 -1 1 -0 1 3 5 5 -0 -0 1 2 2 1 1 2 2 -1 0 2 5 4 3 2 2 3 2 3 3 3 4 5 5 7 4 4 2 1 3 4 -1 1 1 3
-3 -2 -2 -1 -1 -0 -2 1 5 4 5 -2 0 1 1 -0 0 2 2 2 2 1 2 4 6 5 3 2 3 4 4 3 3 2 3 4 5 5 4 1 1 1 -0 1 1 3 4
-3 -3 -3 -2 -2 0 -2 1 2 3 3 0 1 2 3 1 2 3 1 1 2 1 1 3 3 3 3 3 3 4 4 2 2 1 2 2 3 3 3 5 5 3 3 2 1 2 3
-1 -2 -2 -2 -3 -1 -0 1 1 3 1 3 3 3 3 2 3 3 3 2 1 1 0 1 2 3 2 3 4 4 5 4 3 1 3 3 3 5 5 3 2 4 4 2 1 2 2
-1 -2 -2 -3 -3 -2 -0 1 2 3 1 3 3 3 3 2 3 3 2 1 2 1 1 1 3 1 3 4 4 3 3 3 2 2 3 2 2 1 2 1 1 4 3 2 2 2 3
-1 -1 -2 -3 -3 -1 -0 3 2 3 2 3 1 3 3 3 1 2 3 3 3 1 -0 -1 -0 -1 0 2 2 3 3 3 3 2 1 1 3 1 2 1 2 4 4 3 2 2 3
-2 -2 -1 -3 -0 -1 1 3 4 3 2 3 0 1 1 2 2 1 1 2 3 2 1 -1 -0 -0 1 3 3 3 3 4 3 2 1 2 2 0 1 1 3 3 3 4 2 2 2
-2 -2 -2 -1 -1 -1 0 2 4 4 3 3 2 0 1 -0 0 1 2 2 2 3 1 1 1 2 1 2 2 3 3 3 3 2 2 1 1 -0 1 0 0 2 1 2 3 2 2
-1 -3 -2 -1 -1 0 2 3 4 3 3 2 1 0 -1 0 -0 2 1 1 2 2 1 1 1 2 2 1 -0 0 0 1 1 2 3 2 1 0 2 -1 -1 1 -1 1 1 1 2
-1 -2 -1 -1 0 2 2 3 4 2 3 -0 -1 -0 -1 1 0 1 1 2 2 1 2 0 1 0 0 -0 -0 -1 -1 -1 -1 -0 1 1 1 0 -0 -1 1 -2 -4 -2 1 1 -0
-1 -1 -2 -0 2 2 3 3 2 2 2 -1 -2 -3 -3 -1 -1 1 1 1 1 1 1 0 -0 0 -0 0 0 1 1 0 0 -1 -1 0 2 2 1 0 -1 -1 -1 -1 1 2 -2
-1 -2 -1 -0 1 3 3 3 2 1 1 -2 -3 -4 -3 -3 -3 -1 1 1 1 1 1 0 1 1 1 2 1 2 3 1 3 1 -1 -1 -0 0 1 2 3 -1 -2 -2 -2 2 -4
-2 -4 -2 1 1 3 3 2 1 1 2 -1 -3 -4 -4 -4 -3 -2 -0 -0 1 0 0 0 1 2 2 2 2 1 1 -0 2 2 2 1 1 1 1 1 0 -1 -2 -2 -1 -2 -3
-2 -3 -0 1 2 2 2 1 0 -0 1 -1 -4 -4 -5 -3 -3 -3 -3 -3 -1 -0 0 -1 0 1 1 2 1 1 1 -1 0 -1 0 1 1 1 1 3 3 -3 -1 -0 -3 -3 -3
-2 -2 0 1 2 1 1 1 -0 -1 -1 -2 -5 -4 -5 -4 -3 -3 -3 -3 -2 -2 -1 -1 -1 1 1 1 0 -0 1 -1 -1 1 -2 1 -0 1 -0 1 -3 -3 -3 -3 -3 -3 -3

GFSGBSN_850_dewp_075.txt.gz
Dewpoint
7 7 8 8 8 8 6 7 5 8 9 9 9 8 5 5 4 3 1 2 1 1 2 0 3 4 1 -1 -5 -9 -1 -1 -3 -3 -2 1 2 2 2 3 3 5 5 4 6 5 6
6 6 6 7 7 8 8 7 6 7 9 9 9 8 7 5 3 1 2 1 2 2 2 0 3 4 2 1 -5 -2 -0 -2 -2 -2 -2 0 2 3 2 1 4 3 4 4 5 6 6
1 2 3 5 6 7 8 8 7 7 8 9 9 9 7 5 3 2 -0 1 2 1 2 -0 2 4 2 -1 -6 -1 -1 -1 -1 -2 -0 -0 1 2 2 2 1 4 6 4 5 7 7
2 1 0 1 2 5 6 7 8 7 7 8 9 8 7 6 0 -5 1 1 1 1 1 -1 3 2 -1 -3 -2 -3 -2 -2 -2 -2 -1 1 2 2 3 3 4 5 5 5 4 7 6
2 2 2 -2 -0 0 3 5 6 8 7 8 9 8 7 5 -1 -4 1 0 -1 -2 1 1 3 -0 -0 -2 -2 -2 -1 -1 -1 -1 -0 2 1 3 3 3 5 4 7 6 7 6 8
1 2 2 2 1 0 2 4 4 6 7 8 9 8 7 5 -3 -2 -0 -2 -2 -2 0 1 1 2 -0 -2 -1 -1 -1 0 0 0 1 2 2 2 4 4 6 5 6 5 7 7 7
0 1 1 2 2 2 3 3 3 3 6 8 8 9 7 4 -4 -3 -1 -0 2 1 1 0 1 1 -1 -0 0 -0 1 1 0 2 2 2 3 4 4 4 4 3 5 5 7 7 8
-0 1 1 1 1 2 2 1 -3 -3 1 7 7 8 7 1 -4 -3 -2 0 0 0 0 -0 0 1 0 1 1 1 2 1 2 2 1 2 3 1 3 4 5 4 6 6 6 6 7
0 -0 0 1 1 2 1 1 -1 -5 -1 5 7 7 6 -4 -4 -1 -1 -1 0 -0 0 -0 1 0 1 1 2 2 1 1 1 1 1 3 2 1 4 4 6 6 5 7 7 5 5
-0 -1 -1 -1 -1 -1 0 1 0 -3 2 4 6 7 4 -4 -2 -0 -1 1 0 -1 -3 1 2 2 2 2 3 2 1 2 3 3 2 4 2 2 4 4 4 5 4 6 7 7 9
-2 -2 -0 -1 0 0 -2 -1 -0 -1 -1 5 6 7 1 -5 0 1 0 1 -1 -0 -2 -1 2 1 3 3 2 3 3 2 2 3 3 4 5 5 3 4 4 4 4 5 5 6 7
-1 -1 -2 -1 -1 -1 0 -0 -0 -1 -1 3 6 5 -2 -2 1 1 1 -0 -1 -2 -3 3 2 2 3 2 3 3 3 3 2 3 3 4 4 3 3 4 4 4 5 6 6 6 8
-2 -2 -2 -3 -1 -2 -0 0 -0 0 0 3 4 3 0 -2 -0 1 1 0 -0 -2 -3 4 3 2 3 3 3 3 4 4 6 5 5 6 6 5 4 6 5 5 6 8 8 8 8
-1 -2 -2 -2 -2 -2 -1 -0 1 -0 2 3 4 2 1 -0 1 1 1 1 -2 -3 2 2 2 3 3 2 2 3 2 5 3 5 6 6 7 5 4 4 5 4 2 7 8 7 5
-2 -2 -2 -2 -2 -2 -1 -0 -0 0 2 3 3 2 1 3 2 1 1 3 -1 -1 3 4 3 2 0 1 3 2 4 4 4 4 6 6 7 4 4 2 2 3 3 -1 2 1 5
-2 -2 -2 -1 -2 -2 -2 -0 -0 0 1 3 2 2 2 2 1 2 1 1 2 0 4 3 4 2 2 2 2 3 3 2 4 2 2 4 6 3 3 1 1 1 -1 2 2 5 4
-1 -1 -1 -1 -1 -2 -2 -1 -0 0 2 3 2 2 2 3 1 3 2 0 1 1 2 4 3 4 3 2 3 4 4 2 3 2 2 1 2 3 2 5 5 2 2 2 2 2 4
-1 -1 -1 -1 -2 -3 -3 -1 -0 0 2 2 2 3 2 2 3 2 0 2 0 1 1 1 2 1 1 2 3 4 4 4 3 2 4 3 2 5 5 3 3 3 3 1 1 2 1
-1 -1 -2 -1 -3 -3 -2 -1 -1 1 2 2 2 2 2 3 2 2 1 0 1 1 1 1 3 2 2 3 4 3 3 3 2 2 2 1 2 1 1 0 0 4 3 2 1 1 2
-1 -1 -1 -1 -2 -2 -0 -0 -0 1 1 2 2 2 3 3 2 0 2 2 3 1 -0 -1 0 -1 2 2 2 3 3 3 3 2 2 1 2 0 2 1 2 4 4 2 1 1 3
-1 -1 -1 -0 -1 -0 -1 -0 0 2 2 2 1 2 1 2 2 2 1 2 3 2 0 -1 -0 -0 0 4 3 3 3 3 2 2 1 0 2 -0 1 1 2 3 3 3 2 1 1
-1 -1 -1 -1 -1 -1 -0 0 1 2 2 3 1 1 1 -0 0 1 2 3 2 3 1 1 1 1 0 2 1 2 3 3 3 1 2 0 1 -0 0 -1 -1 2 1 3 3 2 2
-1 -1 -1 -1 -1 -0 1 1 3 2 2 2 2 2 -0 0 -0 2 2 2 2 1 1 1 1 1 1 1 -0 0 0 1 1 2 2 1 0 -0 1 -1 -2 0 -1 1 2 2 2
-1 -1 -1 -0 -1 2 2 1 0 2 2 2 2 0 -1 1 -0 1 1 2 2 1 2 0 0 0 0 -0 -1 -1 -1 -1 -0 0 1 1 1 -1 -1 -1 1 -2 -4 -3 1 1 1
-1 -1 -0 -1 1 2 1 2 3 2 2 2 0 -2 -2 -0 -0 1 1 2 1 1 1 -0 -0 -0 -0 -1 0 1 1 0 0 -1 -0 -0 1 2 0 -0 -1 -1 -2 1 1 1 -2
-2 -1 -2 1 2 2 3 3 3 3 1 -2 -3 -3 -2 -1 -2 -1 0 1 1 1 0 0 1 1 1 0 1 1 2 1 2 1 -1 -1 -1 0 1 2 3 -2 -2 -2 -2 1 -3
-1 -1 -1 1 2 2 3 3 2 2 1 -0 -3 -4 -3 -3 -2 -1 -0 1 0 -0 -0 0 1 2 1 1 2 1 1 -0 2 2 2 2 1 3 1 1 -0 -3 -2 -3 0 -1 -3
-2 -2 -1 2 2 2 2 2 2 2 1 -1 -3 -4 -4 -3 -2 -3 -3 -2 -0 -0 0 -0 0 0 1 1 1 1 0 -1 -0 -1 0 1 1 1 1 3 2 -3 -1 -1 -3 -3 -3
-2 -2 -0 1 2 1 1 1 1 1 1 1 -3 -4 -4 -3 -2 -2 -2 -2 -1 -1 -1 -0 -1 0 0 0 0 -0 1 -1 -1 1 -2 1 -1 0 -0 0 -3 -3 -2 -3 -3 -3 -3

GFSGBSN_850_dewp_078.txt.gz
Dewpoint
2 2 3 4 4 5 5 7 8 8 7 7 8 9 9 8 7 6 4 2 1 2 2 2 1 2 4 1 -0 -3 3 3 -1 -3 -2 -1 2 3 3 2 3 4 3 4 3 3 5
3 2 3 3 2 3 3 5 6 7 7 8 7 7 9 8 7 6 2 2 0 2 2 2 0 3 4 1 -3 -5 -7 -0 -2 -2 -2 -1 1 2 3 2 2 2 3 3 3 4 4
2 2 3 2 2 3 2 4 4 6 6 7 7 6 8 7 8 6 1 1 0 2 2 2 -1 3 3 1 -4 -3 -1 -2 -1 -1 -1 -1 -0 2 2 2 1 1 3 4 3 3 6
1 1 2 2 2 2 3 3 3 3 4 6 7 7 7 8 8 5 -0 -1 1 1 2 1 -1 3 2 -2 -2 -4 -1 -2 -2 -2 -1 -0 1 1 2 2 2 3 2 5 4 3 6
1 1 1 1 1 1 2 2 2 2 3 1 5 7 8 8 7 4 -2 0 -0 -1 1 1 2 3 -1 -1 -2 -2 -1 -1 -1 -2 -1 0 2 2 2 3 4 2 4 4 4 3 5
1 1 1 1 1 1 2 2 2 1 1 -1 -1 7 7 8 6 3 -2 -2 -1 -2 2 3 2 1 -1 -2 -1 -1 -1 -0 0 0 0 2 2 3 3 4 4 3 4 6 5 6 6
0 0 1 0 -0 1 1 1 2 1 0 -4 -2 5 6 7 6 2 -1 -3 2 1 1 -3 -2 1 -0 -0 0 0 0 1 1 1 2 2 3 3 2 3 3 3 3 5 5 6 7
-0 -0 -1 -0 1 0 1 1 1 0 2 -0 -1 4 6 7 5 -0 -1 -0 1 0 1 -1 -1 1 0 0 1 1 2 1 2 2 1 2 3 1 1 3 4 4 4 6 6 6 7
-1 -1 -1 -1 -1 0 0 0 1 1 -2 0 -3 4 6 5 3 -0 -1 -2 -0 0 -1 -1 0 0 1 1 2 1 2 1 1 2 1 2 1 1 2 3 5 5 4 6 6 6 5
-0 -1 -1 -1 -1 -2 -1 -1 -0 1 -0 -2 0 3 4 4 2 -1 0 -2 -0 -0 -2 1 2 2 2 2 3 2 2 2 2 2 1 2 0 3 4 4 4 6 5 6 6 6 8
-1 -1 -1 -1 -2 -2 -3 -2 -0 -1 -2 -3 -1 1 4 4 -0 -1 -0 0 -0 0 -2 -2 2 2 2 3 2 3 3 2 2 3 3 4 2 3 4 4 3 6 5 5 5 6 7
-1 -1 -1 -1 -1 -1 -2 -2 -1 -1 -1 0 -1 1 4 2 0 -0 1 0 -1 -2 -3 3 2 3 3 3 3 3 3 3 2 3 2 3 3 3 1 3 5 5 5 5 6 6 7
-2 -1 -1 -1 -1 -1 -2 -2 -1 -1 -1 -1 0 1 3 2 1 1 1 -0 1 -1 -4 4 3 2 2 3 3 3 4 4 5 5 5 5 5 4 4 5 5 5 5 7 7 7 8
-2 -2 -1 -1 -1 -1 -1 -1 -1 -1 -1 -1 0 1 2 1 1 2 1 -0 0 -3 2 2 2 2 3 2 2 3 4 5 4 5 6 5 5 5 4 5 6 5 5 7 8 7 7
-1 -2 -1 -1 -1 -1 -2 -1 -1 -1 -1 0 0 2 2 1 1 2 2 0 -2 -1 3 3 2 1 -0 1 3 2 4 5 4 4 5 6 7 5 5 3 2 3 5 1 3 2 5
-1 -1 -1 -0 -1 -0 -1 -1 -1 -1 -0 2 2 2 2 2 2 1 2 1 1 -0 3 2 2 1 1 1 2 2 2 2 4 3 4 4 7 4 2 1 1 -0 -1 2 3 6 5
-2 -1 -1 -0 -0 -0 -2 -2 -1 -0 -0 1 2 1 1 2 2 2 3 -0 1 1 3 3 3 3 2 2 3 3 3 1 3 3 1 1 3 4 2 4 5 2 2 1 1 2 4
-1 -1 -0 -1 -0 -1 -1 -2 -1 0 0 1 1 2 2 1 3 2 2 0 -0 1 1 2 1 1 1 2 2 4 4 4 2 2 3 2 2 6 5 2 2 3 3 -1 2 2 1
-1 -1 -1 -1 -1 -0 -0 -1 1 -1 1 2 1 2 2 2 3 3 1 1 1 1 1 2 3 1 0 2 4 3 3 3 2 2 2 1 1 0 1 -0 1 3 3 1 0 -0 2
-1 -1 -1 -0 -0 -1 -0 -0 -1 0 1 2 1 2 2 2 2 -0 1 1 3 0 -0 -1 0 1 2 3 2 3 3 3 2 2 2 1 1 0 1 0 2 4 3 1 0 -0 2
-1 -1 -1 -1 -0 -0 -0 0 0 1 1 2 1 2 2 3 3 1 1 1 2 2 -0 -1 -0 0 1 3 3 3 3 2 2 2 1 -0 2 -0 1 1 2 3 3 3 2 1 0
-0 -1 -0 -0 -0 1 0 0 0 1 2 2 1 1 1 -1 0 1 2 2 2 2 0 1 1 1 0 1 0 3 2 2 3 1 1 -0 1 -1 0 -1 -1 2 1 3 2 2 1
-1 -1 -0 -0 0 1 2 2 2 2 1 2 2 1 -1 -0 -0 1 2 2 2 1 1 0 0 1 1 1 -0 0 1 1 1 2 2 0 -0 -1 1 -1 -1 0 -1 1 2 2 1
-2 -1 -1 0 3 3 1 1 1 2 2 2 2 0 -1 0 -0 1 1 1 2 1 1 0 -0 0 0 -1 -1 -1 -1 -1 -0 -0 -0 0 0 -1 -1 -1 0 -3 -4 -3 0 0 1
-1 -1 0 2 2 2 1 1 1 2 2 2 2 -0 -1 -0 -1 1 2 2 1 0 0 -0 0 0 -0 -1 -0 1 0 -1 -0 -1 0 -1 0 1 0 -0 -2 -1 -1 0 1 1 -1
-1 -2 1 2 3 3 3 3 3 3 2 2 -1 -3 -2 -1 -1 -2 1 1 1 0 -0 1 1 1 1 -0 -0 1 2 1 2 1 -2 -1 -1 0 1 2 3 -2 -2 -2 -2 0 -3
-1 -2 0 2 2 2 2 2 2 2 1 -2 -4 -4 -3 -2 -2 -1 -0 0 -0 -0 -0 0 1 1 1 0 1 1 0 -1 1 2 2 1 1 3 2 1 -0 -3 -2 -3 0 -2 -4
-1 -2 1 2 2 2 3 2 2 1 -1 -1 -4 -5 -3 -2 -2 -2 -2 -1 -0 -0 0 0 0 0 0 1 1 1 -0 -1 -0 -1 0 1 0 1 1 2 1 -3 -2 -2 -3 -3 -3
-1 -1 1 2 2 1 1 2 3 2 1 -2 -5 -3 -2 -1 -2 -2 -2 -1 -1 -1 -0 -0 -1 -0 -0 0 -0 -0 0 -2 -2 0 -2 0 -1 -0 -0 -1 -3 -3 -2 -3 -3 -3 -3

GFSGBSN_850_dewp_081.txt.gz
Dewpoint
2 2 3 3 2 3 3 3 3 4 5 6 6 7 7 7 8 8 7 6 2 -0 2 2 2 1 3 3 1 -0 -1 3 1 -3 -4 -4 -2 2 3 2 2 3 2 1 3 4 3
2 2 2 2 3 2 3 2 2 2 3 4 5 6 7 7 8 8 7 6 -0 -1 2 2 2 1 3 2 -0 -4 -7 3 1 -2 -2 -2 -1 1 2 2 2 1 2 1 1 1 2
1 1 1 1 1 2 2 2 2 2 2 3 3 4 5 6 8 8 7 5 -1 -0 2 2 2 1 3 1 1 -5 -2 -3 -1 -2 -1 -1 -1 -0 1 0 1 1 2 0 0 3 1
1 1 1 1 1 1 1 1 2 2 2 3 3 2 5 6 7 8 6 4 -2 1 1 2 0 1 2 1 -3 -3 -3 -1 -2 -2 -1 -1 -1 1 1 0 0 1 2 2 -2 1 1
0 1 0 1 0 0 1 1 1 2 1 2 3 -3 3 6 7 7 6 3 -2 1 0 1 -0 2 1 -2 -3 -2 -2 -2 -2 -1 -1 -1 0 1 1 2 1 1 2 2 -0 2 1
1 0 0 0 0 0 0 1 1 1 2 2 2 -1 -2 5 7 6 4 -1 -2 -1 1 1 2 2 -1 -2 -2 -1 -1 -1 -1 -0 0 0 1 3 2 3 3 1 3 2 1 2 3
1 0 0 0 1 -0 -0 -0 0 1 1 -0 2 1 3 5 6 6 4 -0 0 1 2 1 0 -1 -1 -1 -0 0 0 0 1 1 -0 1 3 3 2 2 2 4 4 2 1 1 4
0 0 -0 -1 -1 -0 -1 -2 -0 -0 0 -0 -0 -1 2 5 6 4 1 -2 -1 0 1 0 -1 -1 0 0 1 1 1 1 1 1 1 2 2 -0 -0 2 3 3 3 4 4 1 4
-0 0 -1 -0 -0 -1 -0 -0 -1 -2 -1 0 -2 0 -1 4 4 4 1 0 -0 1 -1 -1 -1 -0 0 0 1 2 2 1 2 2 1 1 -1 0 1 4 5 5 4 3 6 5 5
-1 0 -0 -1 -0 -0 -1 -1 -1 -1 -1 0 -1 -1 -2 3 3 3 1 -0 0 0 -0 1 2 1 2 2 3 2 1 1 2 2 1 1 0 1 2 5 4 5 3 3 5 6 9
-1 -0 -0 -1 -1 -1 -1 -2 -1 -2 -1 -2 -2 -0 -2 1 2 2 1 -0 1 -0 3 -0 2 2 2 3 2 3 2 2 2 2 3 1 4 3 4 4 4 6 4 5 5 6 6
-2 -1 -0 -0 -1 -0 -1 -1 -1 -1 -2 -3 -3 -1 0 1 3 1 1 1 -1 1 3 3 3 3 3 3 3 4 4 3 2 3 2 3 2 3 3 3 5 4 4 5 5 6 6
-2 -2 -1 -1 -0 -1 0 -1 -2 -1 -1 -2 -1 -0 1 0 2 1 1 0 2 3 -2 4 3 2 2 3 3 4 4 4 4 5 5 4 4 4 4 4 5 5 4 7 7 7 7
-1 -1 -1 -1 -0 -0 -1 -1 -1 -1 -1 -1 -1 -0 -0 0 1 1 1 1 3 -1 1 2 1 2 3 2 2 3 3 5 4 3 5 4 2 4 4 5 6 5 6 5 7 7 7
-1 -2 -1 -1 -0 0 -1 -1 -1 -1 -1 -0 -0 2 1 1 1 2 1 3 1 -0 2 3 1 0 -0 1 2 2 3 5 4 4 6 6 6 4 4 4 4 5 6 1 3 3 6
-1 -1 -0 -0 -1 -1 -1 0 -1 -1 1 0 1 1 2 1 1 1 2 2 0 -2 1 0 2 0 1 1 2 2 2 4 4 4 3 4 7 4 3 3 3 2 1 2 4 5 7
-1 -0 -1 -0 -1 -1 -0 -1 -0 0 0 0 1 1 1 1 2 2 3 1 0 0 2 2 2 2 0 1 2 3 3 2 3 3 2 1 3 6 2 4 5 2 2 1 1 2 6
-1 -1 -0 -1 -1 -1 -1 -1 -0 -0 0 0 1 2 1 1 1 1 3 0 -0 2 2 1 0 1 0 1 3 3 4 4 2 2 3 1 3 6 4 2 2 3 2 -1 2 2 0
-1 -0 -0 -0 -0 -0 -1 -1 -1 -1 1 1 0 1 2 2 3 3 0 2 1 1 1 2 2 -0 0 2 3 3 3 2 2 2 2 1 1 2 2 0 1 3 2 0 -1 -0 1
-1 -0 -0 -0 -0 -0 0 1 1 0 1 1 1 1 1 2 1 0 0 1 3 0 -0 -0 1 1 1 2 1 3 2 2 2 2 2 -0 0 -0 1 1 2 4 3 1 -1 1 2
-1 -0 -1 -0 1 1 1 1 -0 -1 1 2 2 2 2 2 2 1 1 1 2 2 -1 -1 -0 1 2 3 3 3 2 1 1 1 0 -1 2 -0 -0 -0 2 3 3 2 2 -0 -0
-1 -1 0 2 3 3 1 0 -0 1 1 1 1 2 0 1 0 0 1 1 2 2 0 0 1 1 -0 1 -0 2 2 2 3 0 1 -1 1 -1 0 -1 -2 2 2 2 2 1 1
-2 -1 1 3 2 1 0 -1 -0 1 1 1 1 2 -0 -0 -1 0 1 1 2 0 1 0 -0 0 1 0 -0 0 1 1 1 2 1 -0 -1 -1 1 -1 -2 -0 -1 0 2 1 1
-2 0 2 2 1 1 0 -2 -0 0 -0 -0 0 -1 -2 0 -1 0 1 1 2 1 1 -0 -0 -0 0 -0 -1 -1 -1 -1 -1 -0 -1 -0 -0 -1 -0 -1 1 -3 -4 -2 -0 0 1
-1 0 2 2 2 0 -1 -1 0 0 0 -0 -0 -2 -1 -1 -1 1 1 1 0 0 -0 0 1 0 -1 -1 -0 0 0 -1 -0 -1 -0 -1 -0 1 1 0 -2 -2 -2 -0 0 -0 -1
-1 -0 2 2 2 2 1 0 2 1 1 1 0 -3 -1 -1 -1 -1 0 0 1 -0 -0 1 2 1 0 -1 -1 1 1 0 2 1 -2 -1 -1 0 1 2 2 -2 -2 -2 -2 -1 -3
-2 -0 2 1 2 2 2 2 2 2 1 -1 -4 -2 -2 -2 -1 -1 -0 -0 -0 -1 -1 0 1 1 -0 -0 0 0 -0 -1 1 1 2 1 0 2 1 1 -0 -3 -3 -3 1 -2 -3
-3 -1 1 1 1 2 2 2 2 1 -2 -5 -3 -4 -3 -1 -2 -2 -2 -1 -0 -0 -0 0 -0 0 -0 0 0 0 -0 -1 -1 -1 0 0 0 1 0 1 1 -3 -2 -1 -3 -3 -3
-4 -2 1 2 1 1 2 2 2 1 -0 -3 -5 -2 -1 -1 -2 -2 -2 -2 -1 -1 -0 -0 -1 -0 -0 -0 -1 -1 -0 -2 -2 -0 -2 0 -1 -0 -1 -1 -4 -3 -2 -3 -3 -3 -3

GFSGBSN_850_dewp_084.txt.gz
Dewpoint
1 2 1 2 2 2 2 2 2 2 1 1 1 3 4 5 6 7 8 8 7 5 -4 2 2 2 1 2 2 0 1 3 1 -2 -2 -1 -3 -2 -3 -2 -1 -1 -4 -5 -4 -1 0
2 2 2 2 1 1 2 1 2 1 1 2 2 3 3 4 5 7 8 8 7 5 -4 2 2 1 2 1 0 -1 -6 3 2 -1 -2 -1 -2 -0 -2 -2 -1 -4 -1 -1 -1 -2 -2
1 1 1 1 1 1 1 1 1 0 1 1 1 2 3 3 6 6 7 8 6 1 -0 2 2 0 3 1 0 1 -4 -3 -1 -1 -1 -0 -0 -1 -2 -3 -3 -1 -0 -3 -3 -2 -1
1 1 1 1 1 0 -0 1 -0 0 1 1 2 2 2 -1 5 6 6 7 5 -0 1 2 2 2 2 0 -1 -3 -3 -3 -1 -2 -2 -1 0 0 -0 -2 -2 -3 -3 1 -6 -5 -2
1 1 0 1 -0 0 -0 -2 -0 -0 0 1 1 1 2 0 3 6 6 6 2 -0 1 0 1 2 1 -0 -1 -3 -2 -1 1 -1 -1 -0 -0 0 0 1 1 -1 -1 -2 -2 -4 -3
1 0 -0 1 -1 -1 -1 0 -0 -0 -1 0 0 0 -1 2 -1 6 6 5 1 0 1 2 2 1 1 -1 -2 -1 -1 -1 -0 0 1 1 1 1 1 2 2 -0 2 -1 -2 -4 -2
0 0 0 1 -1 -1 -2 -1 -2 -0 -0 -1 -2 -1 -3 3 2 6 6 3 2 2 2 2 1 -0 -0 -1 -1 -0 -0 1 1 1 0 -1 2 2 1 0 0 1 3 3 1 -3 -2
-1 -0 0 -0 -0 0 -0 -1 -1 -2 -1 -0 -2 -1 -3 0 3 5 4 2 -0 1 1 -0 0 1 -0 -0 1 1 0 0 -0 0 -1 2 2 -1 -2 -1 2 4 3 1 -0 -1 -0
-1 -1 -0 -1 -1 0 -0 -0 -1 -1 -2 -2 -2 -2 -1 -3 3 3 3 1 1 -0 0 1 2 1 -0 -0 0 1 2 1 -0 1 0 1 -2 -2 -1 0 4 4 4 2 3 1 1
0 -1 -2 -1 -1 -0 -0 -0 0 -1 -0 -3 -3 -4 -1 -2 3 3 2 2 -0 1 3 1 1 1 1 2 1 1 2 0 1 1 0 1 -1 1 1 3 4 6 4 4 5 5 5
-0 -2 -1 -2 -1 -1 0 0 -2 -0 -2 -3 -2 -3 -2 -1 2 2 2 1 1 1 6 1 2 1 2 2 2 3 2 2 2 1 3 1 2 5 5 4 4 4 2 5 4 6 5
-1 -1 -1 -0 -1 -1 -0 0 -0 -1 -2 -2 -3 -2 -0 -1 1 1 1 1 1 3 3 4 3 2 3 2 2 4 3 3 2 3 3 3 0 2 4 2 4 3 4 6 5 5 8
-1 -1 -1 -0 -1 -1 -0 -1 -0 -0 -1 -2 -2 -0 -0 -0 1 2 1 1 4 5 -0 4 3 2 2 3 3 3 4 4 5 5 4 3 3 3 3 5 4 5 6 7 7 6 7
-1 -0 -0 -1 0 -0 -1 -0 -0 0 0 -0 -1 0 0 -1 1 2 1 3 5 1 1 1 1 2 2 2 2 3 5 5 4 3 4 6 5 4 3 4 6 5 5 6 6 8 8
-2 -1 -1 -0 -0 -0 -1 1 -0 1 1 0 -0 -0 0 -2 1 1 2 4 3 1 1 2 2 3 3 1 2 2 4 5 4 4 7 7 5 2 3 4 5 5 6 0 4 3 4
-2 -0 -0 0 -0 0 -0 -0 0 0 0 0 1 1 1 -1 1 1 3 4 2 -1 1 -0 0 -0 1 1 2 2 5 3 4 4 3 5 7 4 5 4 4 5 1 4 5 6 7
-1 -1 -0 0 -0 -1 -0 -0 -0 0 1 1 1 1 2 1 1 1 4 2 1 0 1 0 1 0 -0 2 2 2 5 4 3 3 2 1 4 6 3 4 5 3 2 1 1 2 3
-1 -0 0 0 0 0 0 0 -0 0 1 1 1 2 2 1 1 1 3 1 1 2 2 1 0 0 -0 1 3 3 4 4 2 2 2 1 3 6 4 1 0 3 3 -0 2 2 0
-1 0 0 1 2 2 1 1 -0 -1 1 1 1 0 1 2 3 3 0 1 2 2 1 2 1 -1 0 2 3 2 3 2 2 2 3 0 2 6 5 2 1 3 1 0 -1 0 2
-0 0 1 3 3 2 1 1 -0 -2 -0 0 1 2 1 1 1 0 2 4 4 1 -0 0 1 1 1 2 1 2 2 2 2 2 1 -1 1 2 2 3 3 4 3 1 0 4 -0
-0 1 2 2 3 2 -0 -1 -2 -1 -1 -1 2 2 2 3 2 -0 1 3 2 2 -0 -1 1 1 1 2 1 2 2 1 1 1 -0 -0 4 2 0 0 2 3 3 2 2 0 1
0 2 2 2 1 0 -1 -3 -3 -1 -1 -1 2 2 1 1 0 -1 0 3 2 1 1 0 1 0 -0 0 0 1 1 1 2 1 1 -1 4 1 3 -1 0 2 2 2 2 1 -0
1 2 2 2 -0 -3 -4 -3 -1 0 -1 -1 -1 -1 -1 0 -0 -1 1 2 1 1 1 0 -0 0 1 1 0 1 1 1 1 2 1 0 2 3 4 -1 -1 1 -1 1 2 1 1
1 2 2 2 -0 -2 -2 -1 -0 0 -1 -3 -1 -2 -3 -0 -1 0 1 1 1 1 1 0 0 0 0 -0 -1 -1 -1 -1 -1 -0 -1 0 1 2 4 0 4 -2 -4 -2 -1 1 0
1 1 2 2 1 -0 -0 1 1 0 0 -1 -2 -2 -2 -1 -1 0 1 1 0 0 1 1 1 -0 -1 -1 -0 0 0 1 0 -1 -1 -1 0 2 4 2 -1 -1 -2 -0 0 0 -0
-1 1 1 2 2 1 0 1 1 1 -0 -1 -3 -2 -2 -2 -1 -1 0 0 1 1 0 1 1 1 -0 -2 -2 1 1 0 2 1 -1 -1 -1 1 1 3 1 -1 -2 -2 -1 -1 -2
-2 2 1 1 2 2 1 2 1 -0 -3 -4 -2 -2 -2 -1 -1 -1 0 1 -0 -0 1 1 1 1 -1 -0 -0 -0 0 -1 -0 -0 1 1 0 2 2 2 -0 -3 -4 -2 0 -2 -2
-2 1 2 0 1 2 2 1 1 -0 -2 -4 -3 -3 -2 -2 -1 -1 -1 -1 -0 -0 0 0 0 0 1 1 0 0 -0 -0 -0 -1 -0 0 0 0 0 1 -0 -3 -2 -1 -3 -3 -3
-3 -3 1 1 -0 -0 2 2 2 1 0 -3 -4 -1 -1 -2 -2 -1 -1 -1 -1 -1 -0 -0 -1 0 0 1 0 -1 -1 -1 -1 -1 -2 0 -1 -1 -1 -2 -4 -3 -2 -2 -3 -3 -2

GFSGBSN_850_dewp_087.txt.gz
Dewpoint
2 2 2 2 2 2 1 1 2 1 1 1 2 2 3 2 3 4 6 7 8 8 7 -0 1 2 1 2 1 -1 -0 3 2 -1 -2 -3 -5 -5 -4 -6 -5 -4 -4 -5 -7 -7 -5
2 2 2 1 1 1 1 1 0 -1 0 2 2 2 1 3 2 4 5 7 8 8 7 2 2 1 3 0 1 -0 -3 2 2 -0 -2 -3 -4 -4 -4 -5 -5 -6 -6 -5 -4 -4 -5
2 3 2 2 1 1 1 0 0 -0 0 0 1 2 1 1 2 4 5 7 7 7 3 0 2 2 2 0 -0 -0 -5 -2 1 -1 -2 -1 -1 -2 -4 -4 -5 -6 -3 -4 -6 -7 -4
1 1 1 1 -0 0 0 -0 -1 0 0 -0 1 1 1 1 -1 2 6 7 7 6 4 3 2 3 0 2 1 1 -2 -1 0 -0 -1 -0 -0 -0 -1 -2 -3 -3 -4 -3 -7 -9 -8
1 1 -0 1 0 -0 -1 -1 -1 -1 1 0 -0 -0 0 -1 0 -2 6 6 6 3 2 2 2 2 -1 0 1 -0 -1 -1 0 -0 0 -0 0 -1 -1 0 1 -1 1 -3 -6 -8 -7
1 1 -1 -0 0 -1 -1 -1 -1 -1 -2 0 0 -1 -0 -1 3 -1 5 5 3 2 1 2 3 2 0 -1 -0 -1 -0 -1 -0 -1 0 1 0 -0 0 2 2 -2 -0 -2 -3 -5 -7
1 1 -0 -0 0 0 -1 -0 -0 -1 -2 -1 -3 -0 -1 -1 2 4 4 4 3 2 3 2 1 -0 -0 -0 -1 0 0 -0 -0 0 -0 -2 2 2 0 -1 -1 -1 -0 -1 -3 -4 -1
2 -0 -0 -0 -0 -0 -1 -0 -0 -2 -2 -3 -2 -4 -4 -0 -0 2 4 3 2 3 3 2 1 1 0 0 1 1 1 1 -0 1 -2 1 2 -1 -3 -3 -1 0 2 2 -1 -2 -2
1 -2 -0 0 -0 -0 -1 -1 0 -0 -1 -2 -3 -5 -4 -0 0 3 3 3 2 2 1 2 1 0 0 1 -0 1 1 0 -1 -1 -1 1 -1 -2 -2 -1 1 2 4 2 3 -0 1
1 -0 -0 -1 -1 0 -0 -1 -1 -2 -2 -2 -5 -6 -5 -2 2 2 2 2 3 0 5 2 1 1 1 1 1 1 2 1 -1 0 -1 0 -1 0 1 3 4 5 1 4 5 4 3
-2 -2 0 -2 -1 -1 -0 -1 0 -2 -3 -2 -3 -3 -4 -3 0 2 2 2 1 1 7 1 1 1 2 1 2 3 2 2 2 3 3 1 1 1 3 5 4 4 4 4 3 3 5
-1 -3 -0 -1 -0 -0 -1 -1 -1 -2 -2 -1 -2 -2 -3 -0 -2 1 1 1 2 4 7 4 2 3 2 1 2 3 3 3 2 3 3 3 0 1 2 3 4 4 4 4 4 5 7
-3 -2 -2 -1 -1 -0 0 -0 -1 0 -1 -0 -0 -1 -1 0 1 0 1 2 4 6 1 3 2 2 1 2 2 3 4 4 5 5 5 2 2 2 2 5 4 5 8 8 9 9 6
-2 -0 -3 -1 -0 0 -0 -0 1 -1 0 1 -0 -1 -0 0 -1 1 1 2 6 2 4 0 0 1 1 1 2 5 5 5 3 4 5 5 6 3 2 4 6 5 6 9 8 7 7
-3 -1 -1 1 1 1 0 0 -0 1 0 1 0 0 0 -0 0 1 2 5 5 3 1 0 0 2 2 1 3 3 4 4 4 3 6 6 6 2 3 3 5 5 8 4 8 5 8
-0 -0 1 1 1 1 0 0 -0 1 1 1 1 0 0 0 1 1 2 4 2 1 -1 -2 -1 -2 1 1 4 3 4 4 4 3 3 5 7 5 4 3 3 5 3 5 5 8 7
0 1 1 2 3 3 2 -0 0 1 0 0 1 1 1 1 1 1 4 4 3 1 -1 -1 -1 -1 -1 1 1 2 4 4 3 3 3 3 4 6 5 6 5 4 2 1 1 1 7
1 2 3 2 3 2 -0 -1 1 1 -1 1 1 2 1 2 1 2 4 3 2 3 2 -0 -1 -2 -1 0 2 2 3 3 2 1 2 0 3 5 4 1 1 2 1 -0 2 1 0
1 2 2 3 3 2 -1 -2 1 0 -1 1 0 1 1 2 2 4 1 4 3 3 1 1 -1 -1 -0 1 2 2 2 1 1 2 2 0 2 6 4 2 1 2 0 -1 -1 1 0
0 2 2 3 1 -0 -2 -2 -0 -1 -1 -0 2 2 1 2 2 0 2 4 5 1 -0 -0 0 -0 -0 -0 -0 2 2 1 1 1 1 0 1 3 4 4 3 3 1 -1 0 4 -0
0 1 2 1 0 -2 -3 -2 -1 -1 -1 1 2 2 2 3 1 -1 2 3 1 1 -1 -1 -0 -0 -0 0 0 0 0 -1 -1 0 -0 0 4 3 0 0 2 2 2 1 2 -1 0
1 0 2 2 -1 -1 -3 -2 -0 -1 -1 2 1 1 1 -0 -1 -1 2 0 -0 1 1 -0 0 -1 -2 0 -1 -0 -1 -1 -0 -1 0 -1 5 2 5 -1 1 1 0 1 1 0 -1
0 -1 2 1 1 -2 -1 0 0 -0 -2 2 -1 0 -2 -1 -2 -1 1 1 1 0 0 0 -0 -1 1 1 1 1 0 -0 -0 1 0 1 3 5 5 -1 -1 1 -1 0 1 1 1
-0 -1 0 2 0 1 1 1 -0 -1 -2 -1 -1 -1 -3 -1 -2 0 1 1 1 1 1 0 0 -0 1 0 -0 -0 -1 -1 -1 -1 -2 0 1 2 5 1 5 -1 -4 -2 -1 0 0
-0 -0 1 0 1 1 1 1 0 -0 -1 -2 -2 -1 -3 -2 -1 1 -0 0 0 0 1 1 1 0 -0 -1 -0 -0 -1 1 -0 -1 -1 -1 -0 3 5 0 -1 -1 -2 -1 0 -1 -1
-1 -0 1 1 1 -0 1 1 0 -3 -4 -3 -2 -2 -1 -2 -1 0 -0 0 -0 0 1 1 1 1 1 -2 -3 0 -0 -0 -0 -0 -1 -1 -1 1 1 3 -0 -1 -2 -2 -2 -0 -2
-1 -0 0 1 2 1 1 1 -0 -2 -3 -3 -2 -2 -1 -1 -0 -0 -0 -0 0 0 1 0 0 1 0 -1 -2 -2 -1 -1 -1 -2 -1 -0 -1 1 0 1 -0 -3 -3 -2 0 -0 -2
-7 0 0 -0 -0 1 1 1 -0 -0 -1 -4 -2 -3 -2 -1 -1 -1 -1 0 0 0 0 1 1 1 1 1 -1 -1 -2 -2 -1 -2 -2 -1 -1 -2 -1 0 -1 -3 -2 -1 -2 -3 -2
-7 -6 1 1 0 -1 -1 1 1 1 1 -3 -4 -2 -2 -1 -1 -1 -1 -1 -1 -1 0 0 -0 0 0 1 -1 -2 -2 -2 -2 -4 -2 -1 -2 -1 -2 -2 -3 -3 -2 -2 -2 -3 -2

GFSGBSN_850_dewp_090.txt.gz
Dewpoint
3 2 3 2 3 2 1 1 1 -0 1 1 2 2 2 2 0 3 2 3 5 7 8 8 5 -0 -1 3 1 -1 -1 2 1 -0 -2 -3 -4 -5 -4 -5 -5 -4 -4 -5 -5 -5 -6
3 2 2 2 2 2 1 1 0 -1 -1 1 1 1 1 1 2 1 3 4 4 7 7 7 3 1 2 0 1 0 1 4 2 -1 -2 -3 -4 -4 -4 -4 -5 -6 -6 -6 -6 -5 -4
2 2 2 1 1 2 1 1 -0 -0 -1 1 1 1 1 1 1 1 2 4 6 7 7 6 1 0 3 1 -0 -1 -3 2 1 -1 -2 -1 -1 -2 -2 -2 -5 -5 -3 -4 -4 -5 -4
2 2 2 1 1 0 1 1 -0 0 -1 -1 1 0 1 -0 0 1 -6 4 7 7 6 4 1 3 2 1 0 -0 -1 -2 1 -1 -1 -0 -0 -1 -1 -2 -2 -2 -2 -0 -4 -5 -6
3 3 2 1 0 1 1 -0 -1 -1 -1 -1 -0 1 0 0 0 0 -10 5 6 6 5 3 1 3 1 0 1 -0 -1 -1 -0 -0 -0 -1 0 -1 -1 0 2 -0 1 -1 -3 -6 -6
2 2 1 1 0 -0 -0 -0 -2 -2 -1 -2 -2 -1 -1 -1 -2 3 2 5 4 3 1 1 3 2 1 -0 0 -0 -1 -1 1 -0 0 0 0 1 0 2 1 0 0 -0 -1 -4 -4
2 0 0 -0 -0 -0 1 0 -1 -2 -2 -1 -0 -1 -2 -3 -1 2 3 3 3 2 3 2 2 -0 -1 -1 -1 -0 -0 -0 -0 -1 -1 -1 2 2 0 -0 1 1 1 0 -1 -4 -3
1 0 -2 -1 -1 -1 -0 0 -1 -2 -3 -1 -2 -3 -3 -3 -4 -2 3 3 3 3 3 2 1 -0 -0 -0 -0 0 0 0 -0 1 -1 0 1 -1 -2 -2 -0 -0 1 2 -0 -2 -1
-0 -4 0 0 -1 -0 -1 -1 -1 -1 -3 -3 -2 -5 -3 -5 -1 2 3 2 2 2 2 3 1 1 0 1 -1 1 1 0 -0 -1 -2 0 -1 -2 -1 0 2 2 3 3 3 2 1
1 -0 0 0 1 0 0 -0 -1 -1 -2 -3 -4 -7 -3 -5 1 2 2 1 2 2 4 2 2 0 1 1 -0 1 1 0 -0 0 -1 0 -1 -1 0 3 3 4 2 3 4 5 4
-0 0 1 0 0 -1 1 0 -2 -2 -3 -3 -3 -4 -4 -4 1 2 1 1 2 2 6 1 0 1 1 1 2 2 2 1 1 1 3 2 1 2 3 3 3 5 4 5 4 5 4
-0 1 1 1 1 1 0 -0 -1 -1 -1 -2 -1 -2 -1 -1 1 -0 1 1 2 4 6 4 2 2 1 2 2 2 3 2 2 3 2 2 1 2 1 0 2 5 4 3 3 5 6
-1 1 1 1 1 1 1 0 -1 -0 -0 0 0 0 -1 -0 0 2 1 2 4 5 2 3 2 1 0 1 2 2 3 3 5 5 5 3 2 1 1 4 3 5 5 7 6 5 8
0 1 2 2 2 2 1 0 0 1 1 1 0 -0 -1 -1 -2 0 1 3 5 5 4 0 0 1 4 0 2 3 4 5 3 3 5 5 5 3 1 4 5 5 7 8 8 9 8
1 2 2 2 2 2 1 -0 1 1 1 1 -0 -1 -0 -0 -0 0 1 4 5 5 1 1 0 3 2 1 2 3 4 3 3 2 6 6 6 2 3 3 4 5 7 5 8 7 9
1 2 2 2 2 2 1 -1 1 1 1 -0 -1 -0 1 0 1 1 2 4 4 2 -2 -1 -0 -1 2 1 3 5 4 3 3 3 3 4 6 4 4 3 4 5 4 5 7 8 9
2 1 2 2 2 2 -1 -0 1 1 1 1 1 1 1 1 2 1 4 4 4 1 0 0 -2 -2 0 1 3 4 4 4 3 3 2 3 5 6 5 5 5 5 4 3 1 3 9
2 1 1 1 0 -1 -2 -1 0 2 2 2 2 2 1 1 2 2 4 2 3 2 0 -1 -2 -2 -0 1 2 2 3 3 1 1 3 2 3 6 4 1 1 2 2 -0 3 4 3
2 1 -1 0 -1 -2 -1 -1 -1 -0 1 1 1 1 2 1 4 4 3 4 3 1 0 -1 -1 -1 -0 0 2 2 1 1 1 2 2 2 3 5 4 2 1 2 1 -0 -0 3 2
1 -0 -4 -2 -2 -2 -1 -0 -0 -1 0 1 1 2 1 2 2 2 4 4 3 0 -1 -1 -0 -1 -1 0 -0 2 1 1 1 1 0 1 1 3 4 4 3 4 2 0 2 4 3
1 1 -4 -4 -3 -2 -1 -0 -0 -1 -1 2 1 1 1 3 1 1 2 3 1 1 -1 -1 -0 -0 -0 1 0 0 -1 -1 -0 0 1 1 3 1 0 -0 2 2 2 2 2 -0 2
-0 2 -1 -4 -3 -1 -0 0 0 -1 -1 2 1 1 1 -1 -2 0 1 0 1 1 1 -0 0 -1 -1 2 2 1 0 1 1 -0 -0 -0 4 2 3 -1 0 1 -0 1 2 2 -0
-1 0 -0 -2 -1 -1 -1 -0 -0 -0 2 1 0 -0 -0 -2 -1 -0 1 1 1 1 0 0 0 0 2 2 1 0 -0 -1 -1 -0 0 1 3 3 5 1 -1 2 -1 -0 1 1 2
-1 -1 0 -1 -2 -1 -1 -1 -1 -1 -2 -0 -0 -1 -3 -1 -1 1 0 0 1 1 1 1 0 1 1 -0 -0 -0 -1 -1 -2 -1 -2 0 1 2 3 2 4 -1 -3 -2 -1 -0 0
-1 -1 -0 0 -1 0 -0 -1 -1 -4 -3 -3 -2 -1 -1 -1 -1 0 -0 0 0 1 1 1 1 0 -0 0 1 0 1 1 -1 -1 -1 -1 1 3 3 3 -1 -1 -1 -0 1 1 -1
-6 -0 -1 -0 1 -0 0 0 -1 -3 -3 -3 -2 -1 -0 -1 0 -0 -0 -0 0 1 1 1 -0 -0 0 0 -1 -0 1 -1 -0 -1 -2 -1 -1 1 2 3 2 0 -2 -2 -2 1 -1
-10 -2 -0 -1 -0 1 1 0 -0 -1 -3 -3 -3 -3 -1 -1 -0 -0 0 1 0 0 1 1 0 1 0 1 -0 -0 0 -2 1 -1 -1 -0 -1 0 1 2 0 -2 -2 -2 1 0 -2
-16 -8 -2 -0 -1 -1 -0 0 0 -1 -1 -4 -4 -3 -3 -0 -0 -0 -0 0 0 1 1 1 1 1 2 2 0 -0 -1 -1 -1 -3 -2 -1 -1 0 -1 0 0 -3 -2 -0 -2 -3 -2
-20 -11 -7 -2 0 -0 -1 -2 -0 0 -1 -0 -5 -4 -2 -1 -1 -1 -1 -1 -1 -1 0 1 0 0 1 2 0 -2 -1 -2 -3 -2 -3 -1 -2 0 -2 -0 -3 -3 -2 -2 -3 -2 -2

GFSGBSN_850_dewp_093.txt.gz
Dewpoint
3 2 2 2 2 1 1 1 1 1 -0 1 2 1 2 1 2 2 1 -0 4 4 6 7 7 5 -2 1 2 1 -3 -1 -2 -1 -2 -3 -4 -4 -4 -4 -4 -4 -4 -4 -5 -5 -5
3 3 3 2 2 1 1 1 0 0 0 -1 1 1 1 1 1 1 0 1 3 4 5 7 7 3 1 1 1 0 -1 -0 -1 -2 -3 -3 -3 -3 -4 -4 -4 -5 -5 -5 -5 -5 -5
5 4 3 3 2 2 1 2 -0 -1 0 1 -0 -1 1 1 0 1 2 2 2 4 6 7 6 1 2 1 1 -0 1 2 2 -2 -2 -2 -2 -2 -1 -2 -2 -3 -2 -2 -3 -4 -4
4 5 4 2 1 1 1 -0 -1 -2 -1 -1 -2 -1 -1 -1 1 2 -1 -14 2 4 6 6 3 3 2 1 -0 -2 -3 2 1 -1 -1 -1 -1 -1 -1 -2 -1 -1 -2 0 -3 -3 -4
3 2 2 1 -0 -0 0 0 0 0 -2 -1 -2 -3 -1 -2 -1 1 -2 -7 4 6 5 5 2 2 2 1 0 0 -2 0 0 -1 -1 -1 -0 -0 -1 -0 -1 -1 -0 -0 -1 -4 -3
2 -1 -3 -1 -1 -0 1 0 -1 0 -1 -1 -1 -1 -0 -5 -8 0 5 5 5 4 3 3 2 2 1 1 1 -1 -2 -1 0 -0 -0 -0 -0 -1 -0 -1 -2 -1 -0 -0 -0 -2 -3
-1 1 1 -0 -1 0 1 -0 -1 -0 -2 -2 -0 -1 -1 -4 -6 -3 3 4 3 2 3 3 2 0 0 0 0 -1 -2 0 -0 -1 -1 -0 -1 1 -0 -0 0 1 1 2 1 -1 -1
1 1 0 1 0 1 -1 0 -2 -2 -1 -2 -1 -2 -3 -4 -4 -1 2 3 3 2 3 2 0 -1 -1 -1 0 0 -1 -0 -1 1 -0 -0 0 -1 -1 -1 0 1 2 2 0 -1 1
1 1 -1 -1 -0 1 -0 -0 1 -2 -2 -3 -3 -4 -6 -5 0 1 2 2 2 3 2 3 1 0 -0 0 -0 1 0 -0 -0 -0 -1 0 -1 -2 -1 -0 1 1 2 2 3 2 2
1 1 -0 -1 1 1 2 1 -0 -2 -3 -3 -4 -6 -5 -5 0 2 2 2 2 3 3 3 2 1 -0 0 0 0 -0 0 0 0 0 0 -1 -0 0 1 3 4 1 2 5 6 3
1 2 2 1 2 1 1 1 1 -1 -2 -2 -2 -3 -3 -5 -1 1 1 2 2 2 4 2 1 1 -1 1 2 2 1 1 2 2 2 0 2 2 3 2 2 4 3 5 6 4 4
2 2 2 3 1 2 3 1 0 -0 -0 -0 -1 -2 -2 -0 0 0 2 1 2 3 4 4 2 2 2 2 3 2 2 1 2 2 1 2 1 2 2 0 0 2 4 4 4 5 4
2 2 3 3 3 2 2 1 1 2 1 0 -1 -2 -1 -1 0 0 1 2 3 1 3 3 3 2 1 3 3 2 3 3 3 3 1 2 3 1 1 3 3 4 6 6 5 5 5
2 3 2 3 2 2 -1 -0 0 0 -0 -0 -1 -1 -2 -2 -1 -1 0 2 1 5 3 0 1 1 4 2 3 3 4 3 2 1 4 4 1 3 2 3 5 5 6 8 7 8 8
3 2 3 3 -1 -2 -2 -0 -1 -1 -1 -1 -1 -0 -2 -2 -1 -1 1 2 4 4 1 1 2 5 3 2 3 3 3 2 3 2 5 5 3 2 3 3 4 5 7 5 7 7 7
2 3 3 -3 -4 -3 -1 -2 -2 -0 -2 -1 -1 0 1 -0 -1 -0 2 4 4 3 1 0 2 1 3 2 2 4 4 3 2 3 3 4 6 4 4 3 4 5 4 5 5 8 9
2 3 0 -5 -4 -4 -1 0 0 0 1 1 0 1 1 0 0 2 3 4 3 2 1 3 -1 1 1 2 3 5 4 3 2 3 2 3 5 5 5 5 4 4 5 4 3 4 7
2 2 -1 -4 -3 -3 -3 1 1 1 1 -0 1 2 1 1 0 3 3 3 2 3 1 -1 -1 0 0 1 2 2 3 3 2 2 4 3 4 6 4 1 1 2 3 0 3 3 2
2 -0 -2 -3 -2 -2 -1 -1 -1 -1 -0 -0 1 1 0 1 3 3 3 2 3 3 0 -1 -0 -0 -0 1 2 1 2 1 1 2 3 2 2 2 1 -0 0 3 1 0 1 1 3
2 1 -2 -2 -2 -1 -1 -2 -2 -0 0 1 -0 -1 -1 1 2 2 2 3 3 0 -1 -0 -0 -1 0 0 -0 2 2 1 0 1 1 1 1 2 3 3 2 3 2 1 1 2 3
-0 -1 -0 -0 -2 -2 -2 -3 -3 -3 -1 2 1 -0 1 -1 0 1 1 2 2 2 0 -1 -1 -0 -0 1 0 0 -1 -0 0 0 1 1 2 0 1 -0 1 1 1 2 3 1 2
-1 -1 -1 -0 -0 -1 -2 -1 -2 -4 -2 2 1 -0 1 1 -1 0 0 2 2 1 1 1 2 1 2 3 2 3 1 1 1 -0 -0 -0 2 2 2 -1 -1 -0 -1 1 2 2 1
-2 -1 -1 -1 -1 -0 -1 -1 -2 -2 -3 -1 1 0 0 -2 -1 0 1 1 2 1 0 0 1 1 2 1 1 -0 -0 -0 -1 -0 0 1 1 1 3 2 0 2 -1 -1 1 1 2
-4 -2 -0 -1 -1 -0 -0 -1 -3 -4 -4 -3 -1 -2 -1 -1 -1 1 1 0 1 1 1 1 0 1 0 -0 -0 -1 -1 -1 -1 -1 -1 0 1 1 1 0 2 -1 -3 -2 -1 0 1
-9 -3 -1 -0 -0 -0 -0 -0 -3 -3 -3 -4 -4 -2 -1 -2 -0 0 -0 0 0 1 1 1 1 0 -0 0 0 0 0 -0 -0 -1 -1 -1 1 1 1 1 -1 -1 -2 -0 0 1 -1
-18 -7 -2 -1 -0 0 -0 -0 -1 -3 -3 -3 -3 -2 -1 -1 -1 -0 0 0 1 1 1 0 -1 -1 -0 1 -1 -1 -0 -1 -1 -2 -2 -1 -1 1 1 2 1 -1 -2 -2 -3 1 -2
-26 -13 -6 -2 -1 -1 -0 0 -0 -1 -3 -3 -3 -3 -3 -1 -1 -0 -0 0 0 1 1 1 0 1 1 1 0 -1 -1 -2 0 -1 -1 -1 -1 -0 1 1 -0 -2 -2 -2 0 -3 -2
-17 -23 -11 -6 -3 -1 -1 -1 -0 -0 -1 -2 -5 -3 -3 -2 -2 -0 -0 -0 0 0 1 1 0 1 1 2 0 -0 -1 -2 -3 -3 -3 -2 -1 -0 -1 -0 -2 -3 -2 -1 -3 -3 -2
-6 -27 -16 -8 -8 -5 -1 -1 -2 -1 -1 -0 -2 -5 -2 -1 -1 -1 -1 -1 -1 -1 -1 0 0 1 1 1 0 -1 -1 -2 -3 -2 -3 -2 -3 -1 -3 -2 -4 -3 -2 -3 -3 -3 -3

GFSGBSN_850_dewp_096.txt.gz
Dewpoint
1 1 2 2 4 3 1 1 -1 1 -1 0 0 -0 1 0 0 1 -0 1 -1 1 5 7 7 4 -1 0 2 -0 -4 -2 -5 -2 -2 -3 -3 -4 -3 -4 -5 -5 -5 -6 -6 -6 -6
-6 -0 -1 -3 0 2 1 1 1 1 -3 -2 -1 -1 -1 -0 1 1 1 1 -1 4 4 6 7 6 0 1 2 1 -1 -1 -2 -2 -3 -5 -3 -4 -4 -4 -4 -4 -3 -3 -4 -4 -4
1 1 0 1 -1 0 1 0 0 -0 -1 -2 -0 -0 -1 -2 -2 0 1 2 3 3 5 5 7 6 2 1 2 1 0 0 -1 -2 -2 -2 -3 -4 -1 -2 -2 -2 -2 -2 -4 -4 -3
1 1 1 1 -0 -1 -0 -0 -1 -1 -1 -2 -1 -1 -2 -1 -4 -2 1 1 -10 1 6 6 6 2 2 0 0 0 2 2 0 -2 -1 -1 -2 -2 -1 -2 -1 -1 -2 -0 -4 -4 -4
1 1 2 1 -1 1 1 -1 -3 -1 -1 -2 -2 -0 -1 -2 -6 -4 2 -13 -4 3 6 6 4 3 1 -0 -1 -3 2 1 1 -1 -2 -1 -1 -1 -1 -1 -3 -2 -1 -1 -1 -3 -2
2 2 2 2 1 1 1 -2 -3 -3 -2 -2 -1 -1 -1 -1 -6 1 4 -1 3 6 4 4 3 3 1 1 0 -0 -2 -0 -0 -0 -0 -1 -0 -2 -1 -3 -5 -2 -1 -1 -0 -2 -2
2 -0 -0 -1 1 -1 -1 -1 -2 -2 -1 -2 -1 -1 -2 -3 -4 -4 2 3 4 3 3 4 2 2 2 1 -0 -1 -1 -0 -0 -1 -1 -0 -2 -0 -2 -1 -2 -0 1 1 -0 -2 0
1 2 2 2 1 0 0 1 0 -1 -2 -3 -3 -3 -4 -3 1 1 2 1 2 2 3 2 1 0 0 -0 -1 -2 -0 -0 -1 0 -1 -1 -1 -2 -1 -1 0 1 2 2 0 -1 1
1 2 2 2 3 2 -0 0 0 -2 -4 -5 -7 -6 -5 0 1 -1 2 1 2 2 2 3 1 -1 0 -0 1 -0 -1 -0 -1 -0 -0 0 -2 -2 -1 -0 1 0 1 1 2 1 2
1 3 2 2 3 3 2 1 0 -2 -4 -5 -5 -5 -5 -0 0 1 1 1 2 3 3 3 2 0 0 0 2 -0 -0 0 0 0 1 1 -1 -1 0 1 1 3 1 2 3 5 5
2 2 2 3 3 2 2 0 -0 -2 -2 -3 -3 -3 -5 -2 0 1 0 2 2 2 4 3 2 1 -0 2 1 2 0 1 1 2 2 -0 2 2 3 1 1 2 2 3 6 5 4
2 3 2 2 1 -1 -1 0 -0 -0 -0 -1 -1 -3 -5 -1 2 2 2 2 2 0 4 4 1 2 2 2 2 3 2 1 1 2 1 1 1 1 1 1 1 0 3 5 5 5 3
3 2 1 -1 -1 -1 -0 -0 -1 -1 -0 -1 -3 -2 -1 -0 1 1 1 1 0 2 3 3 3 2 2 3 3 2 2 3 2 1 1 1 3 2 1 3 2 2 5 5 2 5 4
2 1 -3 -2 -2 -3 -3 -3 -1 -2 -3 -5 -2 -2 -2 -0 0 0 -0 -1 2 4 3 1 0 1 2 2 3 3 3 3 3 2 3 4 1 2 2 3 4 5 6 7 7 8 7
2 -1 -3 -2 -2 -6 -6 -4 -3 -3 -4 -3 -2 -3 -2 -1 -1 -1 -0 2 3 3 0 1 2 3 4 2 3 3 3 2 2 1 3 5 1 1 2 3 4 5 7 6 7 7 4
1 -2 -2 -4 -2 -6 -7 -6 -5 -2 -0 0 -1 -1 -1 -2 -1 0 1 4 3 2 0 1 2 1 3 3 3 4 4 3 2 2 2 4 6 2 3 3 3 5 4 6 5 6 8
0 -2 -2 -3 -3 -3 -2 -2 -1 -2 -2 -1 -1 -1 0 1 1 0 3 3 3 2 -0 2 -0 1 1 2 2 4 3 3 2 3 2 3 5 3 4 4 3 4 5 5 4 4 7
-2 -1 -1 -1 -2 -2 -1 -2 -2 -3 -4 -4 -1 -1 -0 1 1 1 1 3 2 3 2 0 -1 -1 0 1 3 3 3 3 2 3 4 3 4 5 4 1 2 2 3 2 3 3 3
1 1 -0 -1 -1 -1 -2 -2 -2 -1 -1 -4 -2 -1 -1 1 1 1 2 2 3 1 -0 -1 0 -0 -1 1 2 1 2 1 2 2 3 2 2 2 -0 -2 -1 3 2 1 1 1 4
1 0 -0 -1 -1 -1 -2 -3 -3 -4 -3 -2 -2 -2 -1 -0 2 2 2 3 2 -0 -1 -1 -0 -1 -0 0 0 2 2 1 1 1 1 0 2 1 2 2 1 3 1 1 0 2 3
-1 0 0 -0 -1 -1 -2 -3 -3 -3 -3 -1 -2 -0 1 -1 0 1 1 1 2 2 -0 -0 1 2 0 2 1 1 1 -0 -0 1 1 1 2 0 0 0 0 1 -0 1 2 2 2
-4 -1 -0 0 -0 -0 -1 -2 -3 -3 -2 -1 0 -0 1 0 -1 -1 0 2 2 1 1 1 2 1 1 2 2 2 1 0 1 -1 -0 -0 1 1 1 -0 -1 0 -2 -0 2 2 1
-9 -3 -0 -0 -0 -0 -1 -2 -3 -5 -5 -1 -0 -1 -0 -2 -2 -0 1 1 1 0 0 0 0 1 1 1 1 0 -0 -0 -0 -1 -0 0 1 -0 0 1 1 1 -1 -1 1 1 2
-19 -7 -2 -0 -0 -0 -0 -1 -3 -4 -6 -1 -2 -2 -2 -2 -0 0 0 0 1 1 1 1 -0 1 0 -0 -0 -0 -0 -0 -1 -1 -1 0 0 0 0 -1 0 -1 -3 -2 -1 1 0
-14 -16 -5 -2 -0 -0 -1 -0 -2 -3 -4 -4 -3 -2 -2 -2 -1 0 -0 0 0 0 1 1 0 -0 -0 0 -1 -1 -1 -1 -0 -1 -1 -1 0 0 0 0 -2 -2 -2 -1 0 1 -1
-1 -22 -14 -5 -2 -1 -0 -0 -0 -2 -3 -3 -3 -2 -1 -1 -1 -0 -0 0 0 -0 0 0 -1 -0 0 0 -1 -1 -1 -1 -1 -2 -3 -1 -1 0 1 2 1 -3 -2 -2 -3 -1 -2
1 -9 -23 -11 -5 -2 -1 -1 -0 -1 -2 -4 -3 -3 -3 -1 -1 -1 -0 -0 0 0 0 0 0 0 1 1 1 -0 -1 -2 -2 -0 -3 -2 -1 1 1 1 0 -3 -2 -3 -1 -8 -1
1 -1 -21 -19 -9 -5 -2 -1 -2 -1 -1 -1 -5 -5 -3 -3 -3 -2 -0 -0 -0 0 1 0 -0 0 1 1 0 -0 -1 -2 -1 -4 -3 -3 -2 -1 -1 0 -1 -3 -2 -2 -6 -2 -2
1 0 -10 -24 -14 -8 -5 -3 -1 -2 -1 -1 -1 -4 -5 -1 -1 -1 -1 -0 -0 -0 -0 0 0 0 1 0 -0 -1 -1 -2 -3 -1 -5 -1 -3 -3 -3 -3 -6 -3 -4 -4 -4 -4 -3

GFSGBSN_850_dewp_099.txt.gz
Dewpoint
2 2 2 2 2 1 1 2 1 1 0 -1 -1 -0 0 1 0 -1 -2 -2 0 1 1 6 7 7 1 1 2 -1 1 -2 -4 -2 -3 -3 -3 -3 -3 -4 -5 -4 -5 -4 -4 -5 -5
2 2 2 2 2 0 -0 0 -0 -0 -1 -3 -0 0 -0 0 -1 -1 -0 1 -2 -2 0 5 7 7 1 1 1 -1 -1 -2 -3 -3 -3 -4 -4 -4 -3 -3 -4 -3 -2 -3 -4 -4 -4
3 1 2 1 1 2 -0 0 -1 -2 -2 -2 -3 -1 -0 -1 -2 0 1 0 1 1 3 4 6 3 2 5 2 1 -1 -2 -3 -4 -4 -3 -3 -4 -2 -3 -2 -2 -2 -3 -4 -4 -4
2 2 1 1 1 2 1 1 -1 -1 -1 -2 -1 -3 -1 -1 -2 -4 -6 0 0 -1 4 5 6 3 2 5 3 1 1 0 -2 -2 -2 -1 -3 -4 -3 -2 -2 -1 -2 -1 -6 -4 -4
2 2 2 -1 1 1 1 -0 -1 -1 -1 -2 -3 -3 -1 -1 -2 -6 1 2 -1 -7 5 5 4 2 1 2 1 2 3 0 -0 -1 -2 -2 -3 -1 -1 -3 -5 -3 -2 -2 -2 -3 -3
0 2 2 2 2 1 1 -0 -1 -2 -2 -2 -3 -1 -2 -2 -5 -1 2 -3 -6 4 5 3 3 3 0 -1 -2 1 1 1 -1 -1 -1 -1 -1 -2 -2 -4 -6 -4 -1 -1 -0 -3 -2
1 2 2 3 3 3 -1 -0 -1 -1 -2 -3 -2 -2 -3 -4 -1 -0 3 4 4 3 4 4 3 2 2 0 -0 -2 -0 -0 -1 -1 0 -1 -2 -2 -3 -2 -4 -3 -0 0 -1 -2 -0
2 3 3 3 3 4 2 1 -0 -3 -3 -6 -8 -6 -3 0 0 -0 2 2 3 3 2 2 2 2 1 -0 -1 -1 -0 -0 -1 -0 -1 -2 -2 -2 -2 -2 -1 -0 1 1 -0 -1 0
2 2 2 2 1 2 3 1 1 -4 -4 -8 -7 -5 -1 0 -1 0 2 2 2 2 2 2 1 1 0 -1 -0 -1 -0 -1 -1 -1 -1 -1 -2 -2 -1 -1 1 0 0 1 1 1 1
2 1 1 -2 -2 -1 1 -0 -1 -3 -3 -4 -5 -4 -1 -2 -1 0 2 3 3 -0 3 2 2 0 1 0 1 -1 -1 0 -0 -0 1 -0 -2 -1 -0 1 0 2 -0 0 2 5 6
1 -1 0 1 -1 -1 -0 -0 0 -1 -1 -2 -3 -3 -1 0 0 2 2 2 2 1 2 3 2 0 1 1 1 1 -0 1 2 1 -0 -1 1 2 2 1 0 1 1 3 3 6 5
1 2 1 -0 0 -0 -1 -1 -0 0 -1 -2 -5 -3 1 1 1 2 2 2 2 -1 2 4 1 1 2 2 2 2 1 0 1 1 0 0 0 1 1 0 1 -0 2 3 4 4 2
2 2 -3 -5 -7 -5 -3 -3 -3 -3 -3 -3 -3 -2 -1 1 2 1 2 2 -0 3 2 3 3 1 2 2 2 2 2 3 1 -1 -1 -0 2 1 1 2 2 2 5 3 3 1 3
2 2 -4 -6 -9 -8 -7 -7 -6 -5 -3 -3 -3 -2 -1 -0 0 -1 -0 -1 1 3 3 1 1 1 2 3 2 3 3 4 2 1 3 0 0 2 1 2 4 4 6 7 7 5 6
-2 2 -2 -4 -4 -6 -7 -6 -5 -4 -2 -4 -5 -4 -2 -1 -1 -0 -1 2 3 2 1 1 2 2 4 2 3 3 3 3 2 1 4 3 1 -0 2 2 3 5 6 6 7 5 7
-2 -2 0 -1 -1 -2 -2 -3 -3 -3 -3 -3 -3 -2 -0 0 1 0 0 4 2 2 0 1 2 2 1 3 4 4 3 2 1 1 1 3 5 2 2 3 3 4 4 6 5 7 7
-1 -1 -1 -0 -1 -1 -2 -2 -2 -2 -4 -3 -2 -1 -1 -1 -1 -0 2 2 3 2 -0 1 0 1 1 2 2 4 3 2 2 3 2 3 4 3 2 4 3 4 4 4 4 4 7
-2 -1 -1 -1 -1 -1 -3 -3 -4 -3 -3 -3 -2 -1 -1 -1 0 0 2 3 2 2 2 1 -0 -1 0 1 3 3 3 2 2 2 4 3 4 5 3 1 0 2 3 2 2 3 3
-2 -2 -1 -1 -2 -2 -2 -3 -4 -4 -3 -5 -3 -1 -0 -1 1 -1 1 1 2 1 -0 -1 0 -0 -1 1 2 1 2 1 2 2 2 2 2 1 -2 -3 -2 2 2 1 1 0 3
-3 -2 -1 -1 -1 -2 -2 -3 -3 -3 -2 -3 -3 -1 -1 -1 1 1 1 1 2 -0 -1 -1 0 -1 -1 1 0 2 1 1 2 2 1 0 2 1 1 -0 1 2 1 -1 0 1 3
-9 -3 -1 -1 -1 -1 -2 -3 -3 -4 -3 -4 -3 -0 0 -1 -1 -1 1 1 1 2 0 -0 0 1 1 1 0 1 1 -0 0 1 1 1 2 -0 0 -0 0 1 1 -1 2 2 1
-16 -7 -5 -1 -1 -1 -1 -3 -4 -5 -4 -2 -2 -1 0 -2 -1 -1 -0 1 2 1 1 1 1 1 1 1 1 1 1 0 1 -1 0 -0 1 1 0 1 0 1 -0 -1 1 2 1
-11 -15 -8 -3 -1 -1 -0 -1 -3 -5 -5 -1 -0 -1 -1 -2 -1 -0 1 1 1 1 0 0 0 1 -0 1 0 0 0 -0 -0 -0 -0 0 0 -0 0 -1 0 1 -0 -1 1 1 1
-0 -16 -13 -7 -3 -1 -1 -1 -2 -4 -4 -1 -2 -2 -3 -1 -1 0 0 0 0 1 1 0 -0 0 -0 -0 -0 -0 0 0 -0 -0 -1 -0 -0 -0 1 -2 -3 -3 -4 -2 -1 -0 0
-1 -3 -19 -12 -7 -4 -1 -0 -0 -3 -4 -3 -3 -2 -2 -2 -1 -0 -0 -0 -0 -0 0 1 -0 -0 -0 -0 -1 -2 -2 -2 -1 -1 -1 -1 -0 0 0 -0 -3 -2 -2 -1 0 -1 -1
-4 0 -8 -22 -11 -7 -4 -1 -1 -1 -3 -3 -3 -3 -1 -1 -2 -0 -0 -0 0 -0 -0 -0 -0 -0 1 -0 -2 -1 -3 -2 -2 -4 -2 -1 -1 -0 1 2 -0 -5 -2 -2 -4 -2 -2
-11 1 -1 -17 -21 -9 -7 -5 -2 -1 -2 -3 -4 -3 -3 -2 -2 -1 -0 -0 0 0 -0 0 0 0 1 -0 1 -0 -1 -3 -1 -1 -3 -2 -1 1 1 1 0 -4 -2 -3 -3 -8 -2
-15 -1 1 -6 -23 -15 -8 -9 -3 -2 -1 -1 -2 -5 -4 -3 -4 -4 -2 -0 -0 0 0 -0 -0 -1 0 1 1 -0 -1 -2 -1 -3 -3 -3 -2 -1 -1 0 -0 -3 -2 -3 -5 -3 -2
-12 -8 2 0 -16 -22 -9 -9 -4 -2 -2 -1 -1 -2 -4 -4 -2 -2 -3 -2 -0 -0 -0 0 -0 -0 1 0 -0 -1 -0 -2 -3 -1 -5 -1 -4 -5 -2 -2 -6 -4 -4 -4 -4 -4 -3

GFSGBSN_850_dewp_105.txt.gz
Dewpoint
0 -0 1 3 2 0 2 1 -0 -2 -2 -1 -1 -1 -1 1 0 2 0 -3 -6 -4 0 5 7 6 4 3 5 5 4 -2 -4 -4 -4 -5 -6 -5 -3 -4 -5 -4 -3 -4 -4 -4 -4
2 2 3 3 3 3 2 0 -1 -3 -4 -4 -1 -0 -1 -1 0 2 1 -2 -1 -4 -0 3 6 6 4 5 5 4 -2 -3 -4 -6 -5 -7 -6 -6 -4 -3 -4 -2 -2 -3 -5 -5 -5
3 4 4 3 2 3 2 0 -1 -3 -2 -3 -2 -2 -1 1 1 2 -2 -2 -2 2 -2 5 6 5 4 4 5 2 -2 -3 -4 -4 -6 -5 -5 -7 -6 -3 -2 -3 -5 -5 -7 -4 -4
4 4 3 0 0 -0 1 -0 -1 -2 -3 -2 -2 -3 -2 -0 -1 -2 -3 -7 -5 2 -2 5 5 4 5 3 -0 -2 -3 -3 -4 -5 -6 -6 -7 -8 -3 -3 -6 -4 -6 -7 -7 -4 -4
2 4 2 1 -0 1 1 -0 -1 -3 -3 -2 -1 -1 -1 -1 -3 -5 -2 -1 -1 1 2 5 4 3 5 2 0 0 -1 -2 -3 -4 -6 -6 -9 -3 -5 -6 -6 -5 -6 -3 -3 -4 -3
2 3 2 -0 -0 -1 -1 -2 -3 -3 -1 -1 -2 -2 -2 -4 0 1 -1 -1 0 3 4 3 3 2 3 3 2 1 0 -2 -3 -3 -4 -5 -4 -2 -3 -3 -7 -6 -3 -2 -1 -3 -2
1 3 1 0 -1 -1 -4 -6 -4 -1 -5 -6 -6 -1 -1 -3 -1 2 1 2 3 2 3 3 3 2 3 2 2 0 -1 -3 -3 -3 -0 -2 -2 -3 -4 -5 -6 -4 -1 -1 -2 -3 -1
-1 2 3 -1 -2 0 -2 -5 -5 -4 -6 -4 -4 -1 -2 0 0 1 1 1 2 2 3 2 1 -0 -0 -1 0 -0 -1 -2 -2 -0 -2 -2 -1 -3 -3 -2 -1 -1 0 0 -1 -2 -0
-6 2 2 2 -2 -1 -1 -3 -3 -3 -4 -2 -4 -1 -0 2 1 2 -1 2 2 2 1 2 2 2 -0 -1 -0 -0 -1 -1 -2 -1 -1 -1 -2 -3 -2 -1 0 -1 1 -0 1 -1 1
-12 -2 -1 -2 -5 -5 -4 -5 -5 -6 -4 -0 1 -0 -0 2 1 2 1 2 1 0 2 3 2 -0 -0 -1 0 -0 -0 0 -1 1 1 -0 -2 -2 -1 0 -1 2 -1 -0 1 3 5
-6 -7 -5 -6 -6 -7 -7 -7 -7 -5 -2 -0 -0 1 1 1 2 2 2 2 2 1 2 3 2 1 1 -0 -1 -1 -0 0 1 1 -2 -2 -0 1 2 0 -1 1 -1 1 2 4 5
1 -1 -2 -1 -2 -2 -2 -3 -4 -4 -1 0 1 2 2 2 1 2 2 2 -2 -2 3 3 1 1 1 1 2 0 0 -1 -0 -1 -2 -1 -0 0 -0 0 -1 -0 2 3 3 3 3
-2 -1 -2 -1 0 -1 -1 -2 -3 -5 -3 -2 -1 1 2 1 1 1 -0 -3 -1 2 1 2 2 1 -0 2 1 1 1 0 -0 -2 -3 -1 0 0 0 2 1 2 5 4 2 1 3
-2 -2 -2 -3 -2 -2 -1 -1 -0 -3 -3 -0 -0 -0 -0 -0 -1 -1 -3 -2 -0 3 2 0 1 -0 2 2 1 2 2 1 1 0 -1 -0 -1 1 1 2 3 4 5 6 6 5 4
-2 -3 -3 -3 -3 -4 -3 -3 -2 -1 -2 -2 -1 -0 -0 -0 -1 -2 -3 1 0 1 -0 1 1 1 2 1 1 2 2 2 1 -0 1 2 1 -1 1 1 2 5 5 5 6 4 5
-2 -2 -2 -3 -3 -3 -4 -3 -2 -2 -2 -2 -2 -1 -1 -1 -1 -1 -0 2 1 1 -0 0 1 0 2 3 3 2 2 0 2 0 0 3 4 1 1 2 2 4 3 3 4 5 5
-3 -2 -2 -2 -3 -3 -4 -5 -4 -3 -3 -4 -3 -1 -1 -1 -1 -1 0 1 2 1 -0 0 0 1 -0 2 1 3 3 1 1 1 0 3 3 1 0 4 3 4 4 4 3 4 5
-10 -4 -2 -2 -1 -2 -4 -5 -6 -4 -3 -3 -2 -1 -1 -1 -0 -1 2 2 2 0 1 1 -1 -1 0 1 2 2 3 1 1 2 3 2 4 3 2 -0 -1 1 2 1 3 2 2
-13 -10 -6 -2 -2 -1 -2 -4 -8 -6 -4 -4 -2 -2 -2 -3 0 -2 -0 0 1 0 -0 -0 0 -1 -1 0 1 2 1 1 1 2 2 2 2 3 -4 -5 -2 1 2 0 1 0 3
-4 -14 -11 -6 -3 -2 -2 -3 -8 -9 -5 -4 -3 -2 -2 -1 0 -0 -0 0 0 -0 -0 -0 0 -1 -1 0 -0 1 1 0 2 2 2 2 1 1 1 -3 -2 1 1 -0 1 1 2
-3 -5 -15 -11 -7 -2 -2 -2 -5 -10 -6 -5 -2 -0 -1 -1 -1 -1 -0 0 1 1 -0 -0 -0 1 1 1 0 0 0 -0 1 1 2 0 2 0 1 1 1 1 1 0 1 0 2
-11 -1 -7 -16 -11 -8 -2 -2 -4 -10 -5 -4 -2 -1 -2 -1 -1 -1 -0 1 1 1 -0 0 0 0 0 1 -0 1 1 -0 -1 -1 1 -0 2 0 0 -0 0 2 1 0 0 -0 1
-11 -8 -1 -11 -15 -10 -7 -2 -2 -7 -5 -3 -1 -1 -2 -2 -2 -1 -1 0 -0 0 -0 -0 -1 -0 -0 -1 -0 -1 -0 -0 -1 0 -1 -0 1 -0 1 -1 -1 -2 -2 -0 -0 -1 -0
-5 -11 -5 -1 -15 -14 -9 -7 -2 -4 -5 -3 -3 -4 -4 -3 -1 -1 0 -0 -1 0 -0 -0 0 -0 -1 -1 -0 0 1 0 0 -0 -1 -0 -0 -1 1 -1 -7 -9 -4 -3 -1 -1 -1
6 -4 -10 -2 -2 -18 -14 -10 -6 -1 -4 -5 -4 -4 -3 -3 -3 -2 -0 -0 -0 -0 0 0 -0 -0 -0 -0 -1 -3 -5 -3 -1 -1 -1 -1 -1 0 0 0 -3 -10 -3 -2 -2 -3 -3
6 5 -3 -7 -0 -4 -19 -11 -11 -5 -1 -3 -4 -4 -3 -2 -5 -3 -0 -0 -1 -1 -1 -1 -0 -0 0 -2 -2 -3 -6 -6 -4 -4 -2 -1 -2 0 0 1 -3 -12 -4 -2 -5 -4 -8
6 6 5 -6 -4 0 -10 -18 -10 -11 -4 -2 -2 -4 -4 -3 -3 -3 -1 -1 -0 -1 -1 -1 -0 0 0 -1 -0 -1 -2 -4 -3 -3 0 0 -0 2 2 1 0 -4 -3 -4 -2 -10 -5
6 6 6 4 -7 -0 -1 -16 -14 -9 -6 -4 -2 -1 -3 -4 -5 -5 -4 -3 -1 -0 -0 -1 -1 -1 -1 0 0 -0 -1 -2 -2 -4 -4 -2 -2 -0 -0 1 1 -4 -3 -3 -6 -7 -5
6 6 6 5 5 -3 1 -6 -18 -10 -8 -4 -3 -1 -1 -2 -3 -4 -4 -4 -4 -3 -2 -0 -1 -1 -0 -1 -1 -1 0 -3 -3 -1 -6 -2 -5 -5 -3 -2 -6 -5 -4 -5 -4 -4 -4

GFSGBSN_850_dewp_108.txt.gz
Dewpoint
4 4 4 2 1 2 3 1 -0 -3 -4 -2 -2 -3 -2 0 2 2 1 -0 -3 1 0 2 4 6 4 4 5 5 3 -4 -5 -5 -6 -6 -6 -5 -5 -5 -5 -6 -5 -4 -4 -4 -4
4 4 -1 -1 -1 2 1 1 -1 -2 -2 -1 -0 -2 -3 -2 -1 1 2 -1 -3 -4 1 6 3 5 4 4 4 3 -3 -3 -4 -5 -6 -7 -5 -5 -5 -4 -6 -4 -4 -5 -5 -6 -5
2 2 -2 -1 0 0 -0 -1 -2 -3 -1 -4 -4 -4 -4 -1 0 1 1 -2 -0 -2 0 4 4 5 4 3 3 -1 -3 -4 -5 -6 -7 -7 -8 -5 -5 -4 -3 -4 -7 -7 -7 -5 -5
2 -0 0 -1 -2 -1 -3 -4 -1 -0 -4 -4 -3 -4 -3 -1 -1 -1 -2 -4 -0 -1 4 5 3 5 3 1 -1 -2 -3 -4 -6 -6 -8 -7 -8 -9 -3 -5 -7 -7 -8 -11 -7 -4 -4
1 2 2 1 2 -2 -8 -10 -9 -6 -5 -4 -2 -1 -1 -2 -3 -4 -6 -6 1 -1 3 5 4 4 3 0 -0 -1 -3 -4 -5 -6 -8 -8 -9 -3 -5 -7 -7 -8 -11 -8 -7 -4 -3
1 2 3 3 2 0 -4 -7 -7 -9 -8 -7 -3 -2 -3 -1 3 0 1 -1 2 2 5 4 4 3 3 1 -0 -0 -2 -4 -4 -5 -6 -7 -4 -3 -4 -2 -0 -9 -7 -5 -4 -4 -3
-0 2 2 3 2 1 -0 -4 -4 -4 -5 -6 -0 -0 -1 3 1 0 -1 3 3 2 2 3 4 3 2 2 0 -1 -2 -3 -3 -2 -2 -2 2 0 -2 -5 -5 -3 -2 -1 -4 -3 -0
-12 -0 2 2 3 2 1 -2 -4 -1 -1 -5 -1 -2 1 2 1 1 3 2 2 2 2 2 2 2 0 -0 -0 -0 -2 -2 -2 -1 -2 -1 1 -3 -3 -2 -1 -1 0 -0 -1 -2 0
-9 -11 -6 0 2 1 -1 -1 -1 -1 1 0 -1 0 2 2 2 1 1 2 2 1 2 3 1 1 0 -0 0 0 0 -1 -2 -0 -1 -1 -2 -3 -2 -1 1 0 2 1 2 1 0
-3 -6 -6 -5 -3 -1 1 -0 -1 1 1 1 1 0 2 1 -0 2 2 1 2 0 4 3 1 -0 0 -1 -1 -0 -0 1 -1 1 -0 -0 -2 -2 -1 -0 -0 3 -1 -0 2 4 5
1 1 -1 -2 -2 -2 -3 -3 -1 1 1 2 1 1 2 0 2 2 2 2 2 0 5 3 1 0 1 -0 -1 -1 -0 0 -1 -1 -1 1 -0 0 2 2 -1 2 -1 1 2 4 4
-3 -3 -2 -3 -2 -2 -1 -1 -3 -1 -1 1 2 1 0 -1 1 2 2 1 -2 5 4 3 1 0 -0 1 1 0 0 -1 -0 -1 -1 -1 -0 -0 -0 -0 -1 -1 3 3 3 3 5
-3 -3 -3 -3 -3 -3 -3 -2 -2 -1 -0 1 2 1 1 1 0 1 -0 -3 5 4 1 2 1 0 -0 0 1 0 0 1 2 5 5 -0 -0 -0 -0 2 2 2 5 6 7 7 6
-2 -3 -3 -3 -3 -4 -3 -2 -1 -3 -1 -0 -0 -1 -0 -0 0 -1 -3 0 3 2 1 0 -0 0 1 1 1 1 1 2 -0 0 3 5 5 1 1 2 3 2 3 5 7 7 5
-2 -2 -2 -2 -3 -4 -5 -4 -3 -2 -2 -1 -1 -1 -1 -2 -2 -2 -1 4 3 1 0 1 1 1 3 1 0 1 1 1 0 -0 4 5 5 -1 0 0 2 4 5 4 6 5 5
-4 -3 -2 -1 -2 -3 -5 -6 -4 -3 -3 -2 -2 -1 -1 -3 -3 -3 2 3 2 -0 -1 -0 1 -0 1 2 1 1 2 0 1 -0 0 2 6 0 2 2 2 3 3 4 5 6 6
-12 -7 -3 -3 -2 -2 -4 -7 -5 -3 -3 -3 -3 -1 -1 -1 -2 -0 4 2 0 0 0 -0 0 0 0 1 1 2 2 1 0 1 0 1 2 2 0 3 3 5 4 4 2 3 5
-7 -13 -8 -4 -3 -2 -2 -6 -8 -5 -4 -4 -2 3 -1 -2 3 2 4 1 0 -1 1 1 -1 -1 0 1 2 2 2 1 0 1 1 2 2 4 2 -0 -1 1 1 1 1 3 3
-2 -7 -14 -9 -5 -2 -2 -3 -9 -7 -6 -7 -3 -2 -2 -2 5 3 1 1 1 0 -0 0 0 -0 -1 1 1 2 1 1 1 1 2 2 2 4 -2 -1 -1 1 1 1 0 1 3
-9 -3 -7 -16 -11 -6 -2 -2 -9 -9 -6 -5 -5 4 -2 -2 -1 -0 0 1 1 -0 0 0 -0 -1 -1 1 0 1 1 1 2 1 2 2 2 2 -1 -4 -3 -0 -1 1 1 3 -0
-3 -8 -2 -8 -16 -12 -6 -2 -7 -8 -4 -4 -3 0 -1 3 0 0 0 0 1 1 -0 -0 0 0 -0 0 0 0 -0 -0 1 2 2 2 4 3 2 1 1 1 1 0 2 1 1
1 -4 -7 -2 -9 -16 -13 -5 -4 -8 -5 -3 -1 -0 -2 -1 -1 -1 -0 1 1 0 0 -0 0 0 -0 0 -1 -1 -1 -0 -1 1 2 1 4 2 3 -1 -0 1 -0 -0 0 -0 -0
5 1 -5 -5 -3 -11 -15 -13 -3 -7 -5 -3 -2 -2 -2 -1 -1 -1 -1 0 -0 0 -0 0 -0 -1 -0 -1 -1 -0 -0 -0 -1 -0 0 1 3 3 2 -1 -1 -1 -3 -2 -1 -1 -1
5 4 -0 -6 -4 -3 -14 -14 -12 -3 -7 -4 -3 -3 -4 -3 -1 -1 0 0 -0 0 0 -0 0 -0 -2 -1 -1 -0 0 0 0 -0 -0 1 1 2 4 1 -2 -7 -5 -4 -2 -3 -2
5 6 4 -3 -6 -2 -5 -16 -13 -11 -3 -5 -5 -3 -3 -5 -3 -2 -1 0 -0 -0 0 0 -0 -1 -1 -1 -1 -3 -5 -4 -2 -0 0 -0 1 3 4 1 -4 -7 -3 -2 -2 -4 -4
6 6 6 3 -5 -6 -1 -9 -15 -13 -9 -3 -4 -4 -3 -2 -4 -3 -1 -0 -0 -1 -1 -1 -0 -0 -0 -1 -2 -2 -6 -7 -6 -3 -1 -0 -0 2 1 2 -3 -10 -5 -3 -3 -4 -7
6 6 6 6 3 -4 -4 -1 -13 -13 -11 -6 -3 -2 -4 -2 -4 -3 -2 -2 -1 -1 -1 -1 -0 0 0 0 -1 -2 -3 -4 -4 -4 1 2 2 3 2 2 0 -4 -4 -3 -3 -8 -6
5 6 6 5 5 5 -3 -1 -4 -15 -12 -9 -5 -3 -1 -4 -4 -4 -4 -3 -1 -0 -2 -1 -1 -0 0 1 0 -1 -1 -2 -2 -4 -3 -1 1 1 1 3 3 -4 -2 -4 -6 -7 -6
4 5 5 5 5 5 4 -4 1 -9 -14 -8 -5 -3 -2 -1 -2 -2 -2 -4 -4 -3 -3 -2 -1 -1 -0 0 -1 -1 0 -1 -2 -2 -5 -2 -5 -5 -3 -3 -5 -4 -4 -5 -5 -4 -4

GFSGBSN_850_dewp_111.txt.gz
Dewpoint
-3 -3 -0 -0 0 -1 -1 -2 -2 -4 -4 -4 -6 -4 -2 1 2 2 1 -1 -5 1 0 6 6 5 3 5 5 4 0 -4 -3 -2 -4 -6 -8 -7 -5 -6 -7 -7 -7 -6 -5 -5 -7
-2 -4 3 3 2 1 1 1 -3 -2 -3 -6 -7 -4 -2 -0 -1 -1 1 0 -7 0 5 5 4 5 4 4 4 -0 -2 -4 -3 -3 -3 -5 -7 -6 -7 -7 -6 -6 -6 -7 -7 -8 -7
1 -0 2 3 2 1 -1 -0 0 -1 -2 -1 -2 -3 -0 -1 0 2 1 -4 -3 -1 5 6 4 1 4 3 1 -1 -3 -5 -4 -3 -3 -4 -5 -6 -7 -6 -5 -7 -7 -8 -7 -6 -6
1 1 2 3 2 1 1 0 -0 0 0 -0 -1 -2 -1 -1 2 -1 -3 -5 0 1 3 5 5 4 2 0 0 -1 -2 -3 -6 -7 -6 -4 -4 -4 -5 -7 -9 -7 -9 -7 -7 -6 -4
1 2 2 2 2 1 0 0 0 -2 -1 -0 -2 -3 -2 -3 -3 -4 -5 -4 2 3 5 4 4 3 2 -0 -0 -1 -2 -2 -5 -8 -9 -10 -7 -5 -6 -7 -7 -9 -8 -10 -4 -5 -4
1 1 1 1 2 2 1 0 -0 -2 -6 -2 -2 -5 -3 1 -3 -7 -5 2 2 3 4 3 2 2 2 1 1 -0 -1 -1 -2 -3 -4 -4 -4 -4 -6 -1 5 -6 -10 -8 -8 -4 -3
-3 -6 0 -0 1 1 1 1 1 -1 -2 -2 -2 -1 1 1 -2 -2 2 3 3 2 4 4 4 3 2 1 0 -1 -0 -2 -2 -3 -4 -4 3 3 -3 -6 -5 -5 -5 -4 -6 -3 -0
-2 -5 -5 -4 -2 1 1 1 1 1 -1 -1 -2 2 1 1 0 2 3 2 2 2 2 3 3 2 1 0 -1 -1 -1 -3 -3 -2 -3 -1 2 -3 -3 -2 -2 -2 -1 -2 -2 -2 0
3 3 0 -0 -1 -2 -0 2 2 1 2 -1 0 1 2 1 2 2 1 2 2 3 3 3 2 1 0 -0 -0 0 -0 -2 -2 -1 -3 -1 -2 -3 -3 -1 0 -0 1 1 3 1 0
-3 -3 -1 -1 2 1 -0 -0 1 2 1 -0 1 1 1 1 2 2 1 1 1 2 4 2 1 -0 0 -0 -1 0 1 0 -2 -0 -1 -1 -3 -2 -2 -1 -0 3 -1 1 3 4 6
-4 -4 -3 -3 -2 -2 -2 -2 1 2 2 -0 1 0 -0 2 2 3 1 1 0 1 6 1 0 1 0 -1 -1 -1 0 -1 -1 -1 -0 1 -1 -0 1 3 -1 2 0 2 3 3 4
-3 -3 -4 -4 -3 -1 -1 -2 -0 1 2 1 0 0 1 2 1 0 1 -1 -1 6 5 2 -0 -0 -1 -1 -0 -1 -1 -1 -1 -1 -1 -1 -1 -1 0 -0 -1 -0 3 3 2 3 7
-2 -2 -3 -4 -4 -4 -2 -1 -1 0 1 1 -0 -0 0 -2 2 1 -2 -2 6 5 -0 1 -0 -1 -1 -0 -1 -1 -0 1 2 5 5 -0 -0 -0 -0 3 2 3 5 8 8 8 7
-3 -2 -1 -3 -4 -5 -5 -2 -2 -2 -0 -1 -0 0 -0 -1 -0 -0 -1 1 4 2 1 -1 -1 -1 1 0 -0 0 0 2 -0 -1 3 6 5 1 1 2 3 2 3 6 7 7 5
-9 -4 -3 -2 -3 -5 -7 -4 -3 -2 -2 -1 -1 -1 -1 -1 -2 -2 1 5 3 1 -1 -1 -0 0 2 -0 -0 0 1 1 0 -1 4 6 6 -1 -0 -0 2 3 4 2 5 3 5
-14 -11 -4 -3 -2 -3 -7 -6 -4 -3 -3 -2 -2 -0 -1 -2 -3 1 2 3 1 -1 -1 -1 -1 -1 0 0 1 1 1 0 1 -0 -0 2 6 0 1 1 1 3 2 4 5 5 5
-4 -14 -11 -6 -3 -2 -4 -9 -6 -4 -4 -4 -3 1 -2 -1 0 1 6 1 -0 -1 -1 -1 -1 -1 -0 1 0 1 1 -0 -1 -1 -1 0 2 2 0 3 3 4 4 3 1 1 4
-4 -4 -15 -12 -7 -3 -3 -9 -8 -7 -6 -4 -0 4 -3 0 4 2 3 -0 -1 -0 0 -0 -1 -1 -0 0 1 0 0 -0 -1 -0 1 0 1 3 1 -1 -0 1 1 0 1 -0 1
-8 -4 -5 -15 -13 -7 -2 -5 -12 -9 -8 -7 -1 0 -3 -0 5 3 1 1 0 0 -0 -0 -0 -1 -1 -0 0 0 -0 -0 0 0 1 0 2 4 1 -2 -2 1 -1 -0 -0 -0 1
-1 -7 -4 -5 -15 -13 -7 -3 -10 -9 -7 -6 -0 5 -0 0 1 -1 -0 0 1 0 -0 -0 -1 -1 -1 -0 -1 0 -0 0 1 1 1 1 1 2 1 -3 -2 -1 -2 -1 0 3 0
4 0 -5 -4 -5 -15 -14 -5 -6 -9 -6 -5 -2 1 -0 3 -0 -1 -0 -1 0 1 -0 -0 -0 -0 -0 -1 -1 -1 -2 -1 1 2 2 2 3 2 1 -0 -1 -1 -1 -1 -0 0 2
5 4 0 -4 -3 -7 -15 -14 -5 -8 -5 -5 0 -0 -1 -1 -1 -1 -1 -0 -1 -0 -0 -1 0 -1 -1 -0 -1 -0 -1 -2 -3 1 2 1 3 1 3 -1 -2 -1 -2 -2 -2 -1 -1
4 5 4 1 -4 -3 -8 -15 -13 -6 -7 -3 -3 -3 -1 -1 -2 -2 -3 -1 -1 -0 -0 -1 -1 -2 -2 -2 -2 -2 -2 -2 -2 -2 1 1 2 3 2 -2 -1 -0 -3 -3 -3 -3 -3
4 5 5 4 0 -4 -2 -9 -14 -10 -5 -6 -5 -4 -3 -5 -2 -3 -1 -1 -1 -1 -1 -1 -1 -1 -1 -2 -1 -1 -1 -1 -2 -2 -2 -1 1 1 3 1 2 -5 -6 -6 -5 -5 -5
5 4 5 5 3 -2 -4 -2 -11 -14 -7 -4 -6 -4 -2 -5 -6 -5 -2 -1 -1 -1 -0 -0 -1 -1 -0 -1 -2 -3 -4 -4 -2 -2 -1 -1 -0 2 3 1 -2 -5 -4 -3 -3 -5 -6
4 5 5 5 5 5 2 -4 -2 -12 -13 -7 -4 -4 -2 -3 -5 -5 -4 -3 -2 -3 -2 -1 -0 -0 0 -2 -3 -2 -6 -8 -6 -1 -2 -1 -0 1 0 2 -1 -8 -4 -4 -3 -2 -6
4 4 4 4 5 5 5 1 -4 -3 -11 -12 -6 -4 -3 -2 -3 -3 -4 -4 -2 -2 -3 -1 -0 1 1 -1 -1 -3 -4 -5 -6 -5 1 1 1 3 3 2 -1 -5 -4 -3 -3 -6 -6
4 4 4 4 5 5 5 5 -0 -1 -4 -11 -8 -5 -3 -1 -2 -4 -4 -2 -1 -1 -4 -1 -0 0 1 1 -2 -2 -2 -4 -3 -7 -4 -1 1 2 1 1 2 -5 -3 -4 -7 -6 -6
4 3 3 4 4 4 4 4 5 0 -0 -6 -8 -6 -4 -3 -3 -5 -4 -4 -4 -2 -2 -1 -2 -2 -2 0 -1 -2 -1 -2 -4 -4 -6 -4 -6 -5 -3 -1 -5 -4 -7 -5 -4 -4 -5

GFSGBSN_850_dewp_114.txt.gz
Dewpoint
1 4 3 3 1 2 1 -1 0 0 0 -2 -4 -2 0 1 1 1 1 -4 -5 0 2 5 4 6 5 5 4 1 -2 -6 -6 -4 -4 -5 -6 -6 -4 -5 -7 -7 -6 -7 -5 -5 -7
0 3 3 3 1 1 1 -0 1 0 -0 -1 -2 -1 -0 1 -2 -2 1 -3 -4 1 2 5 5 5 4 3 1 -1 -2 -3 -2 -3 -4 -6 -7 -7 -7 -7 -6 -6 -6 -7 -7 -8 -8
-0 2 2 2 1 1 0 1 0 -1 -2 -4 -4 -2 -3 -3 -0 1 -0 -3 -0 3 5 4 3 3 3 1 0 -1 -2 -3 -3 -3 -4 -5 -6 -6 -6 -5 -6 -7 -6 -7 -7 -7 -6
2 1 0 1 2 1 1 -0 -0 -1 -1 -1 -1 -1 0 1 1 -0 -4 -1 -2 1 5 4 4 4 2 -0 -0 -2 -2 -3 -5 -4 -6 -6 -5 -6 -6 -7 -9 -7 -9 -4 -6 -6 -4
1 -0 1 0 -0 2 2 1 -1 -1 -1 -1 -2 -2 -1 1 -2 -5 -2 -1 3 5 4 3 4 2 2 0 -0 -1 -2 -3 -6 -8 -10 -11 -6 -6 -7 -6 -4 -8 -5 -7 -3 -5 -4
-3 -3 -1 2 2 2 2 2 1 -1 -0 -2 -1 -0 -0 -3 -5 -6 2 1 4 4 4 3 2 1 2 1 1 -1 -2 -2 -3 -5 -6 -5 -4 -2 -4 4 6 -2 -8 -8 -7 -2 -3
3 3 2 3 0 0 2 2 2 -1 -1 -1 1 1 -1 -3 -6 3 3 3 3 3 3 4 3 1 -0 -0 -1 -1 -2 -2 -3 -3 -3 -4 6 4 -3 -4 -4 -4 -4 -4 -5 -2 -0
-3 -1 0 1 3 3 1 2 2 1 -0 0 2 1 -1 -4 2 3 2 2 2 2 2 3 2 2 0 -0 -1 -0 -1 -2 -2 -1 -4 1 2 -3 -3 -2 -1 -1 -1 1 0 -2 1
-2 -3 -2 -1 2 1 2 2 1 1 -0 -0 1 1 1 2 2 2 1 2 2 2 2 3 3 2 1 -0 0 0 0 -2 -2 -2 -1 2 -1 -3 -3 -1 1 -0 2 2 3 2 2
-3 -3 -3 -3 -0 -1 -1 1 1 -0 -0 1 1 1 1 1 2 3 2 1 1 3 4 3 2 0 -0 -0 -1 0 0 0 -1 0 0 -0 -3 -3 -2 1 0 4 -0 1 3 4 6
-3 -3 -3 -4 -3 -1 -1 0 1 0 -1 0 1 1 2 1 2 3 1 0 -1 4 5 1 0 0 -0 -0 -1 -1 -1 -1 -0 -1 -0 0 -1 -0 1 3 -1 3 1 2 3 3 3
-2 -2 -3 -3 -5 -2 -2 -0 1 0 -0 -1 -0 -0 1 2 3 1 -0 -2 3 6 4 1 -1 -1 -1 -1 -1 -1 -1 -1 -1 -1 -0 -0 -1 -0 1 -0 -0 -0 3 4 2 3 5
-5 -3 -3 -3 -4 -5 -3 -2 -1 -0 -0 -0 0 0 1 1 2 -0 -1 1 5 4 -1 1 -0 -2 -1 -1 -1 -1 0 1 3 5 4 1 1 -0 -0 3 2 3 5 5 6 8 6
-11 -5 -3 -3 -4 -6 -5 -3 -2 -1 -1 -1 -0 0 -1 -2 -1 -1 -1 4 3 2 1 -2 -1 -1 1 -1 -0 0 1 3 -1 -0 4 5 3 2 1 2 3 2 3 3 5 5 4
-14 -12 -5 -3 -3 -6 -7 -4 -3 -2 -1 -2 -2 -1 -1 -2 -2 -2 3 4 3 1 -2 -1 -0 1 1 -0 0 0 1 1 -0 -1 4 5 5 -1 0 -0 2 3 4 2 4 3 4
-4 -13 -12 -6 -2 -4 -8 -7 -5 -4 -3 -3 -2 2 -1 -1 1 2 4 3 2 -2 -2 -1 -1 -1 1 1 1 1 1 0 1 -1 -0 1 5 1 1 1 1 3 1 4 5 4 5
-4 -5 -13 -13 -6 -3 -5 -10 -7 -6 -6 -4 -1 2 -3 -1 2 1 5 2 -0 -1 -0 -0 -1 -1 0 1 0 1 1 -0 -1 -1 -1 0 2 3 1 3 5 4 5 3 2 2 4
-2 -3 -4 -13 -15 -8 -3 -10 -11 -8 -7 -4 1 6 -3 1 5 2 5 -0 -1 -0 0 -0 -1 -0 -0 -0 0 -0 0 0 -1 -1 1 1 2 4 3 0 -0 1 3 2 3 1 1
3 0 -3 -3 -11 -16 -8 -5 -11 -9 -8 -7 -0 0 -2 2 7 5 1 1 0 0 -0 -0 -0 -0 -1 -1 1 -0 -0 -0 -0 0 2 1 3 3 2 -0 -1 1 0 1 0 1 2
4 3 1 -3 -3 -10 -17 -7 -8 -8 -7 -7 -0 5 0 -0 -0 -0 0 0 1 -0 -0 -0 -0 -1 -1 -0 -1 0 -0 1 -0 1 1 1 2 2 2 -1 0 1 -0 -1 1 3 2
4 5 4 1 -2 -3 -10 -17 -8 -8 -6 -2 -0 1 0 6 0 -1 -0 -1 1 1 0 -0 -0 -0 -0 -0 -1 -0 -2 0 1 1 1 2 3 2 2 1 1 1 0 -0 0 1 2
4 5 4 3 0 -2 -3 -10 -16 -8 -6 -5 1 1 -1 -1 -1 -1 -1 0 -0 -0 -0 -0 1 -1 -1 0 -1 -0 -2 -2 -2 2 2 2 3 2 1 0 0 1 -0 -1 -1 -1 -1
4 5 5 4 2 -1 -2 -4 -11 -14 -8 -5 -3 -3 -1 -2 -2 -2 -1 -1 -1 -1 -1 -1 -1 -1 -1 -1 -2 -2 -2 -2 -2 -1 2 2 2 2 3 1 1 2 -1 -2 -2 -3 -2
4 5 5 5 5 4 1 -2 -5 -12 -11 -7 -7 -5 -2 -1 -2 -3 -2 -2 -1 -1 -0 -2 -1 -1 -1 -2 -3 -3 -1 -1 -2 -2 -2 -1 1 2 2 1 3 -1 -7 -6 -4 -4 -4
4 4 4 4 5 5 5 0 -3 -6 -12 -10 -6 -6 -1 -1 -5 -6 -3 -2 -2 -1 -1 -1 -1 -1 -1 -2 -0 -2 -2 -2 -2 -2 -2 -2 -0 2 2 2 1 -2 -5 -4 -3 -4 -5
4 4 4 4 4 4 4 5 -0 -3 -6 -11 -9 -5 -4 -0 -3 -5 -4 -5 -2 -2 -2 -1 -1 -1 -2 -0 -1 -1 -2 -6 -2 -0 -2 -1 -1 1 1 3 2 -4 -4 -4 -3 -1 -6
4 4 4 4 3 4 4 4 4 3 -2 -6 -8 -9 -5 -1 -3 -4 -4 -3 -3 -2 -1 -1 -0 0 1 0 1 -1 -1 -5 -5 -4 1 1 1 2 2 2 1 -4 -4 -3 -4 -6 -7
4 4 3 3 3 4 4 4 4 4 2 -2 -5 -7 -6 -1 -6 -5 -5 -4 -3 -2 -2 -1 -0 1 1 2 0 -1 -1 -4 -3 -5 -0 1 2 2 1 2 2 -3 -3 -4 -6 -7 -7
3 4 4 3 2 3 4 3 3 4 4 2 -2 -5 -7 -5 -5 -6 -6 -6 -3 -3 -2 -2 -2 -1 -1 1 0 -1 -1 -2 -3 -2 -7 -4 -3 -2 -0 -0 -4 -4 -5 -6 -5 -5 -5

GFSGBSN_850_dewp_117.txt.gz
Dewpoint
3 2 2 2 1 1 2 0 -0 -2 -2 -5 -0 1 2 3 2 1 -2 -5 -1 -0 4 4 5 5 4 2 1 -1 -4 -6 -6 -2 -2 -4 -6 -5 -3 -5 -8 -5 -6 -6 -6 -7 -7
3 3 2 1 1 1 0 -2 1 -0 -3 -6 -5 -3 1 0 -2 0 -1 -4 1 1 3 5 6 5 4 1 -1 -2 -2 -3 -3 -4 -5 -6 -7 -7 -7 -7 -5 -6 -7 -6 -7 -8 -8
3 2 2 2 2 2 0 -6 -4 0 0 -4 -2 -2 -3 -3 1 1 -3 0 3 5 5 4 4 4 1 -0 -1 -2 -3 -3 -3 -4 -5 -7 -7 -7 -7 -6 -7 -8 -6 -7 -7 -7 -6
3 3 2 2 3 3 2 -3 -2 -1 -2 -1 -3 -0 1 1 1 -3 -1 1 4 4 4 3 3 4 2 -1 -1 -2 -4 -5 -4 -6 -6 -7 -6 -6 -7 -8 -9 -7 -9 -5 -6 -6 -4
3 3 2 1 2 3 3 1 -2 -1 -2 -4 -3 -1 1 -1 -3 -1 1 4 4 5 5 4 4 2 1 -0 -1 -2 -3 -5 -8 -9 -9 -8 -11 -9 -7 -5 -4 -7 -6 -6 -4 -5 -4
3 2 2 3 3 2 2 2 -1 -4 0 1 1 -0 -1 -5 -3 3 3 4 4 4 4 3 3 2 1 -1 -1 -2 -3 -4 -8 -7 -9 -7 -4 -2 -2 2 1 -3 -6 -7 -5 -3 -3
4 3 3 2 2 3 2 2 1 -1 1 2 -1 -1 -4 -3 2 2 3 4 3 3 3 3 2 1 -1 -1 -1 -2 -2 -4 -3 -3 -5 -2 -1 -2 -2 -3 -4 -3 -3 -3 -2 -3 0
-1 3 3 3 2 3 2 0 -0 -1 1 1 -2 -6 -3 3 2 3 2 2 2 2 2 2 1 1 0 -0 -1 -1 -1 -2 -2 -3 -3 -1 -1 -2 -3 -2 -1 -1 -1 2 -0 -0 1
-2 -3 3 3 2 0 2 1 -1 -2 1 -0 -0 1 2 2 1 1 1 1 1 2 3 2 1 1 -0 -1 0 -0 -1 -2 -2 -0 -0 -0 -1 -3 -2 -1 2 0 1 1 2 2 2
-2 -3 -4 0 -1 -0 -0 -1 -1 -1 0 1 -2 0 2 2 2 2 3 2 2 3 2 3 1 -1 -0 -0 -1 -1 -1 -0 -1 1 -0 -1 -3 -2 -1 0 1 2 0 1 3 2 2
-2 -3 -4 -4 -2 -2 -0 -1 -1 -2 -0 2 1 2 2 0 0 1 -0 -1 -0 4 3 2 1 -0 -0 -1 -2 -2 -1 -2 -1 -1 -0 -0 -1 -0 2 -0 -1 3 1 2 3 3 2
-3 -3 -3 -5 -4 -2 -2 -2 -1 -1 -1 -0 1 2 2 2 2 0 -0 -1 4 2 3 2 -0 -0 0 -1 -1 -1 -1 -2 -1 1 -0 -1 -1 -1 1 -0 -1 -0 3 4 2 2 4
-10 -3 -3 -4 -6 -4 -3 -2 -2 -2 -1 -1 -0 0 1 1 2 1 -0 2 -0 2 -1 1 0 -1 -1 -0 -0 -0 0 1 1 -5 -0 2 0 -0 -0 2 1 2 4 1 5 5 4
-16 -11 -3 -3 -5 -7 -4 -3 -2 -2 -2 -2 -1 -1 -1 -1 -1 -1 -0 -1 1 0 1 -1 -1 -1 1 0 -0 0 1 1 -1 0 2 0 -4 2 1 2 3 4 2 1 -1 3 3
-6 -16 -12 -3 -3 -7 -7 -5 -3 -2 -2 -2 -1 -1 -1 -1 -1 -0 2 1 -0 0 -1 0 -0 1 1 -0 0 0 1 1 -0 -0 2 1 2 -0 0 -0 2 4 3 2 1 1 1
-3 -5 -14 -15 -4 -4 -10 -8 -6 -5 -4 -4 -2 2 -1 1 2 2 0 2 0 -2 -2 -1 0 -2 1 1 1 1 1 -0 0 -0 -0 2 3 1 1 1 1 3 2 3 2 1 3
-0 -2 -4 -13 -16 -6 -5 -11 -9 -7 -5 -4 1 2 -2 -0 3 -1 0 0 -0 -1 0 1 -0 -1 1 1 0 1 1 -0 -1 -0 -1 0 2 2 1 3 4 4 4 4 2 2 3
3 0 -2 -4 -11 -16 -7 -8 -10 -9 -5 -2 1 -0 0 1 1 2 0 -0 -1 -1 0 1 -0 -0 -0 -0 0 0 1 1 -1 -1 2 1 2 2 2 -0 1 2 3 2 2 1 1
4 3 1 -2 -3 -10 -16 -8 -10 -8 -8 -6 -2 0 -0 1 1 -0 1 1 0 0 0 0 0 -1 -1 -0 1 -0 -0 -0 -0 0 2 1 2 0 1 -1 -1 1 0 2 1 1 2
4 4 3 0 -1 -2 -10 -15 -9 -9 -7 -5 -1 -0 -1 -1 -0 -0 0 1 1 -0 0 -0 -0 -1 -1 -0 -1 0 0 1 -0 0 1 1 2 0 -5 -3 -0 1 0 0 2 1 1
4 4 4 3 1 -1 -2 -11 -13 -8 -8 -2 -0 -1 1 1 0 -1 -1 -1 1 1 -0 -0 -0 -0 0 1 -1 0 -1 1 1 1 1 1 3 1 1 1 1 2 2 1 1 0 2
4 4 4 4 4 3 -1 -2 -12 -12 -7 -6 -1 0 -1 -1 -1 -1 -1 0 -0 -0 -0 -0 0 -1 -1 0 -1 0 -1 -2 -1 2 2 2 2 2 0 1 1 1 0 0 0 0 -0
4 3 3 3 3 4 3 -2 -2 -8 -12 -8 -3 -3 -1 -1 -2 -2 -1 -1 -1 -1 -1 -1 -1 -1 -1 -1 -1 -2 -2 -2 -2 1 2 2 2 1 2 0 0 1 -1 -2 -2 -1 -1
4 4 3 3 3 3 4 3 -1 -3 -7 -9 -7 -3 -2 -2 -3 -2 -2 -2 -1 -1 -0 -1 -1 -1 -1 -1 -3 -4 -2 -2 -2 -1 0 0 1 0 1 0 1 -5 -5 -7 -3 -3 -3
5 4 4 3 3 3 3 4 4 -0 -2 -8 -10 -7 -3 -2 -3 -5 -4 -3 -2 -1 -1 -2 -2 -1 -1 -2 -1 -2 -4 -3 -2 -1 -1 -2 -0 0 1 1 -1 -1 -4 -5 -5 -5 -5
4 4 4 3 3 3 3 3 3 4 1 -3 -6 -9 -5 -1 -3 -5 -4 -4 -3 -2 -3 -1 -1 -1 -1 -0 -1 -1 -2 -4 -5 -1 -2 -1 -1 -0 1 2 3 -4 -5 -4 -6 -5 -8
3 3 3 3 2 3 3 3 3 3 3 2 -1 -5 -6 -2 -5 -3 -4 -4 -3 -2 -2 -1 -1 -1 -0 0 1 -0 -1 -6 -5 -4 1 1 1 2 2 2 1 -3 -4 -4 -4 -6 -6
2 2 2 2 3 3 2 3 3 3 3 3 2 1 -1 -5 -4 -5 -4 -4 -2 -2 -3 -2 -2 0 1 1 1 -0 -2 -3 -3 -4 -0 1 1 1 1 1 2 -4 -3 -4 -5 -7 -7
2 2 1 2 3 4 3 3 4 3 3 4 3 2 2 -0 -1 -1 -3 -4 -4 -4 -3 -3 -2 -0 0 1 0 -1 -1 -2 -2 -1 -5 -1 -2 0 -0 -0 -4 -4 -5 -6 -6 -8 -7

GFSGBSN_850_dewp_120.txt.gz
Dewpoint
3 3 2 3 2 2 0 -0 -1 -1 0 -4 1 2 3 2 1 0 -1 -1 -1 3 4 3 5 4 4 0 -0 -3 -6 -7 -3 -1 -2 -3 -5 -4 -4 -6 -7 -5 -6 -5 -6 -8 -9
2 4 3 3 2 1 -6 -1 -1 -0 -2 -5 -3 0 1 -1 -0 -2 -5 -2 0 4 5 6 5 4 3 0 -2 -3 -5 -6 -3 -2 -4 -6 -7 -6 -6 -6 -6 -6 -6 -6 -8 -8 -8
3 3 3 3 3 1 -4 -2 -1 1 -0 -3 -2 -4 -1 -1 -0 -2 -2 1 3 4 5 6 5 4 1 -1 -2 -4 -5 -5 -4 -5 -6 -7 -7 -7 -7 -6 -7 -7 -7 -8 -7 -7 -6
2 2 3 4 2 2 -1 -2 -2 -4 -1 0 -0 -1 -1 0 -2 -3 0 5 5 4 4 5 5 4 -0 -1 -2 -4 -5 -5 -5 -6 -7 -6 -7 -8 -7 -8 -9 -8 -9 -7 -7 -6 -4
3 3 3 3 3 2 1 -3 -4 0 -2 -1 -0 -0 -1 -5 -0 2 1 4 5 4 4 4 3 1 -0 -2 -2 -3 -7 -7 -8 -8 -7 -7 -11 -8 -6 -5 -4 -6 -6 -7 -5 -6 -4
3 3 3 3 3 1 2 -2 -1 2 1 -1 -1 -6 -6 2 2 4 4 5 4 4 4 3 2 -1 -1 -1 -3 -3 -6 -9 -9 -10 -11 -8 -4 -3 -3 -1 -5 -3 -8 -7 -5 -3 -3
1 3 3 3 3 1 2 -2 1 1 1 -1 -3 -8 0 3 4 2 4 3 3 1 1 2 3 -0 -0 -0 -1 -2 -4 -3 -4 -6 -4 -2 -2 -2 -2 -3 -4 -4 -4 -4 -1 -2 1
-0 0 3 3 2 1 -2 -2 1 -1 -1 -4 -3 2 2 1 4 3 3 2 2 2 2 2 0 0 0 -0 -1 -1 -2 -3 -4 -4 -2 -2 -1 -3 -3 -2 -2 -2 -2 0 -1 -0 1
-3 -4 -1 3 0 -1 -2 -1 0 -1 -2 1 2 2 2 3 3 2 1 1 1 2 1 1 0 -0 -1 -2 -1 -1 -1 -2 -2 -1 -1 -2 -2 -3 -2 -0 -0 0 -0 1 2 2 1
-4 -5 -3 -2 -1 -1 -1 -1 -0 -2 -3 -1 2 2 2 3 2 2 0 0 2 1 3 2 1 -1 -0 -1 -3 -1 -1 -1 -1 -1 -2 -2 -3 -2 -1 -1 1 1 0 2 3 1 -0
-4 -5 -5 -3 -2 -2 -1 -1 -0 -1 0 1 2 2 2 3 3 0 -0 -2 -1 2 3 2 1 -1 -1 -2 -4 -2 -1 -2 -1 -0 -3 -2 -1 -0 1 -1 -0 2 1 2 3 3 1
-3 -4 -6 -5 -3 -2 -2 -1 -1 -1 0 1 1 1 1 1 1 1 1 1 3 -1 3 1 0 -1 -0 -1 -1 -1 -2 -2 -1 -1 -1 -1 -1 -1 0 -0 -1 0 3 3 2 2 0
-11 -3 -4 -6 -5 -3 -3 -2 -2 -1 -1 -0 0 1 -0 -0 -1 -1 -0 3 -1 1 -1 1 -0 -1 -1 -0 -0 -0 -0 0 0 -4 -2 0 0 -0 -0 2 1 2 1 -1 -2 5 2
-12 -12 -3 -4 -7 -6 -3 -3 -2 -2 -2 -1 -1 -1 -1 -1 -2 -1 0 -2 1 -0 1 -2 -1 -1 1 -0 -0 -0 1 1 -1 -0 2 -3 -5 1 0 2 3 4 1 -1 -5 0 2
-4 -11 -15 -6 -3 -8 -8 -6 -5 -4 -3 -2 -0 0 -1 1 1 1 0 1 -1 -0 -1 -0 -0 1 1 -1 -0 0 1 1 -0 -0 -0 1 0 0 0 -0 1 3 3 0 0 -2 -1
-2 -3 -10 -15 -11 -4 -8 -10 -8 -7 -5 -4 -1 0 -1 2 2 1 -0 1 0 -1 -2 -1 -0 -1 1 1 1 1 1 -0 0 -1 -0 1 2 1 0 1 1 3 1 2 1 -1 1
2 -1 -2 -7 -14 -11 -7 -8 -9 -7 -4 -2 1 1 1 2 2 -2 0 -0 -1 -1 -0 -0 1 -0 0 1 1 1 1 -1 -0 -0 -1 0 1 2 2 3 3 3 4 3 2 1 3
3 2 0 -2 -5 -14 -11 -8 -7 -8 -3 -1 1 -1 1 1 -0 0 -0 -0 -1 -1 0 1 -0 -1 -0 -0 0 1 1 0 -1 -1 1 0 1 2 2 -1 0 1 3 2 2 -1 1
4 3 2 1 -1 -4 -13 -11 -8 -7 -7 -3 -1 1 -0 0 -0 -1 1 1 0 -0 0 0 0 -1 -1 -0 0 -1 0 -0 -0 -0 1 0 1 -0 -4 -2 -1 2 2 2 0 0 1
4 4 4 3 1 -1 -3 -12 -11 -7 -6 -3 -1 -2 -1 -1 -1 -0 0 1 1 -0 0 -0 -0 -1 -1 -0 -1 -0 0 0 -0 0 1 1 1 -1 -8 -8 -1 1 1 1 2 2 2
3 3 3 3 3 2 -0 -2 -9 -11 -7 -3 -3 -1 1 -0 -1 -1 -1 -0 1 1 -0 -0 -0 -0 -0 1 -0 0 -1 1 0 1 1 1 2 1 1 1 1 1 1 1 1 2 2
3 3 2 2 2 3 2 1 -0 -9 -9 -7 -2 -1 -1 -1 -1 -2 -1 -0 -0 -0 -0 -0 0 -1 -1 0 -1 -0 -1 -1 -1 2 1 1 1 2 1 1 1 2 0 1 1 1 0
3 3 2 2 2 2 3 3 1 -0 -9 -10 -5 -3 -2 -1 -2 -3 -2 -1 -1 -2 -1 -1 -1 -1 -1 -1 -1 -2 -2 -2 -2 2 2 2 2 1 2 -0 -0 0 -2 -3 -1 -1 -1
4 3 3 2 2 2 2 3 3 1 -1 -9 -10 -6 -4 -3 -3 -3 -2 -2 -2 -1 -2 -1 -1 -1 -2 -1 -2 -3 -2 -1 -1 -1 1 1 1 0 2 -0 -2 -6 -5 -5 -3 -3 -2
3 3 3 3 2 2 2 2 2 3 1 -2 -5 -8 -6 -5 -3 -4 -4 -3 -2 -1 -1 -1 -2 -2 -1 -1 -1 -3 -5 -4 -1 -2 -1 -1 0 0 1 0 -2 -3 -5 -5 -4 -6 -6
4 3 2 2 2 2 2 2 2 3 3 1 -0 -3 -6 -4 -6 -4 -5 -4 -4 -3 -3 -1 -0 -1 -1 -2 -1 -2 -4 -6 -6 -1 -2 -2 -2 -0 0 2 -0 -7 -5 -4 -6 -5 -9
3 2 2 1 1 2 2 2 3 3 3 2 1 1 -2 -4 -5 -4 -4 -5 -3 -2 -3 -2 -1 -1 -0 -0 0 0 -1 -5 -4 -4 -0 1 1 2 2 2 1 -3 -4 -5 -3 -9 -8
3 2 2 1 1 1 2 3 2 3 3 3 2 2 1 0 1 -2 -3 -4 -2 -2 -3 -3 -2 -0 0 0 0 -0 -1 -3 -3 -5 -1 -0 1 2 1 2 2 -4 -4 -3 -6 -7 -8
2 2 2 2 2 2 2 3 2 2 3 3 3 2 2 1 0 -0 -1 -3 -3 -5 -3 -4 -3 -1 -0 -1 -0 -0 -0 -2 -2 -1 -3 -2 -3 -1 -0 -0 -5 -4 -5 -6 -6 -6 -6

GFSGBSN_850_dewp_123.txt.gz
Dewpoint
3 3 3 2 1 0 -1 -1 0 2 2 2 2 3 2 2 1 1 0 0 2 3 5 5 2 5 4 -0 -1 -4 -7 -2 -2 -2 0 -1 -4 -5 -4 -7 -6 -5 -5 -5 -7 -9 -9
2 4 3 2 1 -3 -1 -3 1 -1 -1 -2 -1 -1 -2 -0 -2 -3 -2 -0 3 3 3 6 5 3 0 -1 -3 -4 -7 -3 -2 -2 -3 -5 -6 -6 -7 -6 -6 -6 -6 -7 -9 -9 -8
3 3 3 2 1 -2 1 -3 -4 -2 -2 -1 -5 -0 -1 -0 -3 -1 -1 4 6 4 4 4 4 5 -1 -1 -4 -4 -5 -4 -4 -5 -6 -6 -7 -8 -7 -7 -7 -8 -8 -8 -7 -7 -6
3 3 3 3 2 0 -6 -3 -0 -2 -2 -2 -2 -1 -2 -3 0 1 2 4 5 6 6 4 4 3 -1 -2 -4 -4 -5 -4 -6 -7 -7 -7 -8 -9 -8 -10 -9 -10 -9 -9 -7 -7 -4
3 3 3 3 2 1 -4 1 2 1 -0 -1 -3 -5 -3 1 2 5 5 4 5 5 5 5 3 3 -1 -3 -4 -6 -6 -6 -6 -7 -7 -8 -12 -7 -6 -6 -5 -7 -7 -7 -6 -6 -5
3 3 2 3 1 -2 0 1 2 -1 -2 -6 -5 2 3 4 3 3 4 4 4 4 4 3 2 -1 -1 -2 -3 -5 -9 -9 -9 -8 -10 -9 -6 -4 -3 -3 -5 -7 -9 -7 -6 -3 -2
3 3 3 3 1 -2 -0 -1 -1 -2 -3 -6 1 2 3 2 4 4 3 3 2 2 0 1 0 -0 0 -1 -3 -5 -6 -7 -9 -7 -2 -4 -2 -2 -2 -3 -5 -5 -5 -5 -3 -1 1
-1 3 3 3 2 -2 -1 -5 -6 -6 1 2 1 2 3 3 3 3 3 1 2 2 1 0 -0 -1 -0 -1 -2 -2 -3 -5 -6 -1 -4 -3 -1 -3 -3 -2 -3 -3 -3 -2 -2 -1 1
-4 -1 -0 0 1 1 -0 -3 -5 -4 -0 1 1 2 2 2 2 2 1 1 2 2 2 1 0 -1 -1 -2 -1 -1 -2 -2 -2 -1 -2 -3 -2 -3 -2 -0 -1 -0 -2 0 1 2 -0
-5 -4 -2 -2 -1 -1 -0 -1 -5 -1 1 2 2 2 2 0 0 1 0 -0 1 2 1 2 0 -2 -1 -2 -2 -1 -1 -1 -2 -2 -2 -2 -3 -2 -2 -1 -1 -1 0 2 3 1 -1
-6 -6 -4 -3 -2 -2 -1 -1 -0 1 2 1 1 2 3 -1 -1 -2 -1 -3 -2 1 3 2 0 -1 -1 -4 -3 -2 -2 -2 -1 -0 -5 -3 -1 0 -0 -1 0 1 0 2 3 2 0
-4 -6 -6 -4 -3 -2 -2 -1 0 1 1 -0 -1 -0 0 -0 -1 -2 -1 1 2 -0 2 1 -0 -1 -1 -1 -1 -1 -2 -2 -1 -2 -1 -0 -1 -0 0 -1 -1 1 3 2 2 1 -1
-16 -5 -6 -7 -5 -3 -3 -3 -1 0 1 0 -0 -0 -1 -1 -1 -1 -1 2 -0 1 -2 0 -0 -1 -0 0 -0 -1 -0 -0 -1 -5 -3 -1 0 -0 -0 2 2 2 -1 -3 -3 -2 -0
-8 -15 -10 -4 -8 -7 -4 -3 -2 -2 -2 -0 -0 0 0 0 -1 -1 0 -2 2 0 1 -2 -1 -1 1 -0 -0 0 1 -0 -1 -1 -0 -4 -5 0 -0 2 3 3 0 -3 -6 -3 0
-2 -6 -13 -15 -6 -7 -9 -8 -5 -5 -3 -2 -1 0 1 0 1 1 -0 -0 -1 -1 -1 -0 -0 0 0 -0 0 0 1 1 -0 -0 -2 -0 -1 -0 -0 0 1 3 2 -0 -1 -3 1
-1 -2 -5 -10 -14 -8 -8 -10 -8 -6 -5 -4 -2 1 1 1 2 2 -1 1 0 -1 -2 -1 -1 -1 1 1 1 1 1 -1 -0 -1 -0 0 0 1 0 0 1 2 0 1 0 -5 -1
2 -0 -1 -3 -8 -13 -10 -9 -8 -6 -4 -3 0 1 2 3 2 -2 -0 -1 -1 -0 -0 -0 1 0 -0 1 0 1 1 -1 -1 -0 -1 0 -0 1 2 2 2 3 4 3 1 1 1
3 3 2 -1 -2 -6 -12 -9 -8 -8 -3 -1 0 -1 1 2 -1 -1 -1 -1 -1 -1 0 1 -0 -1 -0 -0 0 1 0 -0 -1 -1 1 0 1 2 2 -1 -0 1 2 2 1 -1 1
4 3 3 3 -0 -2 -5 -11 -7 -7 -7 -4 -1 0 -0 -1 -1 -1 0 1 -0 -0 0 0 0 -1 -1 -0 0 -1 -0 -0 -1 -0 1 -0 -0 -2 -7 -3 1 3 2 2 -0 -0 1
3 2 2 2 3 1 -0 -3 -11 -7 -4 -1 -2 -2 -2 -1 -1 -1 0 1 0 0 0 -0 -0 -1 -1 -0 -1 -0 -0 -0 -0 0 1 0 0 -2 -8 -10 -1 2 1 2 2 2 2
2 2 2 1 1 2 2 0 -2 -10 -5 -4 -4 -1 0 -1 -1 -1 -1 -0 0 0 -0 -0 -0 -1 -0 1 -0 0 -1 1 0 1 1 0 1 0 0 -0 -0 -0 -0 0 3 3 3
3 2 2 2 1 1 1 2 1 -4 -10 -7 -3 -2 -2 -1 -1 -2 -2 -0 -0 -0 -1 -1 0 -1 -1 -0 -1 -1 -2 -0 -1 2 1 1 1 1 1 1 1 2 1 1 1 -0 0
3 3 2 2 2 1 1 1 2 1 -5 -10 -7 -3 -2 -2 -2 -5 -2 -1 -1 -2 -2 -1 -1 -1 -1 -1 -2 -2 -2 -2 -2 1 1 2 2 1 2 -0 -0 -1 -2 -1 -1 -0 -0
4 3 3 2 2 1 1 2 1 2 0 -3 -6 -4 -5 -3 -3 -3 -2 -2 -2 -1 -2 -1 -1 -1 -2 -1 -2 -2 -2 -1 -1 -1 1 1 1 -0 2 -1 -5 -8 -6 -4 -3 -3 -2
3 2 2 2 2 1 1 1 2 1 2 1 -1 -3 -5 -7 -4 -5 -5 -3 -3 -2 -1 -1 -2 -1 -1 -1 -2 -4 -7 -3 -1 -2 -2 -1 0 0 0 -0 -2 -5 -5 -3 -3 -5 -5
3 3 2 2 1 1 1 2 2 2 2 2 1 1 -2 -4 -4 -5 -5 -5 -5 -4 -3 -1 -1 -0 -1 -2 -2 -3 -5 -7 -5 -1 -2 -1 -1 -0 0 2 -2 -10 -6 -5 -7 -5 -9
3 2 2 2 1 1 1 2 2 2 2 2 2 2 0 -2 -2 -4 -4 -6 -4 -3 -3 -3 -1 -1 -1 -1 -0 -1 -1 -5 -4 -4 1 1 0 2 2 2 1 -3 -5 -5 -4 -9 -10
2 2 2 2 2 1 1 1 2 2 1 2 2 2 2 1 1 -0 -2 -3 -2 -3 -4 -4 -2 -1 -0 0 -0 -1 -1 -2 -4 -6 -1 1 1 2 1 2 2 -4 -4 -4 -6 -7 -7
2 2 2 2 1 2 1 2 2 2 1 1 2 3 3 2 1 0 -1 -3 -4 -4 -3 -3 -4 -1 -1 -2 -1 -1 0 -1 -2 -2 -4 -2 -3 -0 0 -0 -4 -5 -5 -6 -5 -5 -5